<?xml version="1.0" encoding="UTF-8" standalone="no" ?>
<gpx xmlns="http://www.topografix.com/GPX/1/1" xmlns:xsi="http://www.w3.org/2001/XMLSchema-instance" xsi:schemaLocation="http://www.topografix.com/GPX/1/1 http://www.topografix.com/GPX/1/1/gpx.xsd" version="1.1" creator="VisuGPX - https://www.visugpx.com">
  <metadata>
    <name>CCFM 324</name>
    <desc><![CDATA[⛳️/CS.Mons, Lexhy, Haneffe, Borlez, Les Waleffes, Omal, Ligney, Boêlhe, Kortils, Rosoux, Jeuk, Bettincourt, [b]OLEYE[/b], Waremme, Hollogne-sur-Geer, Darion, Ligney, Omal, Celles, Haneffe, Donceel, Lexhy, Mons.]]></desc>
  </metadata>
  <trk>
    <name><![CDATA[CCFM 324]]></name>
    <extensions>
      <line xmlns="http://www.topografix.com/GPX/gpx_style/0/2">
        <color>0000FF</color>
        <width>4</width>
          <extensions>
            <sens>1</sens>
          </extensions>
      </line>
    </extensions>
    <trkseg>
      <trkpt lat="50.62338" lon="5.44766">
        <ele>191</ele>
        <time>2021-07-18T07:01:36.000Z</time>
        <extensions>
          <visugpx:TrkExtension xmlns:visugpx="https://www.visugpx.com/editgpx/">
            <visugpx:node>10</visugpx:node>
            </visugpx:TrkExtension>
        </extensions>
      </trkpt>
      <trkpt lat="50.62338" lon="5.44748">
        <ele>186.19999694824</ele>
        <time>2021-07-18T07:01:40.000Z</time>
      </trkpt>
      <trkpt lat="50.6234" lon="5.44728">
        <ele>186.60000610352</ele>
        <time>2021-07-18T07:01:43.000Z</time>
      </trkpt>
      <trkpt lat="50.62348" lon="5.44658">
        <ele>186.80000305176</ele>
        <time>2021-07-18T07:01:53.000Z</time>
      </trkpt>
      <trkpt lat="50.62354" lon="5.44593">
        <ele>186.80000305176</ele>
        <time>2021-07-18T07:02:01.000Z</time>
      </trkpt>
      <trkpt lat="50.62355" lon="5.44505">
        <ele>186.80000305176</ele>
        <time>2021-07-18T07:02:11.000Z</time>
      </trkpt>
      <trkpt lat="50.62354" lon="5.44496">
        <ele>186.80000305176</ele>
        <time>2021-07-18T07:02:12.000Z</time>
      </trkpt>
      <trkpt lat="50.62351" lon="5.44433">
        <ele>186.60000610352</ele>
        <time>2021-07-18T07:02:19.000Z</time>
      </trkpt>
      <trkpt lat="50.62347" lon="5.44395">
        <ele>186.39999389648</ele>
        <time>2021-07-18T07:02:23.000Z</time>
      </trkpt>
      <trkpt lat="50.62345" lon="5.44376">
        <ele>186.19999694824</ele>
        <time>2021-07-18T07:02:25.000Z</time>
      </trkpt>
      <trkpt lat="50.6234" lon="5.44347">
        <ele>186.19999694824</ele>
        <time>2021-07-18T07:02:28.000Z</time>
      </trkpt>
      <trkpt lat="50.62324" lon="5.44266">
        <ele>184.60000610352</ele>
        <time>2021-07-18T07:02:36.000Z</time>
      </trkpt>
      <trkpt lat="50.62322" lon="5.44256">
        <ele>184.39999389648</ele>
        <time>2021-07-18T07:02:37.000Z</time>
      </trkpt>
      <trkpt lat="50.62307" lon="5.44192">
        <ele>183.80000305176</ele>
        <time>2021-07-18T07:02:43.000Z</time>
      </trkpt>
      <trkpt lat="50.62305" lon="5.44181">
        <ele>183.80000305176</ele>
        <time>2021-07-18T07:02:44.000Z</time>
      </trkpt>
      <trkpt lat="50.62304" lon="5.44158">
        <ele>183.39999389648</ele>
        <time>2021-07-18T07:02:46.000Z</time>
      </trkpt>
      <trkpt lat="50.62307" lon="5.44136">
        <ele>183.19999694824</ele>
        <time>2021-07-18T07:02:48.000Z</time>
      </trkpt>
      <trkpt lat="50.62314" lon="5.44115">
        <ele>183</ele>
        <time>2021-07-18T07:02:50.000Z</time>
      </trkpt>
      <trkpt lat="50.62323" lon="5.44096">
        <ele>182.60000610352</ele>
        <time>2021-07-18T07:02:52.000Z</time>
      </trkpt>
      <trkpt lat="50.62359" lon="5.44031">
        <ele>181.39999389648</ele>
        <time>2021-07-18T07:03:00.000Z</time>
      </trkpt>
      <trkpt lat="50.62363" lon="5.44023">
        <ele>181.39999389648</ele>
        <time>2021-07-18T07:03:01.000Z</time>
      </trkpt>
      <trkpt lat="50.6237" lon="5.44008">
        <ele>181.39999389648</ele>
        <time>2021-07-18T07:03:03.000Z</time>
      </trkpt>
      <trkpt lat="50.62372" lon="5.4399">
        <ele>181.19999694824</ele>
        <time>2021-07-18T07:03:05.000Z</time>
      </trkpt>
      <trkpt lat="50.62371" lon="5.4397">
        <ele>181.39999389648</ele>
        <time>2021-07-18T07:03:07.000Z</time>
      </trkpt>
      <trkpt lat="50.62368" lon="5.43951">
        <ele>181.39999389648</ele>
        <time>2021-07-18T07:03:09.000Z</time>
      </trkpt>
      <trkpt lat="50.62362" lon="5.43922">
        <ele>181.39999389648</ele>
        <time>2021-07-18T07:03:12.000Z</time>
      </trkpt>
      <trkpt lat="50.62348" lon="5.43853">
        <ele>181.39999389648</ele>
        <time>2021-07-18T07:03:19.000Z</time>
      </trkpt>
      <trkpt lat="50.62343" lon="5.43832">
        <ele>180.80000305176</ele>
        <time>2021-07-18T07:03:21.000Z</time>
      </trkpt>
      <trkpt lat="50.62327" lon="5.4377">
        <ele>179.80000305176</ele>
        <time>2021-07-18T07:03:27.000Z</time>
      </trkpt>
      <trkpt lat="50.62309" lon="5.43718">
        <ele>179.39999389648</ele>
        <time>2021-07-18T07:03:33.000Z</time>
      </trkpt>
      <trkpt lat="50.62303" lon="5.43704">
        <ele>179.19999694824</ele>
        <time>2021-07-18T07:03:35.000Z</time>
      </trkpt>
      <trkpt lat="50.6229" lon="5.43668">
        <ele>179.19999694824</ele>
        <time>2021-07-18T07:03:40.000Z</time>
      </trkpt>
      <trkpt lat="50.62284" lon="5.43654">
        <ele>179.39999389648</ele>
        <time>2021-07-18T07:03:42.000Z</time>
      </trkpt>
      <trkpt lat="50.62265" lon="5.43607">
        <ele>180.60000610352</ele>
        <time>2021-07-18T07:03:49.000Z</time>
      </trkpt>
      <trkpt lat="50.62248" lon="5.43562">
        <ele>181.80000305176</ele>
        <time>2021-07-18T07:03:56.000Z</time>
      </trkpt>
      <trkpt lat="50.62244" lon="5.43549">
        <ele>182.39999389648</ele>
        <time>2021-07-18T07:03:58.000Z</time>
      </trkpt>
      <trkpt lat="50.62242" lon="5.43543">
        <ele>182.80000305176</ele>
        <time>2021-07-18T07:03:59.000Z</time>
      </trkpt>
      <trkpt lat="50.62234" lon="5.43511">
        <ele>183.39999389648</ele>
        <time>2021-07-18T07:04:04.000Z</time>
      </trkpt>
      <trkpt lat="50.62232" lon="5.43497">
        <ele>183.80000305176</ele>
        <time>2021-07-18T07:04:06.000Z</time>
      </trkpt>
      <trkpt lat="50.62231" lon="5.4349">
        <ele>183.80000305176</ele>
        <time>2021-07-18T07:04:07.000Z</time>
      </trkpt>
      <trkpt lat="50.62227" lon="5.43478">
        <ele>184.60000610352</ele>
        <time>2021-07-18T07:04:09.000Z</time>
      </trkpt>
      <trkpt lat="50.62224" lon="5.43473">
        <ele>184.60000610352</ele>
        <time>2021-07-18T07:04:10.000Z</time>
      </trkpt>
      <trkpt lat="50.6222" lon="5.43469">
        <ele>185</ele>
        <time>2021-07-18T07:04:11.000Z</time>
      </trkpt>
      <trkpt lat="50.62212" lon="5.43461">
        <ele>185.19999694824</ele>
        <time>2021-07-18T07:04:13.000Z</time>
      </trkpt>
      <trkpt lat="50.62208" lon="5.43455">
        <ele>185.19999694824</ele>
        <time>2021-07-18T07:04:14.000Z</time>
      </trkpt>
      <trkpt lat="50.6219" lon="5.43409">
        <ele>185.39999389648</ele>
        <time>2021-07-18T07:04:20.000Z</time>
      </trkpt>
      <trkpt lat="50.62187" lon="5.43402">
        <ele>185.60000610352</ele>
        <time>2021-07-18T07:04:21.000Z</time>
      </trkpt>
      <trkpt lat="50.62174" lon="5.43364">
        <ele>186.19999694824</ele>
        <time>2021-07-18T07:04:26.000Z</time>
      </trkpt>
      <trkpt lat="50.62158" lon="5.43321">
        <ele>186.60000610352</ele>
        <time>2021-07-18T07:04:32.000Z</time>
      </trkpt>
      <trkpt lat="50.62155" lon="5.43314">
        <ele>186.60000610352</ele>
        <time>2021-07-18T07:04:33.000Z</time>
      </trkpt>
      <trkpt lat="50.62148" lon="5.43301">
        <ele>186.80000305176</ele>
        <time>2021-07-18T07:04:35.000Z</time>
      </trkpt>
      <trkpt lat="50.6214" lon="5.43291">
        <ele>187.39999389648</ele>
        <time>2021-07-18T07:04:37.000Z</time>
      </trkpt>
      <trkpt lat="50.62136" lon="5.43286">
        <ele>187.60000610352</ele>
        <time>2021-07-18T07:04:38.000Z</time>
      </trkpt>
      <trkpt lat="50.6209" lon="5.43239">
        <ele>188.80000305176</ele>
        <time>2021-07-18T07:04:48.000Z</time>
      </trkpt>
      <trkpt lat="50.62079" lon="5.43228">
        <ele>189</ele>
        <time>2021-07-18T07:04:50.000Z</time>
      </trkpt>
      <trkpt lat="50.62057" lon="5.43201">
        <ele>188.80000305176</ele>
        <time>2021-07-18T07:04:54.000Z</time>
      </trkpt>
      <trkpt lat="50.62017" lon="5.43165">
        <ele>187.60000610352</ele>
        <time>2021-07-18T07:05:01.000Z</time>
      </trkpt>
      <trkpt lat="50.61994" lon="5.43153">
        <ele>187.19999694824</ele>
        <time>2021-07-18T07:05:05.000Z</time>
      </trkpt>
      <trkpt lat="50.61977" lon="5.43143">
        <ele>187.19999694824</ele>
        <time>2021-07-18T07:05:08.000Z</time>
      </trkpt>
      <trkpt lat="50.61953" lon="5.43114">
        <ele>187.60000610352</ele>
        <time>2021-07-18T07:05:13.000Z</time>
      </trkpt>
      <trkpt lat="50.61909" lon="5.43052">
        <ele>187.39999389648</ele>
        <time>2021-07-18T07:05:22.000Z</time>
      </trkpt>
      <trkpt lat="50.61899" lon="5.43039">
        <ele>187.19999694824</ele>
        <time>2021-07-18T07:05:24.000Z</time>
      </trkpt>
      <trkpt lat="50.61865" lon="5.42993">
        <ele>186.80000305176</ele>
        <time>2021-07-18T07:05:31.000Z</time>
      </trkpt>
      <trkpt lat="50.61856" lon="5.42981">
        <ele>186.80000305176</ele>
        <time>2021-07-18T07:05:33.000Z</time>
      </trkpt>
      <trkpt lat="50.61819" lon="5.42937">
        <ele>187</ele>
        <time>2021-07-18T07:05:41.000Z</time>
      </trkpt>
      <trkpt lat="50.61797" lon="5.42915">
        <ele>187.19999694824</ele>
        <time>2021-07-18T07:05:45.000Z</time>
      </trkpt>
      <trkpt lat="50.61791" lon="5.42909">
        <ele>187.19999694824</ele>
        <time>2021-07-18T07:05:46.000Z</time>
      </trkpt>
      <trkpt lat="50.61785" lon="5.42902">
        <ele>187</ele>
        <time>2021-07-18T07:05:47.000Z</time>
      </trkpt>
      <trkpt lat="50.6178" lon="5.42894">
        <ele>187</ele>
        <time>2021-07-18T07:05:48.000Z</time>
      </trkpt>
      <trkpt lat="50.61776" lon="5.42884">
        <ele>187</ele>
        <time>2021-07-18T07:05:49.000Z</time>
      </trkpt>
      <trkpt lat="50.6177" lon="5.42862">
        <ele>187</ele>
        <time>2021-07-18T07:05:51.000Z</time>
      </trkpt>
      <trkpt lat="50.61772" lon="5.42838">
        <ele>186.60000610352</ele>
        <time>2021-07-18T07:05:53.000Z</time>
      </trkpt>
      <trkpt lat="50.61775" lon="5.42827">
        <ele>186.60000610352</ele>
        <time>2021-07-18T07:05:54.000Z</time>
      </trkpt>
      <trkpt lat="50.61779" lon="5.42816">
        <ele>186.39999389648</ele>
        <time>2021-07-18T07:05:55.000Z</time>
      </trkpt>
      <trkpt lat="50.61788" lon="5.42794">
        <ele>185.60000610352</ele>
        <time>2021-07-18T07:05:57.000Z</time>
      </trkpt>
      <trkpt lat="50.61797" lon="5.42771">
        <ele>184.80000305176</ele>
        <time>2021-07-18T07:05:59.000Z</time>
      </trkpt>
      <trkpt lat="50.61801" lon="5.42759">
        <ele>184.39999389648</ele>
        <time>2021-07-18T07:06:00.000Z</time>
      </trkpt>
      <trkpt lat="50.61808" lon="5.4272">
        <ele>183.39999389648</ele>
        <time>2021-07-18T07:06:03.000Z</time>
      </trkpt>
      <trkpt lat="50.61814" lon="5.42686">
        <ele>182</ele>
        <time>2021-07-18T07:06:06.000Z</time>
      </trkpt>
      <trkpt lat="50.61817" lon="5.42666">
        <ele>181.60000610352</ele>
        <time>2021-07-18T07:06:08.000Z</time>
      </trkpt>
      <trkpt lat="50.61818" lon="5.42647">
        <ele>181.60000610352</ele>
        <time>2021-07-18T07:06:10.000Z</time>
      </trkpt>
      <trkpt lat="50.61817" lon="5.4262">
        <ele>181.39999389648</ele>
        <time>2021-07-18T07:06:13.000Z</time>
      </trkpt>
      <trkpt lat="50.61813" lon="5.42596">
        <ele>181.39999389648</ele>
        <time>2021-07-18T07:06:16.000Z</time>
      </trkpt>
      <trkpt lat="50.61809" lon="5.42564">
        <ele>182.80000305176</ele>
        <time>2021-07-18T07:06:20.000Z</time>
      </trkpt>
      <trkpt lat="50.61809" lon="5.42547">
        <ele>183.19999694824</ele>
        <time>2021-07-18T07:06:22.000Z</time>
      </trkpt>
      <trkpt lat="50.6181" lon="5.4253">
        <ele>183.39999389648</ele>
        <time>2021-07-18T07:06:24.000Z</time>
      </trkpt>
      <trkpt lat="50.61812" lon="5.42514">
        <ele>184</ele>
        <time>2021-07-18T07:06:26.000Z</time>
      </trkpt>
      <trkpt lat="50.61828" lon="5.42452">
        <ele>185.60000610352</ele>
        <time>2021-07-18T07:06:34.000Z</time>
      </trkpt>
      <trkpt lat="50.6183" lon="5.42445">
        <ele>186.19999694824</ele>
        <time>2021-07-18T07:06:35.000Z</time>
      </trkpt>
      <trkpt lat="50.61854" lon="5.42387">
        <ele>187.19999694824</ele>
        <time>2021-07-18T07:06:43.000Z</time>
      </trkpt>
      <trkpt lat="50.61857" lon="5.42379">
        <ele>187.19999694824</ele>
        <time>2021-07-18T07:06:44.000Z</time>
      </trkpt>
      <trkpt lat="50.61878" lon="5.4233">
        <ele>187.19999694824</ele>
        <time>2021-07-18T07:06:50.000Z</time>
      </trkpt>
      <trkpt lat="50.61882" lon="5.42321">
        <ele>187.19999694824</ele>
        <time>2021-07-18T07:06:51.000Z</time>
      </trkpt>
      <trkpt lat="50.61895" lon="5.42289">
        <ele>187</ele>
        <time>2021-07-18T07:06:55.000Z</time>
      </trkpt>
      <trkpt lat="50.61901" lon="5.42273">
        <ele>186.19999694824</ele>
        <time>2021-07-18T07:06:57.000Z</time>
      </trkpt>
      <trkpt lat="50.61903" lon="5.42264">
        <ele>186.19999694824</ele>
        <time>2021-07-18T07:06:58.000Z</time>
      </trkpt>
      <trkpt lat="50.61904" lon="5.42255">
        <ele>185.80000305176</ele>
        <time>2021-07-18T07:06:59.000Z</time>
      </trkpt>
      <trkpt lat="50.61905" lon="5.42236">
        <ele>185.80000305176</ele>
        <time>2021-07-18T07:07:01.000Z</time>
      </trkpt>
      <trkpt lat="50.61905" lon="5.42217">
        <ele>185.39999389648</ele>
        <time>2021-07-18T07:07:03.000Z</time>
      </trkpt>
      <trkpt lat="50.61905" lon="5.42176">
        <ele>184.80000305176</ele>
        <time>2021-07-18T07:07:07.000Z</time>
      </trkpt>
      <trkpt lat="50.61904" lon="5.42125">
        <ele>183.80000305176</ele>
        <time>2021-07-18T07:07:12.000Z</time>
      </trkpt>
      <trkpt lat="50.61902" lon="5.42105">
        <ele>183.39999389648</ele>
        <time>2021-07-18T07:07:14.000Z</time>
      </trkpt>
      <trkpt lat="50.61899" lon="5.42064">
        <ele>182.60000610352</ele>
        <time>2021-07-18T07:07:18.000Z</time>
      </trkpt>
      <trkpt lat="50.61892" lon="5.41974">
        <ele>182.19999694824</ele>
        <time>2021-07-18T07:07:27.000Z</time>
      </trkpt>
      <trkpt lat="50.61893" lon="5.4191">
        <ele>182.19999694824</ele>
        <time>2021-07-18T07:07:34.000Z</time>
      </trkpt>
      <trkpt lat="50.61893" lon="5.41901">
        <ele>182.19999694824</ele>
        <time>2021-07-18T07:07:35.000Z</time>
      </trkpt>
      <trkpt lat="50.61894" lon="5.41892">
        <ele>182</ele>
        <time>2021-07-18T07:07:36.000Z</time>
      </trkpt>
      <trkpt lat="50.61895" lon="5.41884">
        <ele>182.19999694824</ele>
        <time>2021-07-18T07:07:37.000Z</time>
      </trkpt>
      <trkpt lat="50.619" lon="5.4181">
        <ele>182.80000305176</ele>
        <time>2021-07-18T07:07:45.000Z</time>
      </trkpt>
      <trkpt lat="50.61908" lon="5.4173">
        <ele>182.80000305176</ele>
        <time>2021-07-18T07:07:54.000Z</time>
      </trkpt>
      <trkpt lat="50.61923" lon="5.41691">
        <ele>187</ele>
        <time>2021-07-18T07:07:56.000Z</time>
        <extensions>
          <visugpx:TrkExtension xmlns:visugpx="https://www.visugpx.com/editgpx/">
            <visugpx:node>1</visugpx:node>
            </visugpx:TrkExtension>
        </extensions>
      </trkpt>
      <trkpt lat="50.61921" lon="5.41688">
        <ele>187</ele>
      </trkpt>
      <trkpt lat="50.62019" lon="5.41544">
        <ele>186</ele>
        <extensions>
          <visugpx:TrkExtension xmlns:visugpx="https://www.visugpx.com/editgpx/">
            <visugpx:node>2</visugpx:node>
            </visugpx:TrkExtension>
        </extensions>
      </trkpt>
      <trkpt lat="50.61919" lon="5.41251">
        <ele>183</ele>
      </trkpt>
      <trkpt lat="50.61921" lon="5.41219">
        <ele>182.9</ele>
      </trkpt>
      <trkpt lat="50.62078" lon="5.41132">
        <ele>181.2</ele>
      </trkpt>
      <trkpt lat="50.62233" lon="5.41091">
        <ele>178</ele>
      </trkpt>
      <trkpt lat="50.62302" lon="5.41187">
        <ele>177.1</ele>
      </trkpt>
      <trkpt lat="50.62505" lon="5.40931">
        <ele>170.4</ele>
      </trkpt>
      <trkpt lat="50.62764" lon="5.4059">
        <ele>158.6</ele>
      </trkpt>
      <trkpt lat="50.63278" lon="5.39925">
        <ele>161</ele>
      </trkpt>
      <trkpt lat="50.6352" lon="5.39627">
        <ele>165</ele>
      </trkpt>
      <trkpt lat="50.63411" lon="5.3828">
        <ele>166.2</ele>
      </trkpt>
      <trkpt lat="50.6333" lon="5.37223">
        <ele>178</ele>
      </trkpt>
      <trkpt lat="50.63329" lon="5.37221">
        <ele>178</ele>
        <extensions>
          <visugpx:TrkExtension xmlns:visugpx="https://www.visugpx.com/editgpx/">
            <visugpx:node>9</visugpx:node>
            </visugpx:TrkExtension>
        </extensions>
      </trkpt>
      <trkpt lat="50.63326" lon="5.3717">
        <ele>173</ele>
        <time>2021-07-18T07:17:29.000Z</time>
      </trkpt>
      <trkpt lat="50.63324" lon="5.37141">
        <ele>173.19999694824</ele>
        <time>2021-07-18T07:17:32.000Z</time>
      </trkpt>
      <trkpt lat="50.63322" lon="5.37121">
        <ele>173.19999694824</ele>
        <time>2021-07-18T07:17:34.000Z</time>
      </trkpt>
      <trkpt lat="50.63316" lon="5.37042">
        <ele>174.60000610352</ele>
        <time>2021-07-18T07:17:42.000Z</time>
      </trkpt>
      <trkpt lat="50.63309" lon="5.36957">
        <ele>175.39999389648</ele>
        <time>2021-07-18T07:17:50.000Z</time>
      </trkpt>
      <trkpt lat="50.63308" lon="5.36936">
        <ele>175.60000610352</ele>
        <time>2021-07-18T07:17:52.000Z</time>
      </trkpt>
      <trkpt lat="50.63301" lon="5.36851">
        <ele>175.39999389648</ele>
        <time>2021-07-18T07:18:00.000Z</time>
      </trkpt>
      <trkpt lat="50.63298" lon="5.36819">
        <ele>175</ele>
        <time>2021-07-18T07:18:03.000Z</time>
      </trkpt>
      <trkpt lat="50.63295" lon="5.36765">
        <ele>174.60000610352</ele>
        <time>2021-07-18T07:18:08.000Z</time>
      </trkpt>
      <trkpt lat="50.63295" lon="5.36722">
        <ele>174.60000610352</ele>
        <time>2021-07-18T07:18:12.000Z</time>
      </trkpt>
      <trkpt lat="50.63295" lon="5.36636">
        <ele>174.60000610352</ele>
        <time>2021-07-18T07:18:20.000Z</time>
      </trkpt>
      <trkpt lat="50.63295" lon="5.36596">
        <ele>174.60000610352</ele>
        <time>2021-07-18T07:18:24.000Z</time>
      </trkpt>
      <trkpt lat="50.63296" lon="5.36544">
        <ele>174.80000305176</ele>
        <time>2021-07-18T07:18:29.000Z</time>
      </trkpt>
      <trkpt lat="50.63296" lon="5.36493">
        <ele>175</ele>
        <time>2021-07-18T07:18:34.000Z</time>
      </trkpt>
      <trkpt lat="50.63296" lon="5.36434">
        <ele>175.60000610352</ele>
        <time>2021-07-18T07:18:40.000Z</time>
      </trkpt>
      <trkpt lat="50.63296" lon="5.36396">
        <ele>176</ele>
        <time>2021-07-18T07:18:45.000Z</time>
      </trkpt>
      <trkpt lat="50.63297" lon="5.36378">
        <ele>176.19999694824</ele>
        <time>2021-07-18T07:18:49.000Z</time>
      </trkpt>
      <trkpt lat="50.63296" lon="5.36372">
        <ele>176.39999389648</ele>
        <time>2021-07-18T07:18:51.000Z</time>
      </trkpt>
      <trkpt lat="50.63297" lon="5.36366">
        <ele>176.80000305176</ele>
        <time>2021-07-18T07:18:54.000Z</time>
      </trkpt>
      <trkpt lat="50.63297" lon="5.3636">
        <ele>176.80000305176</ele>
        <time>2021-07-18T07:18:57.000Z</time>
      </trkpt>
      <trkpt lat="50.63297" lon="5.36357">
        <ele>176.80000305176</ele>
        <time>2021-07-18T07:18:58.000Z</time>
      </trkpt>
      <trkpt lat="50.63298" lon="5.36336">
        <ele>176.80000305176</ele>
        <time>2021-07-18T07:19:03.000Z</time>
      </trkpt>
      <trkpt lat="50.63297" lon="5.3633">
        <ele>176.80000305176</ele>
        <time>2021-07-18T07:19:04.000Z</time>
      </trkpt>
      <trkpt lat="50.63291" lon="5.36292">
        <ele>176.60000610352</ele>
        <time>2021-07-18T07:19:09.000Z</time>
      </trkpt>
      <trkpt lat="50.63282" lon="5.36207">
        <ele>176.39999389648</ele>
        <time>2021-07-18T07:19:19.000Z</time>
      </trkpt>
      <trkpt lat="50.63271" lon="5.36118">
        <ele>176.39999389648</ele>
        <time>2021-07-18T07:19:29.000Z</time>
      </trkpt>
      <trkpt lat="50.63265" lon="5.36067">
        <ele>176.39999389648</ele>
        <time>2021-07-18T07:19:34.000Z</time>
      </trkpt>
      <trkpt lat="50.63265" lon="5.36035">
        <ele>176</ele>
        <time>2021-07-18T07:19:37.000Z</time>
      </trkpt>
      <trkpt lat="50.63271" lon="5.3596">
        <ele>175.19999694824</ele>
        <time>2021-07-18T07:19:44.000Z</time>
      </trkpt>
      <trkpt lat="50.63274" lon="5.35938">
        <ele>175.19999694824</ele>
        <time>2021-07-18T07:19:46.000Z</time>
      </trkpt>
      <trkpt lat="50.63277" lon="5.35905">
        <ele>174.80000305176</ele>
        <time>2021-07-18T07:19:49.000Z</time>
      </trkpt>
      <trkpt lat="50.63284" lon="5.35837">
        <ele>174.39999389648</ele>
        <time>2021-07-18T07:19:55.000Z</time>
      </trkpt>
      <trkpt lat="50.63294" lon="5.35744">
        <ele>173</ele>
        <time>2021-07-18T07:20:03.000Z</time>
      </trkpt>
      <trkpt lat="50.63295" lon="5.35732">
        <ele>173</ele>
        <time>2021-07-18T07:20:04.000Z</time>
      </trkpt>
      <trkpt lat="50.63299" lon="5.35697">
        <ele>172.80000305176</ele>
        <time>2021-07-18T07:20:07.000Z</time>
      </trkpt>
      <trkpt lat="50.63303" lon="5.35662">
        <ele>172.60000610352</ele>
        <time>2021-07-18T07:20:10.000Z</time>
      </trkpt>
      <trkpt lat="50.6331" lon="5.35594">
        <ele>171.60000610352</ele>
        <time>2021-07-18T07:20:16.000Z</time>
      </trkpt>
      <trkpt lat="50.63317" lon="5.35527">
        <ele>170.80000305176</ele>
        <time>2021-07-18T07:20:22.000Z</time>
      </trkpt>
      <trkpt lat="50.63322" lon="5.3547">
        <ele>170.39999389648</ele>
        <time>2021-07-18T07:20:27.000Z</time>
      </trkpt>
      <trkpt lat="50.63326" lon="5.35383">
        <ele>169</ele>
        <time>2021-07-18T07:20:35.000Z</time>
      </trkpt>
      <trkpt lat="50.63326" lon="5.3536">
        <ele>169</ele>
        <time>2021-07-18T07:20:37.000Z</time>
      </trkpt>
      <trkpt lat="50.63328" lon="5.35274">
        <ele>168.60000610352</ele>
        <time>2021-07-18T07:20:45.000Z</time>
      </trkpt>
      <trkpt lat="50.63328" lon="5.35242">
        <ele>168.39999389648</ele>
        <time>2021-07-18T07:20:48.000Z</time>
      </trkpt>
      <trkpt lat="50.63331" lon="5.35157">
        <ele>168.80000305176</ele>
        <time>2021-07-18T07:20:56.000Z</time>
      </trkpt>
      <trkpt lat="50.63332" lon="5.35146">
        <ele>168.80000305176</ele>
        <time>2021-07-18T07:20:57.000Z</time>
      </trkpt>
      <trkpt lat="50.63334" lon="5.35115">
        <ele>169</ele>
        <time>2021-07-18T07:21:00.000Z</time>
      </trkpt>
      <trkpt lat="50.63336" lon="5.35094">
        <ele>169.39999389648</ele>
        <time>2021-07-18T07:21:02.000Z</time>
      </trkpt>
      <trkpt lat="50.63341" lon="5.35022">
        <ele>170.19999694824</ele>
        <time>2021-07-18T07:21:09.000Z</time>
      </trkpt>
      <trkpt lat="50.63342" lon="5.35012">
        <ele>170.39999389648</ele>
        <time>2021-07-18T07:21:10.000Z</time>
      </trkpt>
      <trkpt lat="50.63348" lon="5.34921">
        <ele>171.80000305176</ele>
        <time>2021-07-18T07:21:19.000Z</time>
      </trkpt>
      <trkpt lat="50.6335" lon="5.34902">
        <ele>172</ele>
        <time>2021-07-18T07:21:21.000Z</time>
      </trkpt>
      <trkpt lat="50.6335" lon="5.34892">
        <ele>172.19999694824</ele>
        <time>2021-07-18T07:21:22.000Z</time>
      </trkpt>
      <trkpt lat="50.63362" lon="5.34805">
        <ele>173.19999694824</ele>
        <time>2021-07-18T07:21:31.000Z</time>
      </trkpt>
      <trkpt lat="50.63367" lon="5.34775">
        <ele>173.39999389648</ele>
        <time>2021-07-18T07:21:34.000Z</time>
      </trkpt>
      <trkpt lat="50.63382" lon="5.34691">
        <ele>173.19999694824</ele>
        <time>2021-07-18T07:21:42.000Z</time>
      </trkpt>
      <trkpt lat="50.63384" lon="5.34681">
        <ele>173.19999694824</ele>
        <time>2021-07-18T07:21:43.000Z</time>
      </trkpt>
      <trkpt lat="50.63399" lon="5.34594">
        <ele>171.80000305176</ele>
        <time>2021-07-18T07:21:51.000Z</time>
      </trkpt>
      <trkpt lat="50.63403" lon="5.34573">
        <ele>171.19999694824</ele>
        <time>2021-07-18T07:21:53.000Z</time>
      </trkpt>
      <trkpt lat="50.63419" lon="5.34483">
        <ele>169.80000305176</ele>
        <time>2021-07-18T07:22:01.000Z</time>
      </trkpt>
      <trkpt lat="50.63423" lon="5.34461">
        <ele>169.60000610352</ele>
        <time>2021-07-18T07:22:03.000Z</time>
      </trkpt>
      <trkpt lat="50.63438" lon="5.34374">
        <ele>169.19999694824</ele>
        <time>2021-07-18T07:22:11.000Z</time>
      </trkpt>
      <trkpt lat="50.63442" lon="5.34352">
        <ele>169.19999694824</ele>
        <time>2021-07-18T07:22:13.000Z</time>
      </trkpt>
      <trkpt lat="50.63457" lon="5.34268">
        <ele>170</ele>
        <time>2021-07-18T07:22:21.000Z</time>
      </trkpt>
      <trkpt lat="50.63461" lon="5.34247">
        <ele>170.19999694824</ele>
        <time>2021-07-18T07:22:23.000Z</time>
      </trkpt>
      <trkpt lat="50.63475" lon="5.34167">
        <ele>171.39999389648</ele>
        <time>2021-07-18T07:22:31.000Z</time>
      </trkpt>
      <trkpt lat="50.63481" lon="5.34085">
        <ele>172</ele>
        <time>2021-07-18T07:22:39.000Z</time>
      </trkpt>
      <trkpt lat="50.63481" lon="5.34075">
        <ele>172</ele>
        <time>2021-07-18T07:22:40.000Z</time>
      </trkpt>
      <trkpt lat="50.63481" lon="5.34043">
        <ele>172.19999694824</ele>
        <time>2021-07-18T07:22:43.000Z</time>
      </trkpt>
      <trkpt lat="50.63482" lon="5.33969">
        <ele>172.19999694824</ele>
        <time>2021-07-18T07:22:50.000Z</time>
      </trkpt>
      <trkpt lat="50.63483" lon="5.33926">
        <ele>171.80000305176</ele>
        <time>2021-07-18T07:22:54.000Z</time>
      </trkpt>
      <trkpt lat="50.63484" lon="5.3384">
        <ele>171</ele>
        <time>2021-07-18T07:23:02.000Z</time>
      </trkpt>
      <trkpt lat="50.63484" lon="5.33808">
        <ele>170.60000610352</ele>
        <time>2021-07-18T07:23:05.000Z</time>
      </trkpt>
      <trkpt lat="50.63485" lon="5.33723">
        <ele>170</ele>
        <time>2021-07-18T07:23:13.000Z</time>
      </trkpt>
      <trkpt lat="50.63486" lon="5.33713">
        <ele>169.80000305176</ele>
        <time>2021-07-18T07:23:14.000Z</time>
      </trkpt>
      <trkpt lat="50.63487" lon="5.33684">
        <ele>169</ele>
        <time>2021-07-18T07:23:17.000Z</time>
      </trkpt>
      <trkpt lat="50.63487" lon="5.33674">
        <ele>168.80000305176</ele>
        <time>2021-07-18T07:23:18.000Z</time>
      </trkpt>
      <trkpt lat="50.63491" lon="5.33626">
        <ele>168.19999694824</ele>
        <time>2021-07-18T07:23:23.000Z</time>
      </trkpt>
      <trkpt lat="50.635" lon="5.33554">
        <ele>167.60000610352</ele>
        <time>2021-07-18T07:23:30.000Z</time>
      </trkpt>
      <trkpt lat="50.63515" lon="5.33473">
        <ele>167.19999694824</ele>
        <time>2021-07-18T07:23:38.000Z</time>
      </trkpt>
      <trkpt lat="50.63519" lon="5.33453">
        <ele>167</ele>
        <time>2021-07-18T07:23:40.000Z</time>
      </trkpt>
      <trkpt lat="50.63525" lon="5.33408">
        <ele>167</ele>
        <time>2021-07-18T07:23:44.000Z</time>
      </trkpt>
      <trkpt lat="50.63526" lon="5.33397">
        <ele>166.80000305176</ele>
        <time>2021-07-18T07:23:45.000Z</time>
      </trkpt>
      <trkpt lat="50.63528" lon="5.33362">
        <ele>166.60000610352</ele>
        <time>2021-07-18T07:23:48.000Z</time>
      </trkpt>
      <trkpt lat="50.63526" lon="5.33327">
        <ele>166.39999389648</ele>
        <time>2021-07-18T07:23:51.000Z</time>
      </trkpt>
      <trkpt lat="50.63519" lon="5.33247">
        <ele>165.19999694824</ele>
        <time>2021-07-18T07:23:58.000Z</time>
      </trkpt>
      <trkpt lat="50.63517" lon="5.33226">
        <ele>165.19999694824</ele>
        <time>2021-07-18T07:24:00.000Z</time>
      </trkpt>
      <trkpt lat="50.63508" lon="5.33142">
        <ele>164.39999389648</ele>
        <time>2021-07-18T07:24:08.000Z</time>
      </trkpt>
      <trkpt lat="50.63497" lon="5.33091">
        <ele>163.19999694824</ele>
        <time>2021-07-18T07:24:13.000Z</time>
      </trkpt>
      <trkpt lat="50.63494" lon="5.33081">
        <ele>163.19999694824</ele>
        <time>2021-07-18T07:24:14.000Z</time>
      </trkpt>
      <trkpt lat="50.63477" lon="5.33013">
        <ele>162.60000610352</ele>
        <time>2021-07-18T07:24:21.000Z</time>
      </trkpt>
      <trkpt lat="50.63458" lon="5.32922">
        <ele>161.19999694824</ele>
        <time>2021-07-18T07:24:30.000Z</time>
      </trkpt>
      <trkpt lat="50.63456" lon="5.32912">
        <ele>161.19999694824</ele>
        <time>2021-07-18T07:24:31.000Z</time>
      </trkpt>
      <trkpt lat="50.63451" lon="5.3287">
        <ele>160.60000610352</ele>
        <time>2021-07-18T07:24:35.000Z</time>
      </trkpt>
      <trkpt lat="50.63449" lon="5.32848">
        <ele>160.60000610352</ele>
        <time>2021-07-18T07:24:37.000Z</time>
      </trkpt>
      <trkpt lat="50.63441" lon="5.32782">
        <ele>160</ele>
        <time>2021-07-18T07:24:43.000Z</time>
      </trkpt>
      <trkpt lat="50.63432" lon="5.32715">
        <ele>159</ele>
        <time>2021-07-18T07:24:49.000Z</time>
      </trkpt>
      <trkpt lat="50.63426" lon="5.3267">
        <ele>158.60000610352</ele>
        <time>2021-07-18T07:24:53.000Z</time>
      </trkpt>
      <trkpt lat="50.63418" lon="5.326">
        <ele>157.60000610352</ele>
        <time>2021-07-18T07:24:59.000Z</time>
      </trkpt>
      <trkpt lat="50.63415" lon="5.32576">
        <ele>157.39999389648</ele>
        <time>2021-07-18T07:25:01.000Z</time>
      </trkpt>
      <trkpt lat="50.63409" lon="5.32517">
        <ele>156.80000305176</ele>
        <time>2021-07-18T07:25:06.000Z</time>
      </trkpt>
      <trkpt lat="50.63408" lon="5.32506">
        <ele>156.80000305176</ele>
        <time>2021-07-18T07:25:07.000Z</time>
      </trkpt>
      <trkpt lat="50.63408" lon="5.32496">
        <ele>156.60000610352</ele>
        <time>2021-07-18T07:25:08.000Z</time>
      </trkpt>
      <trkpt lat="50.63409" lon="5.32486">
        <ele>156.19999694824</ele>
        <time>2021-07-18T07:25:09.000Z</time>
      </trkpt>
      <trkpt lat="50.63412" lon="5.32477">
        <ele>156</ele>
        <time>2021-07-18T07:25:10.000Z</time>
      </trkpt>
      <trkpt lat="50.63417" lon="5.32472">
        <ele>155.80000305176</ele>
        <time>2021-07-18T07:25:11.000Z</time>
      </trkpt>
      <trkpt lat="50.6343" lon="5.32467">
        <ele>155.19999694824</ele>
        <time>2021-07-18T07:25:13.000Z</time>
      </trkpt>
      <trkpt lat="50.63436" lon="5.32464">
        <ele>155</ele>
        <time>2021-07-18T07:25:14.000Z</time>
      </trkpt>
      <trkpt lat="50.63442" lon="5.3246">
        <ele>154.60000610352</ele>
        <time>2021-07-18T07:25:15.000Z</time>
      </trkpt>
      <trkpt lat="50.63448" lon="5.32453">
        <ele>154.19999694824</ele>
        <time>2021-07-18T07:25:16.000Z</time>
      </trkpt>
      <trkpt lat="50.63453" lon="5.32444">
        <ele>153.80000305176</ele>
        <time>2021-07-18T07:25:17.000Z</time>
      </trkpt>
      <trkpt lat="50.63466" lon="5.32413">
        <ele>152.39999389648</ele>
        <time>2021-07-18T07:25:20.000Z</time>
      </trkpt>
      <trkpt lat="50.63474" lon="5.3239">
        <ele>151.60000610352</ele>
        <time>2021-07-18T07:25:22.000Z</time>
      </trkpt>
      <trkpt lat="50.63486" lon="5.32355">
        <ele>150.39999389648</ele>
        <time>2021-07-18T07:25:25.000Z</time>
      </trkpt>
      <trkpt lat="50.635" lon="5.32312">
        <ele>148.60000610352</ele>
        <time>2021-07-18T07:25:29.000Z</time>
      </trkpt>
      <trkpt lat="50.63517" lon="5.32259">
        <ele>146.19999694824</ele>
        <time>2021-07-18T07:25:35.000Z</time>
      </trkpt>
      <trkpt lat="50.63526" lon="5.32234">
        <ele>144.80000305176</ele>
        <time>2021-07-18T07:25:38.000Z</time>
      </trkpt>
      <trkpt lat="50.6353" lon="5.32226">
        <ele>144.39999389648</ele>
        <time>2021-07-18T07:25:39.000Z</time>
      </trkpt>
      <trkpt lat="50.63536" lon="5.3222">
        <ele>144</ele>
        <time>2021-07-18T07:25:40.000Z</time>
      </trkpt>
      <trkpt lat="50.63543" lon="5.32216">
        <ele>143.60000610352</ele>
        <time>2021-07-18T07:25:41.000Z</time>
      </trkpt>
      <trkpt lat="50.63556" lon="5.32214">
        <ele>143.19999694824</ele>
        <time>2021-07-18T07:25:43.000Z</time>
      </trkpt>
      <trkpt lat="50.6357" lon="5.32212">
        <ele>142.80000305176</ele>
        <time>2021-07-18T07:25:45.000Z</time>
      </trkpt>
      <trkpt lat="50.63584" lon="5.32211">
        <ele>142</ele>
        <time>2021-07-18T07:25:47.000Z</time>
      </trkpt>
      <trkpt lat="50.63597" lon="5.3221">
        <ele>141.80000305176</ele>
        <time>2021-07-18T07:25:49.000Z</time>
      </trkpt>
      <trkpt lat="50.63604" lon="5.32209">
        <ele>141.19999694824</ele>
        <time>2021-07-18T07:25:50.000Z</time>
      </trkpt>
      <trkpt lat="50.63611" lon="5.32209">
        <ele>141.39999389648</ele>
        <time>2021-07-18T07:25:51.000Z</time>
      </trkpt>
      <trkpt lat="50.63632" lon="5.32203">
        <ele>141</ele>
        <time>2021-07-18T07:25:54.000Z</time>
      </trkpt>
      <trkpt lat="50.63638" lon="5.32201">
        <ele>140.80000305176</ele>
        <time>2021-07-18T07:25:55.000Z</time>
      </trkpt>
      <trkpt lat="50.63645" lon="5.32197">
        <ele>140.80000305176</ele>
        <time>2021-07-18T07:25:56.000Z</time>
      </trkpt>
      <trkpt lat="50.63658" lon="5.32189">
        <ele>140.80000305176</ele>
        <time>2021-07-18T07:25:58.000Z</time>
      </trkpt>
      <trkpt lat="50.63671" lon="5.32179">
        <ele>141</ele>
        <time>2021-07-18T07:26:00.000Z</time>
      </trkpt>
      <trkpt lat="50.63677" lon="5.32174">
        <ele>140.80000305176</ele>
        <time>2021-07-18T07:26:01.000Z</time>
      </trkpt>
      <trkpt lat="50.63688" lon="5.32162">
        <ele>141</ele>
        <time>2021-07-18T07:26:03.000Z</time>
      </trkpt>
      <trkpt lat="50.63715" lon="5.32131">
        <ele>141.19999694824</ele>
        <time>2021-07-18T07:26:08.000Z</time>
      </trkpt>
      <trkpt lat="50.63758" lon="5.32079">
        <ele>141.19999694824</ele>
        <time>2021-07-18T07:26:16.000Z</time>
      </trkpt>
      <trkpt lat="50.63763" lon="5.32073">
        <ele>141.19999694824</ele>
        <time>2021-07-18T07:26:17.000Z</time>
      </trkpt>
      <trkpt lat="50.63789" lon="5.32043">
        <ele>141.19999694824</ele>
        <time>2021-07-18T07:26:22.000Z</time>
      </trkpt>
      <trkpt lat="50.63794" lon="5.32038">
        <ele>141.19999694824</ele>
        <time>2021-07-18T07:26:23.000Z</time>
      </trkpt>
      <trkpt lat="50.63799" lon="5.32033">
        <ele>141.19999694824</ele>
        <time>2021-07-18T07:26:24.000Z</time>
      </trkpt>
      <trkpt lat="50.63804" lon="5.32029">
        <ele>141.19999694824</ele>
        <time>2021-07-18T07:26:25.000Z</time>
      </trkpt>
      <trkpt lat="50.63815" lon="5.32023">
        <ele>141.39999389648</ele>
        <time>2021-07-18T07:26:27.000Z</time>
      </trkpt>
      <trkpt lat="50.63832" lon="5.32014">
        <ele>141.39999389648</ele>
        <time>2021-07-18T07:26:30.000Z</time>
      </trkpt>
      <trkpt lat="50.63837" lon="5.32009">
        <ele>141.19999694824</ele>
        <time>2021-07-18T07:26:31.000Z</time>
      </trkpt>
      <trkpt lat="50.63843" lon="5.32003">
        <ele>141.39999389648</ele>
        <time>2021-07-18T07:26:32.000Z</time>
      </trkpt>
      <trkpt lat="50.63857" lon="5.3198">
        <ele>141.39999389648</ele>
        <time>2021-07-18T07:26:35.000Z</time>
      </trkpt>
      <trkpt lat="50.63885" lon="5.31931">
        <ele>141.19999694824</ele>
        <time>2021-07-18T07:26:41.000Z</time>
      </trkpt>
      <trkpt lat="50.63916" lon="5.31875">
        <ele>141</ele>
        <time>2021-07-18T07:26:48.000Z</time>
      </trkpt>
      <trkpt lat="50.63921" lon="5.31868">
        <ele>141</ele>
        <time>2021-07-18T07:26:49.000Z</time>
      </trkpt>
      <trkpt lat="50.63959" lon="5.31801">
        <ele>141.80000305176</ele>
        <time>2021-07-18T07:26:58.000Z</time>
      </trkpt>
      <trkpt lat="50.63995" lon="5.31729">
        <ele>142.39999389648</ele>
        <time>2021-07-18T07:27:07.000Z</time>
      </trkpt>
      <trkpt lat="50.64002" lon="5.31681">
        <ele>142.80000305176</ele>
        <time>2021-07-18T07:27:12.000Z</time>
      </trkpt>
      <trkpt lat="50.64002" lon="5.31631">
        <ele>142.80000305176</ele>
        <time>2021-07-18T07:27:17.000Z</time>
      </trkpt>
      <trkpt lat="50.64003" lon="5.3159">
        <ele>142.80000305176</ele>
        <time>2021-07-18T07:27:21.000Z</time>
      </trkpt>
      <trkpt lat="50.64006" lon="5.31511">
        <ele>143.80000305176</ele>
        <time>2021-07-18T07:27:29.000Z</time>
      </trkpt>
      <trkpt lat="50.64008" lon="5.31483">
        <ele>144</ele>
        <time>2021-07-18T07:27:32.000Z</time>
      </trkpt>
      <trkpt lat="50.64014" lon="5.31456">
        <ele>144.19999694824</ele>
        <time>2021-07-18T07:27:35.000Z</time>
      </trkpt>
      <trkpt lat="50.64021" lon="5.3142">
        <ele>144.80000305176</ele>
        <time>2021-07-18T07:27:39.000Z</time>
      </trkpt>
      <trkpt lat="50.64031" lon="5.31376">
        <ele>145.39999389648</ele>
        <time>2021-07-18T07:27:44.000Z</time>
      </trkpt>
      <trkpt lat="50.64039" lon="5.3134">
        <ele>146.39999389648</ele>
        <time>2021-07-18T07:27:48.000Z</time>
      </trkpt>
      <trkpt lat="50.64045" lon="5.31314">
        <ele>146.80000305176</ele>
        <time>2021-07-18T07:27:51.000Z</time>
      </trkpt>
      <trkpt lat="50.64047" lon="5.31306">
        <ele>147.19999694824</ele>
        <time>2021-07-18T07:27:52.000Z</time>
      </trkpt>
      <trkpt lat="50.64049" lon="5.31297">
        <ele>147.39999389648</ele>
        <time>2021-07-18T07:27:53.000Z</time>
      </trkpt>
      <trkpt lat="50.6406" lon="5.31243">
        <ele>148.19999694824</ele>
        <time>2021-07-18T07:27:59.000Z</time>
      </trkpt>
      <trkpt lat="50.64067" lon="5.31215">
        <ele>148.80000305176</ele>
        <time>2021-07-18T07:28:02.000Z</time>
      </trkpt>
      <trkpt lat="50.64069" lon="5.31206">
        <ele>149</ele>
        <time>2021-07-18T07:28:03.000Z</time>
      </trkpt>
      <trkpt lat="50.64088" lon="5.31124">
        <ele>150.19999694824</ele>
        <time>2021-07-18T07:28:12.000Z</time>
      </trkpt>
      <trkpt lat="50.6409" lon="5.31115">
        <ele>150.60000610352</ele>
        <time>2021-07-18T07:28:13.000Z</time>
      </trkpt>
      <trkpt lat="50.64102" lon="5.31063">
        <ele>151.39999389648</ele>
        <time>2021-07-18T07:28:19.000Z</time>
      </trkpt>
      <trkpt lat="50.64106" lon="5.31045">
        <ele>151.60000610352</ele>
        <time>2021-07-18T07:28:21.000Z</time>
      </trkpt>
      <trkpt lat="50.64114" lon="5.31009">
        <ele>152.39999389648</ele>
        <time>2021-07-18T07:28:25.000Z</time>
      </trkpt>
      <trkpt lat="50.64118" lon="5.30992">
        <ele>152.80000305176</ele>
        <time>2021-07-18T07:28:27.000Z</time>
      </trkpt>
      <trkpt lat="50.64119" lon="5.30983">
        <ele>152.80000305176</ele>
        <time>2021-07-18T07:28:28.000Z</time>
      </trkpt>
      <trkpt lat="50.64123" lon="5.30966">
        <ele>153.19999694824</ele>
        <time>2021-07-18T07:28:30.000Z</time>
      </trkpt>
      <trkpt lat="50.64127" lon="5.30949">
        <ele>153.39999389648</ele>
        <time>2021-07-18T07:28:32.000Z</time>
      </trkpt>
      <trkpt lat="50.64137" lon="5.30904">
        <ele>154.39999389648</ele>
        <time>2021-07-18T07:28:37.000Z</time>
      </trkpt>
      <trkpt lat="50.64138" lon="5.30895">
        <ele>154.39999389648</ele>
        <time>2021-07-18T07:28:38.000Z</time>
      </trkpt>
      <trkpt lat="50.64148" lon="5.30826">
        <ele>155.80000305176</ele>
        <time>2021-07-18T07:28:45.000Z</time>
      </trkpt>
      <trkpt lat="50.64152" lon="5.30783">
        <ele>156</ele>
        <time>2021-07-18T07:28:49.000Z</time>
      </trkpt>
      <trkpt lat="50.64155" lon="5.30739">
        <ele>156</ele>
        <time>2021-07-18T07:28:53.000Z</time>
      </trkpt>
      <trkpt lat="50.64157" lon="5.30705">
        <ele>156</ele>
        <time>2021-07-18T07:28:56.000Z</time>
      </trkpt>
      <trkpt lat="50.64161" lon="5.30646">
        <ele>155.39999389648</ele>
        <time>2021-07-18T07:29:01.000Z</time>
      </trkpt>
      <trkpt lat="50.64165" lon="5.3057">
        <ele>153.80000305176</ele>
        <time>2021-07-18T07:29:07.000Z</time>
      </trkpt>
      <trkpt lat="50.64173" lon="5.30477">
        <ele>153</ele>
        <time>2021-07-18T07:29:14.000Z</time>
      </trkpt>
      <trkpt lat="50.64174" lon="5.30463">
        <ele>153</ele>
        <time>2021-07-18T07:29:15.000Z</time>
      </trkpt>
      <trkpt lat="50.64181" lon="5.30393">
        <ele>151.60000610352</ele>
        <time>2021-07-18T07:29:20.000Z</time>
      </trkpt>
      <trkpt lat="50.64186" lon="5.30341">
        <ele>151.19999694824</ele>
        <time>2021-07-18T07:29:24.000Z</time>
      </trkpt>
      <trkpt lat="50.64201" lon="5.30261">
        <ele>149.80000305176</ele>
        <time>2021-07-18T07:29:31.000Z</time>
      </trkpt>
      <trkpt lat="50.64214" lon="5.30178">
        <ele>149.80000305176</ele>
        <time>2021-07-18T07:29:39.000Z</time>
      </trkpt>
      <trkpt lat="50.64219" lon="5.30147">
        <ele>150.19999694824</ele>
        <time>2021-07-18T07:29:42.000Z</time>
      </trkpt>
      <trkpt lat="50.64221" lon="5.30137">
        <ele>150.19999694824</ele>
        <time>2021-07-18T07:29:43.000Z</time>
      </trkpt>
      <trkpt lat="50.6423" lon="5.30078">
        <ele>151</ele>
        <time>2021-07-18T07:29:49.000Z</time>
      </trkpt>
      <trkpt lat="50.64234" lon="5.30049">
        <ele>151.19999694824</ele>
        <time>2021-07-18T07:29:52.000Z</time>
      </trkpt>
      <trkpt lat="50.64245" lon="5.29991">
        <ele>152.60000610352</ele>
        <time>2021-07-18T07:29:58.000Z</time>
      </trkpt>
      <trkpt lat="50.64252" lon="5.29953">
        <ele>153.19999694824</ele>
        <time>2021-07-18T07:30:02.000Z</time>
      </trkpt>
      <trkpt lat="50.64273" lon="5.29888">
        <ele>154</ele>
        <time>2021-07-18T07:30:09.000Z</time>
      </trkpt>
      <trkpt lat="50.64276" lon="5.29878">
        <ele>154</ele>
        <time>2021-07-18T07:30:10.000Z</time>
      </trkpt>
      <trkpt lat="50.64303" lon="5.29813">
        <ele>153.80000305176</ele>
        <time>2021-07-18T07:30:17.000Z</time>
      </trkpt>
      <trkpt lat="50.64323" lon="5.29765">
        <ele>153.39999389648</ele>
        <time>2021-07-18T07:30:22.000Z</time>
      </trkpt>
      <trkpt lat="50.6434" lon="5.29727">
        <ele>153</ele>
        <time>2021-07-18T07:30:26.000Z</time>
      </trkpt>
      <trkpt lat="50.64367" lon="5.29662">
        <ele>152.39999389648</ele>
        <time>2021-07-18T07:30:33.000Z</time>
      </trkpt>
      <trkpt lat="50.64374" lon="5.29643">
        <ele>152.39999389648</ele>
        <time>2021-07-18T07:30:35.000Z</time>
      </trkpt>
      <trkpt lat="50.64378" lon="5.29634">
        <ele>152.39999389648</ele>
        <time>2021-07-18T07:30:36.000Z</time>
      </trkpt>
      <trkpt lat="50.64392" lon="5.296">
        <ele>152.39999389648</ele>
        <time>2021-07-18T07:30:40.000Z</time>
      </trkpt>
      <trkpt lat="50.64406" lon="5.29566">
        <ele>152.60000610352</ele>
        <time>2021-07-18T07:30:44.000Z</time>
      </trkpt>
      <trkpt lat="50.6441" lon="5.29557">
        <ele>152.80000305176</ele>
        <time>2021-07-18T07:30:45.000Z</time>
      </trkpt>
      <trkpt lat="50.64423" lon="5.29524">
        <ele>153.39999389648</ele>
        <time>2021-07-18T07:30:49.000Z</time>
      </trkpt>
      <trkpt lat="50.64441" lon="5.29482">
        <ele>154.39999389648</ele>
        <time>2021-07-18T07:30:54.000Z</time>
      </trkpt>
      <trkpt lat="50.64455" lon="5.29448">
        <ele>155.39999389648</ele>
        <time>2021-07-18T07:30:58.000Z</time>
      </trkpt>
      <trkpt lat="50.64486" lon="5.29366">
        <ele>156.19999694824</ele>
        <time>2021-07-18T07:31:07.000Z</time>
      </trkpt>
      <trkpt lat="50.64493" lon="5.29347">
        <ele>156.19999694824</ele>
        <time>2021-07-18T07:31:09.000Z</time>
      </trkpt>
      <trkpt lat="50.6451" lon="5.29296">
        <ele>156.39999389648</ele>
        <time>2021-07-18T07:31:14.000Z</time>
      </trkpt>
      <trkpt lat="50.64516" lon="5.29276">
        <ele>156</ele>
        <time>2021-07-18T07:31:16.000Z</time>
      </trkpt>
      <trkpt lat="50.64523" lon="5.29256">
        <ele>155.60000610352</ele>
        <time>2021-07-18T07:31:18.000Z</time>
      </trkpt>
      <trkpt lat="50.64529" lon="5.29237">
        <ele>155.60000610352</ele>
        <time>2021-07-18T07:31:20.000Z</time>
      </trkpt>
      <trkpt lat="50.64532" lon="5.29227">
        <ele>155.60000610352</ele>
        <time>2021-07-18T07:31:21.000Z</time>
      </trkpt>
      <trkpt lat="50.64542" lon="5.29198">
        <ele>155.19999694824</ele>
        <time>2021-07-18T07:31:24.000Z</time>
      </trkpt>
      <trkpt lat="50.64564" lon="5.2913">
        <ele>155.19999694824</ele>
        <time>2021-07-18T07:31:31.000Z</time>
      </trkpt>
      <trkpt lat="50.64574" lon="5.29101">
        <ele>155.39999389648</ele>
        <time>2021-07-18T07:31:34.000Z</time>
      </trkpt>
      <trkpt lat="50.6458" lon="5.29069">
        <ele>155.60000610352</ele>
        <time>2021-07-18T07:31:37.000Z</time>
      </trkpt>
      <trkpt lat="50.64581" lon="5.29059">
        <ele>155.60000610352</ele>
        <time>2021-07-18T07:31:38.000Z</time>
      </trkpt>
      <trkpt lat="50.64586" lon="5.28978">
        <ele>155.60000610352</ele>
        <time>2021-07-18T07:31:45.000Z</time>
      </trkpt>
      <trkpt lat="50.64587" lon="5.28954">
        <ele>155.60000610352</ele>
        <time>2021-07-18T07:31:47.000Z</time>
      </trkpt>
      <trkpt lat="50.64587" lon="5.28942">
        <ele>155.60000610352</ele>
        <time>2021-07-18T07:31:48.000Z</time>
      </trkpt>
      <trkpt lat="50.64591" lon="5.28869">
        <ele>155</ele>
        <time>2021-07-18T07:31:54.000Z</time>
      </trkpt>
      <trkpt lat="50.64593" lon="5.28831">
        <ele>154.19999694824</ele>
        <time>2021-07-18T07:31:57.000Z</time>
      </trkpt>
      <trkpt lat="50.64597" lon="5.28753">
        <ele>153.19999694824</ele>
        <time>2021-07-18T07:32:03.000Z</time>
      </trkpt>
      <trkpt lat="50.64601" lon="5.28664">
        <ele>151.80000305176</ele>
        <time>2021-07-18T07:32:10.000Z</time>
      </trkpt>
      <trkpt lat="50.64601" lon="5.28651">
        <ele>151.39999389648</ele>
        <time>2021-07-18T07:32:11.000Z</time>
      </trkpt>
      <trkpt lat="50.64603" lon="5.28612">
        <ele>151</ele>
        <time>2021-07-18T07:32:14.000Z</time>
      </trkpt>
      <trkpt lat="50.64604" lon="5.28586">
        <ele>150.60000610352</ele>
        <time>2021-07-18T07:32:16.000Z</time>
      </trkpt>
      <trkpt lat="50.64606" lon="5.28521">
        <ele>149.60000610352</ele>
        <time>2021-07-18T07:32:21.000Z</time>
      </trkpt>
      <trkpt lat="50.64605" lon="5.28508">
        <ele>149.19999694824</ele>
        <time>2021-07-18T07:32:22.000Z</time>
      </trkpt>
      <trkpt lat="50.64602" lon="5.28469">
        <ele>148.39999389648</ele>
        <time>2021-07-18T07:32:25.000Z</time>
      </trkpt>
      <trkpt lat="50.64598" lon="5.28432">
        <ele>147.80000305176</ele>
        <time>2021-07-18T07:32:28.000Z</time>
      </trkpt>
      <trkpt lat="50.64596" lon="5.2842">
        <ele>147.60000610352</ele>
        <time>2021-07-18T07:32:29.000Z</time>
      </trkpt>
      <trkpt lat="50.64583" lon="5.28364">
        <ele>146.60000610352</ele>
        <time>2021-07-18T07:32:34.000Z</time>
      </trkpt>
      <trkpt lat="50.64574" lon="5.28334">
        <ele>146.19999694824</ele>
        <time>2021-07-18T07:32:37.000Z</time>
      </trkpt>
      <trkpt lat="50.64564" lon="5.28295">
        <ele>146</ele>
        <time>2021-07-18T07:32:41.000Z</time>
      </trkpt>
      <trkpt lat="50.64556" lon="5.28266">
        <ele>146</ele>
        <time>2021-07-18T07:32:44.000Z</time>
      </trkpt>
      <trkpt lat="50.64554" lon="5.28256">
        <ele>146.39999389648</ele>
        <time>2021-07-18T07:32:45.000Z</time>
      </trkpt>
      <trkpt lat="50.64536" lon="5.28192">
        <ele>147.80000305176</ele>
        <time>2021-07-18T07:32:52.000Z</time>
      </trkpt>
      <trkpt lat="50.64514" lon="5.28108">
        <ele>149.39999389648</ele>
        <time>2021-07-18T07:33:01.000Z</time>
      </trkpt>
      <trkpt lat="50.64509" lon="5.2809">
        <ele>149.60000610352</ele>
        <time>2021-07-18T07:33:03.000Z</time>
      </trkpt>
      <trkpt lat="50.64494" lon="5.28033">
        <ele>149.80000305176</ele>
        <time>2021-07-18T07:33:09.000Z</time>
      </trkpt>
      <trkpt lat="50.64489" lon="5.28014">
        <ele>149.80000305176</ele>
        <time>2021-07-18T07:33:11.000Z</time>
      </trkpt>
      <trkpt lat="50.64486" lon="5.28005">
        <ele>149.80000305176</ele>
        <time>2021-07-18T07:33:12.000Z</time>
      </trkpt>
      <trkpt lat="50.64476" lon="5.27967">
        <ele>150.19999694824</ele>
        <time>2021-07-18T07:33:16.000Z</time>
      </trkpt>
      <trkpt lat="50.64473" lon="5.27957">
        <ele>150.39999389648</ele>
        <time>2021-07-18T07:33:17.000Z</time>
      </trkpt>
      <trkpt lat="50.6445" lon="5.27871">
        <ele>151.39999389648</ele>
        <time>2021-07-18T07:33:26.000Z</time>
      </trkpt>
      <trkpt lat="50.64445" lon="5.27851">
        <ele>151.60000610352</ele>
        <time>2021-07-18T07:33:28.000Z</time>
      </trkpt>
      <trkpt lat="50.6442" lon="5.27777">
        <ele>152.39999389648</ele>
        <time>2021-07-18T07:33:36.000Z</time>
      </trkpt>
      <trkpt lat="50.64408" lon="5.27751">
        <ele>152.39999389648</ele>
        <time>2021-07-18T07:33:39.000Z</time>
      </trkpt>
      <trkpt lat="50.64382" lon="5.27689">
        <ele>152.60000610352</ele>
        <time>2021-07-18T07:33:46.000Z</time>
      </trkpt>
      <trkpt lat="50.64352" lon="5.27617">
        <ele>152.80000305176</ele>
        <time>2021-07-18T07:33:54.000Z</time>
      </trkpt>
      <trkpt lat="50.64344" lon="5.27598">
        <ele>152.80000305176</ele>
        <time>2021-07-18T07:33:56.000Z</time>
      </trkpt>
      <trkpt lat="50.64332" lon="5.27571">
        <ele>152.80000305176</ele>
        <time>2021-07-18T07:33:59.000Z</time>
      </trkpt>
      <trkpt lat="50.64301" lon="5.27496">
        <ele>152.80000305176</ele>
        <time>2021-07-18T07:34:07.000Z</time>
      </trkpt>
      <trkpt lat="50.64271" lon="5.27425">
        <ele>152.60000610352</ele>
        <time>2021-07-18T07:34:15.000Z</time>
      </trkpt>
      <trkpt lat="50.64264" lon="5.27407">
        <ele>152.60000610352</ele>
        <time>2021-07-18T07:34:17.000Z</time>
      </trkpt>
      <trkpt lat="50.64242" lon="5.27357">
        <ele>152.60000610352</ele>
        <time>2021-07-18T07:34:23.000Z</time>
      </trkpt>
      <trkpt lat="50.64238" lon="5.27348">
        <ele>152.80000305176</ele>
        <time>2021-07-18T07:34:24.000Z</time>
      </trkpt>
      <trkpt lat="50.64217" lon="5.27297">
        <ele>153.80000305176</ele>
        <time>2021-07-18T07:34:30.000Z</time>
      </trkpt>
      <trkpt lat="50.64209" lon="5.2727">
        <ele>154.19999694824</ele>
        <time>2021-07-18T07:34:33.000Z</time>
      </trkpt>
      <trkpt lat="50.64196" lon="5.27199">
        <ele>155.19999694824</ele>
        <time>2021-07-18T07:34:40.000Z</time>
      </trkpt>
      <trkpt lat="50.6419" lon="5.27157">
        <ele>155.19999694824</ele>
        <time>2021-07-18T07:34:44.000Z</time>
      </trkpt>
      <trkpt lat="50.64179" lon="5.27105">
        <ele>155.19999694824</ele>
        <time>2021-07-18T07:34:49.000Z</time>
      </trkpt>
      <trkpt lat="50.6417" lon="5.27063">
        <ele>154.60000610352</ele>
        <time>2021-07-18T07:34:53.000Z</time>
      </trkpt>
      <trkpt lat="50.64157" lon="5.27011">
        <ele>154</ele>
        <time>2021-07-18T07:34:58.000Z</time>
      </trkpt>
      <trkpt lat="50.64147" lon="5.26965">
        <ele>153.60000610352</ele>
        <time>2021-07-18T07:35:03.000Z</time>
      </trkpt>
      <trkpt lat="50.6414" lon="5.26928">
        <ele>153.39999389648</ele>
        <time>2021-07-18T07:35:07.000Z</time>
      </trkpt>
      <trkpt lat="50.64141" lon="5.26919">
        <ele>153.39999389648</ele>
        <time>2021-07-18T07:35:08.000Z</time>
      </trkpt>
      <trkpt lat="50.64145" lon="5.26901">
        <ele>153.19999694824</ele>
        <time>2021-07-18T07:35:10.000Z</time>
      </trkpt>
      <trkpt lat="50.64143" lon="5.26883">
        <ele>153</ele>
        <time>2021-07-18T07:35:12.000Z</time>
      </trkpt>
      <trkpt lat="50.64132" lon="5.26857">
        <ele>153</ele>
        <time>2021-07-18T07:35:15.000Z</time>
      </trkpt>
      <trkpt lat="50.64128" lon="5.26848">
        <ele>153</ele>
        <time>2021-07-18T07:35:16.000Z</time>
      </trkpt>
      <trkpt lat="50.64124" lon="5.26838">
        <ele>152.80000305176</ele>
        <time>2021-07-18T07:35:17.000Z</time>
      </trkpt>
      <trkpt lat="50.6412" lon="5.26817">
        <ele>152.60000610352</ele>
        <time>2021-07-18T07:35:19.000Z</time>
      </trkpt>
      <trkpt lat="50.6411" lon="5.26772">
        <ele>152.39999389648</ele>
        <time>2021-07-18T07:35:23.000Z</time>
      </trkpt>
      <trkpt lat="50.64105" lon="5.26748">
        <ele>151.80000305176</ele>
        <time>2021-07-18T07:35:25.000Z</time>
      </trkpt>
      <trkpt lat="50.64102" lon="5.2671">
        <ele>151.39999389648</ele>
        <time>2021-07-18T07:35:28.000Z</time>
      </trkpt>
      <trkpt lat="50.64102" lon="5.26698">
        <ele>151</ele>
        <time>2021-07-18T07:35:29.000Z</time>
      </trkpt>
      <trkpt lat="50.641" lon="5.26647">
        <ele>149.80000305176</ele>
        <time>2021-07-18T07:35:33.000Z</time>
      </trkpt>
      <trkpt lat="50.64095" lon="5.26625">
        <ele>149.60000610352</ele>
        <time>2021-07-18T07:35:35.000Z</time>
      </trkpt>
      <trkpt lat="50.64085" lon="5.26606">
        <ele>148.60000610352</ele>
        <time>2021-07-18T07:35:37.000Z</time>
      </trkpt>
      <trkpt lat="50.64074" lon="5.2659">
        <ele>148.19999694824</ele>
        <time>2021-07-18T07:35:39.000Z</time>
      </trkpt>
      <trkpt lat="50.64059" lon="5.26567">
        <ele>147.80000305176</ele>
        <time>2021-07-18T07:35:42.000Z</time>
      </trkpt>
      <trkpt lat="50.64047" lon="5.26542">
        <ele>147.60000610352</ele>
        <time>2021-07-18T07:35:45.000Z</time>
      </trkpt>
      <trkpt lat="50.64044" lon="5.26532">
        <ele>147.80000305176</ele>
        <time>2021-07-18T07:35:46.000Z</time>
      </trkpt>
      <trkpt lat="50.64041" lon="5.26511">
        <ele>147.80000305176</ele>
        <time>2021-07-18T07:35:48.000Z</time>
      </trkpt>
      <trkpt lat="50.64041" lon="5.26499">
        <ele>147.80000305176</ele>
        <time>2021-07-18T07:35:49.000Z</time>
      </trkpt>
      <trkpt lat="50.64045" lon="5.26465">
        <ele>147.60000610352</ele>
        <time>2021-07-18T07:35:52.000Z</time>
      </trkpt>
      <trkpt lat="50.64047" lon="5.26454">
        <ele>147.60000610352</ele>
        <time>2021-07-18T07:35:53.000Z</time>
      </trkpt>
      <trkpt lat="50.64052" lon="5.26421">
        <ele>147.60000610352</ele>
        <time>2021-07-18T07:35:56.000Z</time>
      </trkpt>
      <trkpt lat="50.64064" lon="5.26347">
        <ele>147.39999389648</ele>
        <time>2021-07-18T07:36:03.000Z</time>
      </trkpt>
      <trkpt lat="50.64065" lon="5.26336">
        <ele>147.39999389648</ele>
        <time>2021-07-18T07:36:04.000Z</time>
      </trkpt>
      <trkpt lat="50.64065" lon="5.26315">
        <ele>147.19999694824</ele>
        <time>2021-07-18T07:36:06.000Z</time>
      </trkpt>
      <trkpt lat="50.64064" lon="5.26304">
        <ele>147.39999389648</ele>
        <time>2021-07-18T07:36:07.000Z</time>
      </trkpt>
      <trkpt lat="50.64052" lon="5.26235">
        <ele>147.80000305176</ele>
        <time>2021-07-18T07:36:14.000Z</time>
      </trkpt>
      <trkpt lat="50.64045" lon="5.26198">
        <ele>148.60000610352</ele>
        <time>2021-07-18T07:36:18.000Z</time>
      </trkpt>
      <trkpt lat="50.64036" lon="5.26145">
        <ele>149.39999389648</ele>
        <time>2021-07-18T07:36:24.000Z</time>
      </trkpt>
      <trkpt lat="50.64035" lon="5.26136">
        <ele>149.60000610352</ele>
        <time>2021-07-18T07:36:25.000Z</time>
      </trkpt>
      <trkpt lat="50.64031" lon="5.26079">
        <ele>151.19999694824</ele>
        <time>2021-07-18T07:36:31.000Z</time>
      </trkpt>
      <trkpt lat="50.64029" lon="5.26061">
        <ele>151.39999389648</ele>
        <time>2021-07-18T07:36:33.000Z</time>
      </trkpt>
      <trkpt lat="50.64028" lon="5.26044">
        <ele>152</ele>
        <time>2021-07-18T07:36:35.000Z</time>
      </trkpt>
      <trkpt lat="50.64027" lon="5.26026">
        <ele>152.60000610352</ele>
        <time>2021-07-18T07:36:37.000Z</time>
      </trkpt>
      <trkpt lat="50.64024" lon="5.25981">
        <ele>153.80000305176</ele>
        <time>2021-07-18T07:36:42.000Z</time>
      </trkpt>
      <trkpt lat="50.6402" lon="5.25936">
        <ele>155.19999694824</ele>
        <time>2021-07-18T07:36:47.000Z</time>
      </trkpt>
      <trkpt lat="50.64016" lon="5.2591">
        <ele>155.60000610352</ele>
        <time>2021-07-18T07:36:50.000Z</time>
      </trkpt>
      <trkpt lat="50.63998" lon="5.25846">
        <ele>156.39999389648</ele>
        <time>2021-07-18T07:36:57.000Z</time>
      </trkpt>
      <trkpt lat="50.63971" lon="5.25761">
        <ele>156.19999694824</ele>
        <time>2021-07-18T07:37:06.000Z</time>
      </trkpt>
      <trkpt lat="50.63965" lon="5.25742">
        <ele>155.80000305176</ele>
        <time>2021-07-18T07:37:08.000Z</time>
      </trkpt>
      <trkpt lat="50.63959" lon="5.25722">
        <ele>155.39999389648</ele>
        <time>2021-07-18T07:37:10.000Z</time>
      </trkpt>
      <trkpt lat="50.63934" lon="5.25643">
        <ele>154.80000305176</ele>
        <time>2021-07-18T07:37:18.000Z</time>
      </trkpt>
      <trkpt lat="50.63921" lon="5.25603">
        <ele>154.39999389648</ele>
        <time>2021-07-18T07:37:22.000Z</time>
      </trkpt>
      <trkpt lat="50.63895" lon="5.25522">
        <ele>153.19999694824</ele>
        <time>2021-07-18T07:37:30.000Z</time>
      </trkpt>
      <trkpt lat="50.63892" lon="5.25512">
        <ele>153</ele>
        <time>2021-07-18T07:37:31.000Z</time>
      </trkpt>
      <trkpt lat="50.63889" lon="5.25502">
        <ele>153</ele>
        <time>2021-07-18T07:37:32.000Z</time>
      </trkpt>
      <trkpt lat="50.63886" lon="5.25491">
        <ele>152.80000305176</ele>
        <time>2021-07-18T07:37:33.000Z</time>
      </trkpt>
      <trkpt lat="50.63879" lon="5.25471">
        <ele>152.60000610352</ele>
        <time>2021-07-18T07:37:35.000Z</time>
      </trkpt>
      <trkpt lat="50.63856" lon="5.25399">
        <ele>152.19999694824</ele>
        <time>2021-07-18T07:37:42.000Z</time>
      </trkpt>
      <trkpt lat="50.63847" lon="5.25369">
        <ele>152</ele>
        <time>2021-07-18T07:37:45.000Z</time>
      </trkpt>
      <trkpt lat="50.63821" lon="5.25287">
        <ele>151.60000610352</ele>
        <time>2021-07-18T07:37:53.000Z</time>
      </trkpt>
      <trkpt lat="50.63818" lon="5.25277">
        <ele>151.39999389648</ele>
        <time>2021-07-18T07:37:54.000Z</time>
      </trkpt>
      <trkpt lat="50.63812" lon="5.25257">
        <ele>151</ele>
        <time>2021-07-18T07:37:56.000Z</time>
      </trkpt>
      <trkpt lat="50.63805" lon="5.25237">
        <ele>150.80000305176</ele>
        <time>2021-07-18T07:37:58.000Z</time>
      </trkpt>
      <trkpt lat="50.63791" lon="5.25196">
        <ele>150.39999389648</ele>
        <time>2021-07-18T07:38:02.000Z</time>
      </trkpt>
      <trkpt lat="50.63773" lon="5.25132">
        <ele>149.60000610352</ele>
        <time>2021-07-18T07:38:08.000Z</time>
      </trkpt>
      <trkpt lat="50.63767" lon="5.25111">
        <ele>149.60000610352</ele>
        <time>2021-07-18T07:38:10.000Z</time>
      </trkpt>
      <trkpt lat="50.63763" lon="5.25101">
        <ele>149.39999389648</ele>
        <time>2021-07-18T07:38:11.000Z</time>
      </trkpt>
      <trkpt lat="50.63753" lon="5.2507">
        <ele>149.39999389648</ele>
        <time>2021-07-18T07:38:14.000Z</time>
      </trkpt>
      <trkpt lat="50.63744" lon="5.2504">
        <ele>149.19999694824</ele>
        <time>2021-07-18T07:38:17.000Z</time>
      </trkpt>
      <trkpt lat="50.63738" lon="5.25019">
        <ele>148.80000305176</ele>
        <time>2021-07-18T07:38:19.000Z</time>
      </trkpt>
      <trkpt lat="50.63727" lon="5.2498">
        <ele>148</ele>
        <time>2021-07-18T07:38:23.000Z</time>
      </trkpt>
      <trkpt lat="50.6372" lon="5.24961">
        <ele>147.60000610352</ele>
        <time>2021-07-18T07:38:25.000Z</time>
      </trkpt>
      <trkpt lat="50.63696" lon="5.24895">
        <ele>147.19999694824</ele>
        <time>2021-07-18T07:38:32.000Z</time>
      </trkpt>
      <trkpt lat="50.63685" lon="5.24868">
        <ele>147.19999694824</ele>
        <time>2021-07-18T07:38:35.000Z</time>
      </trkpt>
      <trkpt lat="50.63652" lon="5.24788">
        <ele>147.60000610352</ele>
        <time>2021-07-18T07:38:44.000Z</time>
      </trkpt>
      <trkpt lat="50.63645" lon="5.2477">
        <ele>147.80000305176</ele>
        <time>2021-07-18T07:38:46.000Z</time>
      </trkpt>
      <trkpt lat="50.63634" lon="5.24744">
        <ele>148</ele>
        <time>2021-07-18T07:38:49.000Z</time>
      </trkpt>
      <trkpt lat="50.63602" lon="5.24666">
        <ele>148.80000305176</ele>
        <time>2021-07-18T07:38:58.000Z</time>
      </trkpt>
      <trkpt lat="50.63594" lon="5.24649">
        <ele>149</ele>
        <time>2021-07-18T07:39:00.000Z</time>
      </trkpt>
      <trkpt lat="50.63587" lon="5.24632">
        <ele>149.19999694824</ele>
        <time>2021-07-18T07:39:02.000Z</time>
      </trkpt>
      <trkpt lat="50.63574" lon="5.24598">
        <ele>149.39999389648</ele>
        <time>2021-07-18T07:39:06.000Z</time>
      </trkpt>
      <trkpt lat="50.63555" lon="5.24558">
        <ele>149.80000305176</ele>
        <time>2021-07-18T07:39:11.000Z</time>
      </trkpt>
      <trkpt lat="50.63551" lon="5.24551">
        <ele>150</ele>
        <time>2021-07-18T07:39:12.000Z</time>
      </trkpt>
      <trkpt lat="50.63525" lon="5.24508">
        <ele>151.39999389648</ele>
        <time>2021-07-18T07:39:18.000Z</time>
      </trkpt>
      <trkpt lat="50.63521" lon="5.24502">
        <ele>151.60000610352</ele>
        <time>2021-07-18T07:39:19.000Z</time>
      </trkpt>
      <trkpt lat="50.63476" lon="5.24445">
        <ele>153.19999694824</ele>
        <time>2021-07-18T07:39:28.000Z</time>
      </trkpt>
      <trkpt lat="50.63439" lon="5.24402">
        <ele>153.39999389648</ele>
        <time>2021-07-18T07:39:35.000Z</time>
      </trkpt>
      <trkpt lat="50.63433" lon="5.24396">
        <ele>153.39999389648</ele>
        <time>2021-07-18T07:39:36.000Z</time>
      </trkpt>
      <trkpt lat="50.63389" lon="5.24352">
        <ele>153.39999389648</ele>
        <time>2021-07-18T07:39:44.000Z</time>
      </trkpt>
      <trkpt lat="50.63357" lon="5.24336">
        <ele>153.39999389648</ele>
        <time>2021-07-18T07:39:49.000Z</time>
      </trkpt>
      <trkpt lat="50.63351" lon="5.24334">
        <ele>153.39999389648</ele>
        <time>2021-07-18T07:39:50.000Z</time>
      </trkpt>
      <trkpt lat="50.63324" lon="5.24329">
        <ele>153.60000610352</ele>
        <time>2021-07-18T07:39:54.000Z</time>
      </trkpt>
      <trkpt lat="50.63319" lon="5.24324">
        <ele>153.60000610352</ele>
        <time>2021-07-18T07:39:55.000Z</time>
      </trkpt>
      <trkpt lat="50.63314" lon="5.24318">
        <ele>153.60000610352</ele>
        <time>2021-07-18T07:39:56.000Z</time>
      </trkpt>
      <trkpt lat="50.63302" lon="5.24294">
        <ele>153.80000305176</ele>
        <time>2021-07-18T07:39:59.000Z</time>
      </trkpt>
      <trkpt lat="50.63296" lon="5.24277">
        <ele>153.80000305176</ele>
        <time>2021-07-18T07:40:01.000Z</time>
      </trkpt>
      <trkpt lat="50.63289" lon="5.24249">
        <ele>154</ele>
        <time>2021-07-18T07:40:04.000Z</time>
      </trkpt>
      <trkpt lat="50.63289" lon="5.24239">
        <ele>154</ele>
        <time>2021-07-18T07:40:05.000Z</time>
      </trkpt>
      <trkpt lat="50.63291" lon="5.2423">
        <ele>154.19999694824</ele>
        <time>2021-07-18T07:40:06.000Z</time>
      </trkpt>
      <trkpt lat="50.63298" lon="5.24215">
        <ele>154.60000610352</ele>
        <time>2021-07-18T07:40:08.000Z</time>
      </trkpt>
      <trkpt lat="50.63335" lon="5.24162">
        <ele>155.39999389648</ele>
        <time>2021-07-18T07:40:16.000Z</time>
      </trkpt>
      <trkpt lat="50.63339" lon="5.24154">
        <ele>155.19999694824</ele>
        <time>2021-07-18T07:40:17.000Z</time>
      </trkpt>
      <trkpt lat="50.63357" lon="5.24102">
        <ele>155.80000305176</ele>
        <time>2021-07-18T07:40:23.000Z</time>
      </trkpt>
      <trkpt lat="50.63375" lon="5.24043">
        <ele>156.60000610352</ele>
        <time>2021-07-18T07:40:29.000Z</time>
      </trkpt>
      <trkpt lat="50.63378" lon="5.24033">
        <ele>156.60000610352</ele>
        <time>2021-07-18T07:40:30.000Z</time>
      </trkpt>
      <trkpt lat="50.63381" lon="5.24022">
        <ele>156.60000610352</ele>
        <time>2021-07-18T07:40:31.000Z</time>
      </trkpt>
      <trkpt lat="50.634" lon="5.23968">
        <ele>156.60000610352</ele>
        <time>2021-07-18T07:40:36.000Z</time>
      </trkpt>
      <trkpt lat="50.63414" lon="5.23921">
        <ele>156.19999694824</ele>
        <time>2021-07-18T07:40:40.000Z</time>
      </trkpt>
      <trkpt lat="50.63422" lon="5.23897">
        <ele>155</ele>
        <time>2021-07-18T07:40:42.000Z</time>
      </trkpt>
      <trkpt lat="50.63429" lon="5.23874">
        <ele>154.39999389648</ele>
        <time>2021-07-18T07:40:44.000Z</time>
      </trkpt>
      <trkpt lat="50.6345" lon="5.23808">
        <ele>151.80000305176</ele>
        <time>2021-07-18T07:40:50.000Z</time>
      </trkpt>
      <trkpt lat="50.6346" lon="5.23777">
        <ele>150.80000305176</ele>
        <time>2021-07-18T07:40:53.000Z</time>
      </trkpt>
      <trkpt lat="50.63463" lon="5.23767">
        <ele>150.80000305176</ele>
        <time>2021-07-18T07:40:54.000Z</time>
      </trkpt>
      <trkpt lat="50.63487" lon="5.23689">
        <ele>150.60000610352</ele>
        <time>2021-07-18T07:41:02.000Z</time>
      </trkpt>
      <trkpt lat="50.63496" lon="5.23662">
        <ele>150.60000610352</ele>
        <time>2021-07-18T07:41:05.000Z</time>
      </trkpt>
      <trkpt lat="50.63501" lon="5.23644">
        <ele>150.60000610352</ele>
        <time>2021-07-18T07:41:07.000Z</time>
      </trkpt>
      <trkpt lat="50.63522" lon="5.23576">
        <ele>152</ele>
        <time>2021-07-18T07:41:15.000Z</time>
      </trkpt>
      <trkpt lat="50.63529" lon="5.23551">
        <ele>153</ele>
        <time>2021-07-18T07:41:18.000Z</time>
      </trkpt>
      <trkpt lat="50.63546" lon="5.23497">
        <ele>153.80000305176</ele>
        <time>2021-07-18T07:41:24.000Z</time>
      </trkpt>
      <trkpt lat="50.63558" lon="5.23458">
        <ele>154</ele>
        <time>2021-07-18T07:41:28.000Z</time>
      </trkpt>
      <trkpt lat="50.63575" lon="5.23409">
        <ele>154</ele>
        <time>2021-07-18T07:41:33.000Z</time>
      </trkpt>
      <trkpt lat="50.63579" lon="5.234">
        <ele>154</ele>
        <time>2021-07-18T07:41:34.000Z</time>
      </trkpt>
      <trkpt lat="50.63592" lon="5.23372">
        <ele>153.60000610352</ele>
        <time>2021-07-18T07:41:37.000Z</time>
      </trkpt>
      <trkpt lat="50.63609" lon="5.23336">
        <ele>153</ele>
        <time>2021-07-18T07:41:41.000Z</time>
      </trkpt>
      <trkpt lat="50.63645" lon="5.23264">
        <ele>151.19999694824</ele>
        <time>2021-07-18T07:41:49.000Z</time>
      </trkpt>
      <trkpt lat="50.63649" lon="5.23254">
        <ele>151</ele>
        <time>2021-07-18T07:41:50.000Z</time>
      </trkpt>
      <trkpt lat="50.63682" lon="5.23183">
        <ele>150.39999389648</ele>
        <time>2021-07-18T07:41:58.000Z</time>
      </trkpt>
      <trkpt lat="50.63686" lon="5.23175">
        <ele>150.60000610352</ele>
        <time>2021-07-18T07:41:59.000Z</time>
      </trkpt>
      <trkpt lat="50.6369" lon="5.23167">
        <ele>150.19999694824</ele>
        <time>2021-07-18T07:42:00.000Z</time>
      </trkpt>
      <trkpt lat="50.63692" lon="5.23158">
        <ele>150</ele>
        <time>2021-07-18T07:42:01.000Z</time>
      </trkpt>
      <trkpt lat="50.63692" lon="5.23149">
        <ele>149.80000305176</ele>
        <time>2021-07-18T07:42:02.000Z</time>
      </trkpt>
      <trkpt lat="50.6369" lon="5.23141">
        <ele>149.80000305176</ele>
        <time>2021-07-18T07:42:03.000Z</time>
      </trkpt>
      <trkpt lat="50.63687" lon="5.23133">
        <ele>149.80000305176</ele>
        <time>2021-07-18T07:42:04.000Z</time>
      </trkpt>
      <trkpt lat="50.63675" lon="5.23108">
        <ele>149.80000305176</ele>
        <time>2021-07-18T07:42:07.000Z</time>
      </trkpt>
      <trkpt lat="50.63639" lon="5.2304">
        <ele>149.39999389648</ele>
        <time>2021-07-18T07:42:15.000Z</time>
      </trkpt>
      <trkpt lat="50.63635" lon="5.23032">
        <ele>149.60000610352</ele>
        <time>2021-07-18T07:42:16.000Z</time>
      </trkpt>
      <trkpt lat="50.63608" lon="5.22982">
        <ele>149.60000610352</ele>
        <time>2021-07-18T07:42:22.000Z</time>
      </trkpt>
      <trkpt lat="50.63595" lon="5.22957">
        <ele>149.80000305176</ele>
        <time>2021-07-18T07:42:25.000Z</time>
      </trkpt>
      <trkpt lat="50.63578" lon="5.22924">
        <ele>150</ele>
        <time>2021-07-18T07:42:29.000Z</time>
      </trkpt>
      <trkpt lat="50.6357" lon="5.22906">
        <ele>150.39999389648</ele>
        <time>2021-07-18T07:42:31.000Z</time>
      </trkpt>
      <trkpt lat="50.63569" lon="5.22896">
        <ele>150.60000610352</ele>
        <time>2021-07-18T07:42:32.000Z</time>
      </trkpt>
      <trkpt lat="50.6357" lon="5.22885">
        <ele>150.80000305176</ele>
        <time>2021-07-18T07:42:33.000Z</time>
      </trkpt>
      <trkpt lat="50.63574" lon="5.22876">
        <ele>150.80000305176</ele>
        <time>2021-07-18T07:42:34.000Z</time>
      </trkpt>
      <trkpt lat="50.63579" lon="5.22869">
        <ele>151</ele>
        <time>2021-07-18T07:42:35.000Z</time>
      </trkpt>
      <trkpt lat="50.63596" lon="5.22853">
        <ele>151</ele>
        <time>2021-07-18T07:42:38.000Z</time>
      </trkpt>
      <trkpt lat="50.63649" lon="5.22809">
        <ele>151.60000610352</ele>
        <time>2021-07-18T07:42:47.000Z</time>
      </trkpt>
      <trkpt lat="50.63655" lon="5.22805">
        <ele>151.39999389648</ele>
        <time>2021-07-18T07:42:48.000Z</time>
      </trkpt>
      <trkpt lat="50.63661" lon="5.22801">
        <ele>151.60000610352</ele>
        <time>2021-07-18T07:42:49.000Z</time>
      </trkpt>
      <trkpt lat="50.63677" lon="5.22788">
        <ele>151.80000305176</ele>
        <time>2021-07-18T07:42:52.000Z</time>
      </trkpt>
      <trkpt lat="50.63699" lon="5.22772">
        <ele>152.19999694824</ele>
        <time>2021-07-18T07:42:56.000Z</time>
      </trkpt>
      <trkpt lat="50.63744" lon="5.22739">
        <ele>154.60000610352</ele>
        <time>2021-07-18T07:43:04.000Z</time>
      </trkpt>
      <trkpt lat="50.63791" lon="5.22702">
        <ele>155.60000610352</ele>
        <time>2021-07-18T07:43:12.000Z</time>
      </trkpt>
      <trkpt lat="50.63795" lon="5.22695">
        <ele>155.60000610352</ele>
        <time>2021-07-18T07:43:13.000Z</time>
      </trkpt>
      <trkpt lat="50.638" lon="5.22675">
        <ele>155.60000610352</ele>
        <time>2021-07-18T07:43:15.000Z</time>
      </trkpt>
      <trkpt lat="50.63807" lon="5.2263">
        <ele>155.80000305176</ele>
        <time>2021-07-18T07:43:19.000Z</time>
      </trkpt>
      <trkpt lat="50.6381" lon="5.22607">
        <ele>155.60000610352</ele>
        <time>2021-07-18T07:43:21.000Z</time>
      </trkpt>
      <trkpt lat="50.63813" lon="5.22583">
        <ele>155.60000610352</ele>
        <time>2021-07-18T07:43:23.000Z</time>
      </trkpt>
      <trkpt lat="50.63822" lon="5.22521">
        <ele>154.60000610352</ele>
        <time>2021-07-18T07:43:28.000Z</time>
      </trkpt>
      <trkpt lat="50.63823" lon="5.22509">
        <ele>154.19999694824</ele>
        <time>2021-07-18T07:43:29.000Z</time>
      </trkpt>
      <trkpt lat="50.63821" lon="5.22486">
        <ele>153.39999389648</ele>
        <time>2021-07-18T07:43:31.000Z</time>
      </trkpt>
      <trkpt lat="50.63818" lon="5.22474">
        <ele>153.39999389648</ele>
        <time>2021-07-18T07:43:32.000Z</time>
      </trkpt>
      <trkpt lat="50.63811" lon="5.22451">
        <ele>152.80000305176</ele>
        <time>2021-07-18T07:43:34.000Z</time>
      </trkpt>
      <trkpt lat="50.63789" lon="5.22372">
        <ele>151.39999389648</ele>
        <time>2021-07-18T07:43:41.000Z</time>
      </trkpt>
      <trkpt lat="50.63786" lon="5.22361">
        <ele>151</ele>
        <time>2021-07-18T07:43:42.000Z</time>
      </trkpt>
      <trkpt lat="50.63784" lon="5.2235">
        <ele>151</ele>
        <time>2021-07-18T07:43:43.000Z</time>
      </trkpt>
      <trkpt lat="50.63783" lon="5.22339">
        <ele>150.80000305176</ele>
        <time>2021-07-18T07:43:44.000Z</time>
      </trkpt>
      <trkpt lat="50.63785" lon="5.22329">
        <ele>150.80000305176</ele>
        <time>2021-07-18T07:43:45.000Z</time>
      </trkpt>
      <trkpt lat="50.63799" lon="5.22306">
        <ele>150.39999389648</ele>
        <time>2021-07-18T07:43:48.000Z</time>
      </trkpt>
      <trkpt lat="50.63834" lon="5.22251">
        <ele>149.39999389648</ele>
        <time>2021-07-18T07:43:55.000Z</time>
      </trkpt>
      <trkpt lat="50.63843" lon="5.22235">
        <ele>149.39999389648</ele>
        <time>2021-07-18T07:43:57.000Z</time>
      </trkpt>
      <trkpt lat="50.63879" lon="5.22167">
        <ele>149</ele>
        <time>2021-07-18T07:44:05.000Z</time>
      </trkpt>
      <trkpt lat="50.63902" lon="5.22126">
        <ele>148.19999694824</ele>
        <time>2021-07-18T07:44:10.000Z</time>
      </trkpt>
      <trkpt lat="50.63906" lon="5.22117">
        <ele>148.19999694824</ele>
        <time>2021-07-18T07:44:11.000Z</time>
      </trkpt>
      <trkpt lat="50.63941" lon="5.2205">
        <ele>147.60000610352</ele>
        <time>2021-07-18T07:44:19.000Z</time>
      </trkpt>
      <trkpt lat="50.63945" lon="5.22041">
        <ele>147.60000610352</ele>
        <time>2021-07-18T07:44:20.000Z</time>
      </trkpt>
      <trkpt lat="50.63949" lon="5.22032">
        <ele>147.60000610352</ele>
        <time>2021-07-18T07:44:21.000Z</time>
      </trkpt>
      <trkpt lat="50.63975" lon="5.21971">
        <ele>147.60000610352</ele>
        <time>2021-07-18T07:44:28.000Z</time>
      </trkpt>
      <trkpt lat="50.63978" lon="5.21962">
        <ele>147.39999389648</ele>
        <time>2021-07-18T07:44:29.000Z</time>
      </trkpt>
      <trkpt lat="50.63983" lon="5.21935">
        <ele>147.60000610352</ele>
        <time>2021-07-18T07:44:32.000Z</time>
      </trkpt>
      <trkpt lat="50.6399" lon="5.21888">
        <ele>148.19999694824</ele>
        <time>2021-07-18T07:44:37.000Z</time>
      </trkpt>
      <trkpt lat="50.63991" lon="5.21879">
        <ele>148.39999389648</ele>
        <time>2021-07-18T07:44:38.000Z</time>
      </trkpt>
      <trkpt lat="50.64011" lon="5.21806">
        <ele>149</ele>
        <time>2021-07-18T07:44:46.000Z</time>
      </trkpt>
      <trkpt lat="50.64031" lon="5.21754">
        <ele>149.80000305176</ele>
        <time>2021-07-18T07:44:52.000Z</time>
      </trkpt>
      <trkpt lat="50.64036" lon="5.21747">
        <ele>149.80000305176</ele>
        <time>2021-07-18T07:44:53.000Z</time>
      </trkpt>
      <trkpt lat="50.64049" lon="5.21725">
        <ele>149.80000305176</ele>
        <time>2021-07-18T07:44:56.000Z</time>
      </trkpt>
      <trkpt lat="50.64056" lon="5.21708">
        <ele>149.80000305176</ele>
        <time>2021-07-18T07:44:58.000Z</time>
      </trkpt>
      <trkpt lat="50.64082" lon="5.21634">
        <ele>150.39999389648</ele>
        <time>2021-07-18T07:45:06.000Z</time>
      </trkpt>
      <trkpt lat="50.6411" lon="5.21552">
        <ele>150.39999389648</ele>
        <time>2021-07-18T07:45:15.000Z</time>
      </trkpt>
      <trkpt lat="50.64138" lon="5.21479">
        <ele>150.60000610352</ele>
        <time>2021-07-18T07:45:23.000Z</time>
      </trkpt>
      <trkpt lat="50.64145" lon="5.2146">
        <ele>150.60000610352</ele>
        <time>2021-07-18T07:45:25.000Z</time>
      </trkpt>
      <trkpt lat="50.64178" lon="5.21388">
        <ele>150.39999389648</ele>
        <time>2021-07-18T07:45:33.000Z</time>
      </trkpt>
      <trkpt lat="50.6419" lon="5.21361">
        <ele>150</ele>
        <time>2021-07-18T07:45:36.000Z</time>
      </trkpt>
      <trkpt lat="50.64199" lon="5.21343">
        <ele>150.19999694824</ele>
        <time>2021-07-18T07:45:38.000Z</time>
      </trkpt>
      <trkpt lat="50.64228" lon="5.21284">
        <ele>149.60000610352</ele>
        <time>2021-07-18T07:45:45.000Z</time>
      </trkpt>
      <trkpt lat="50.6425" lon="5.21248">
        <ele>149.39999389648</ele>
        <time>2021-07-18T07:45:50.000Z</time>
      </trkpt>
      <trkpt lat="50.64255" lon="5.2124">
        <ele>149</ele>
        <time>2021-07-18T07:45:51.000Z</time>
      </trkpt>
      <trkpt lat="50.64286" lon="5.21183">
        <ele>148.39999389648</ele>
        <time>2021-07-18T07:45:58.000Z</time>
      </trkpt>
      <trkpt lat="50.6432" lon="5.21109">
        <ele>147</ele>
        <time>2021-07-18T07:46:07.000Z</time>
      </trkpt>
      <trkpt lat="50.64324" lon="5.21101">
        <ele>147</ele>
        <time>2021-07-18T07:46:08.000Z</time>
      </trkpt>
      <trkpt lat="50.64329" lon="5.21085">
        <ele>147</ele>
        <time>2021-07-18T07:46:10.000Z</time>
      </trkpt>
      <trkpt lat="50.64341" lon="5.21051">
        <ele>146.80000305176</ele>
        <time>2021-07-18T07:46:15.000Z</time>
      </trkpt>
      <trkpt lat="50.64357" lon="5.21005">
        <ele>146.80000305176</ele>
        <time>2021-07-18T07:46:24.000Z</time>
      </trkpt>
      <trkpt lat="50.64371" lon="5.20968">
        <ele>146.80000305176</ele>
        <time>2021-07-18T07:46:30.000Z</time>
      </trkpt>
      <trkpt lat="50.64387" lon="5.2092">
        <ele>146.60000610352</ele>
        <time>2021-07-18T07:46:36.000Z</time>
      </trkpt>
      <trkpt lat="50.64393" lon="5.20903">
        <ele>146.39999389648</ele>
        <time>2021-07-18T07:46:38.000Z</time>
      </trkpt>
      <trkpt lat="50.64414" lon="5.20845">
        <ele>145.60000610352</ele>
        <time>2021-07-18T07:46:44.000Z</time>
      </trkpt>
      <trkpt lat="50.64435" lon="5.20783">
        <ele>145</ele>
        <time>2021-07-18T07:46:50.000Z</time>
      </trkpt>
      <trkpt lat="50.64446" lon="5.20751">
        <ele>144.39999389648</ele>
        <time>2021-07-18T07:46:53.000Z</time>
      </trkpt>
      <trkpt lat="50.64461" lon="5.20709">
        <ele>143.60000610352</ele>
        <time>2021-07-18T07:46:57.000Z</time>
      </trkpt>
      <trkpt lat="50.64467" lon="5.20687">
        <ele>143.19999694824</ele>
        <time>2021-07-18T07:46:59.000Z</time>
      </trkpt>
      <trkpt lat="50.64474" lon="5.20665">
        <ele>142.80000305176</ele>
        <time>2021-07-18T07:47:01.000Z</time>
      </trkpt>
      <trkpt lat="50.64493" lon="5.20612">
        <ele>142.19999694824</ele>
        <time>2021-07-18T07:47:06.000Z</time>
      </trkpt>
      <trkpt lat="50.64507" lon="5.20584">
        <ele>141.19999694824</ele>
        <time>2021-07-18T07:47:09.000Z</time>
      </trkpt>
      <trkpt lat="50.64545" lon="5.20525">
        <ele>139.80000305176</ele>
        <time>2021-07-18T07:47:16.000Z</time>
      </trkpt>
      <trkpt lat="50.6459" lon="5.2046">
        <ele>139.39999389648</ele>
        <time>2021-07-18T07:47:24.000Z</time>
      </trkpt>
      <trkpt lat="50.64601" lon="5.20445">
        <ele>139.19999694824</ele>
        <time>2021-07-18T07:47:26.000Z</time>
      </trkpt>
      <trkpt lat="50.64643" lon="5.20394">
        <ele>138.60000610352</ele>
        <time>2021-07-18T07:47:33.000Z</time>
      </trkpt>
      <trkpt lat="50.64654" lon="5.20379">
        <ele>138.60000610352</ele>
        <time>2021-07-18T07:47:35.000Z</time>
      </trkpt>
      <trkpt lat="50.64683" lon="5.20344">
        <ele>138.60000610352</ele>
        <time>2021-07-18T07:47:40.000Z</time>
      </trkpt>
      <trkpt lat="50.64704" lon="5.20316">
        <ele>138.60000610352</ele>
        <time>2021-07-18T07:47:44.000Z</time>
      </trkpt>
      <trkpt lat="50.6472" lon="5.20293">
        <ele>138.80000305176</ele>
        <time>2021-07-18T07:47:47.000Z</time>
      </trkpt>
      <trkpt lat="50.6474" lon="5.20259">
        <ele>138.80000305176</ele>
        <time>2021-07-18T07:47:51.000Z</time>
      </trkpt>
      <trkpt lat="50.64745" lon="5.20251">
        <ele>138.80000305176</ele>
        <time>2021-07-18T07:47:52.000Z</time>
      </trkpt>
      <trkpt lat="50.64761" lon="5.20225">
        <ele>138.80000305176</ele>
        <time>2021-07-18T07:47:55.000Z</time>
      </trkpt>
      <trkpt lat="50.64802" lon="5.20158">
        <ele>138.39999389648</ele>
        <time>2021-07-18T07:48:03.000Z</time>
      </trkpt>
      <trkpt lat="50.64812" lon="5.20142">
        <ele>138</ele>
        <time>2021-07-18T07:48:05.000Z</time>
      </trkpt>
      <trkpt lat="50.64842" lon="5.20094">
        <ele>137.39999389648</ele>
        <time>2021-07-18T07:48:11.000Z</time>
      </trkpt>
      <trkpt lat="50.64847" lon="5.20086">
        <ele>137.39999389648</ele>
        <time>2021-07-18T07:48:12.000Z</time>
      </trkpt>
      <trkpt lat="50.64871" lon="5.20047">
        <ele>137.60000610352</ele>
        <time>2021-07-18T07:48:17.000Z</time>
      </trkpt>
      <trkpt lat="50.64911" lon="5.19987">
        <ele>137.80000305176</ele>
        <time>2021-07-18T07:48:25.000Z</time>
      </trkpt>
      <trkpt lat="50.64932" lon="5.19959">
        <ele>137.80000305176</ele>
        <time>2021-07-18T07:48:29.000Z</time>
      </trkpt>
      <trkpt lat="50.64969" lon="5.19929">
        <ele>137.80000305176</ele>
        <time>2021-07-18T07:48:35.000Z</time>
      </trkpt>
      <trkpt lat="50.64996" lon="5.19919">
        <ele>137.60000610352</ele>
        <time>2021-07-18T07:48:39.000Z</time>
      </trkpt>
      <trkpt lat="50.65023" lon="5.19912">
        <ele>137.39999389648</ele>
        <time>2021-07-18T07:48:43.000Z</time>
      </trkpt>
      <trkpt lat="50.65074" lon="5.19897">
        <ele>136.80000305176</ele>
        <time>2021-07-18T07:48:51.000Z</time>
      </trkpt>
      <trkpt lat="50.65084" lon="5.19902">
        <ele>136.80000305176</ele>
        <time>2021-07-18T07:48:54.000Z</time>
      </trkpt>
      <trkpt lat="50.65089" lon="5.19923">
        <ele>136.60000610352</ele>
        <time>2021-07-18T07:48:58.000Z</time>
      </trkpt>
      <trkpt lat="50.65096" lon="5.19975">
        <ele>136.80000305176</ele>
        <time>2021-07-18T07:49:05.000Z</time>
      </trkpt>
      <trkpt lat="50.65109" lon="5.20039">
        <ele>137</ele>
        <time>2021-07-18T07:49:12.000Z</time>
      </trkpt>
      <trkpt lat="50.65114" lon="5.20058">
        <ele>137</ele>
        <time>2021-07-18T07:49:14.000Z</time>
      </trkpt>
      <trkpt lat="50.65131" lon="5.20115">
        <ele>137</ele>
        <time>2021-07-18T07:49:20.000Z</time>
      </trkpt>
      <trkpt lat="50.65144" lon="5.20156">
        <ele>136</ele>
        <time>2021-07-18T07:49:25.000Z</time>
      </trkpt>
      <trkpt lat="50.65153" lon="5.20165">
        <ele>136</ele>
        <time>2021-07-18T07:49:27.000Z</time>
      </trkpt>
      <trkpt lat="50.65163" lon="5.20157">
        <ele>135.80000305176</ele>
        <time>2021-07-18T07:49:29.000Z</time>
      </trkpt>
      <trkpt lat="50.65167" lon="5.2015">
        <ele>135.80000305176</ele>
        <time>2021-07-18T07:49:30.000Z</time>
      </trkpt>
      <trkpt lat="50.6518" lon="5.20126">
        <ele>135.80000305176</ele>
        <time>2021-07-18T07:49:33.000Z</time>
      </trkpt>
      <trkpt lat="50.65184" lon="5.20118">
        <ele>135.60000610352</ele>
        <time>2021-07-18T07:49:34.000Z</time>
      </trkpt>
      <trkpt lat="50.652" lon="5.20094">
        <ele>135.19999694824</ele>
        <time>2021-07-18T07:49:37.000Z</time>
      </trkpt>
      <trkpt lat="50.65206" lon="5.20087">
        <ele>135</ele>
        <time>2021-07-18T07:49:38.000Z</time>
      </trkpt>
      <trkpt lat="50.65211" lon="5.2008">
        <ele>134.80000305176</ele>
        <time>2021-07-18T07:49:39.000Z</time>
      </trkpt>
      <trkpt lat="50.65256" lon="5.20025">
        <ele>132.60000610352</ele>
        <time>2021-07-18T07:49:47.000Z</time>
      </trkpt>
      <trkpt lat="50.65273" lon="5.20004">
        <ele>131.80000305176</ele>
        <time>2021-07-18T07:49:50.000Z</time>
      </trkpt>
      <trkpt lat="50.65279" lon="5.19997">
        <ele>131.60000610352</ele>
        <time>2021-07-18T07:49:51.000Z</time>
      </trkpt>
      <trkpt lat="50.65313" lon="5.19955">
        <ele>130.80000305176</ele>
        <time>2021-07-18T07:49:57.000Z</time>
      </trkpt>
      <trkpt lat="50.65331" lon="5.19934">
        <ele>130.19999694824</ele>
        <time>2021-07-18T07:50:00.000Z</time>
      </trkpt>
      <trkpt lat="50.65375" lon="5.19873">
        <ele>129</ele>
        <time>2021-07-18T07:50:08.000Z</time>
      </trkpt>
      <trkpt lat="50.65385" lon="5.19857">
        <ele>128.80000305176</ele>
        <time>2021-07-18T07:50:10.000Z</time>
      </trkpt>
      <trkpt lat="50.6539" lon="5.19849">
        <ele>128.80000305176</ele>
        <time>2021-07-18T07:50:11.000Z</time>
      </trkpt>
      <trkpt lat="50.65421" lon="5.19803">
        <ele>128</ele>
        <time>2021-07-18T07:50:17.000Z</time>
      </trkpt>
      <trkpt lat="50.65431" lon="5.19788">
        <ele>127.80000305176</ele>
        <time>2021-07-18T07:50:19.000Z</time>
      </trkpt>
      <trkpt lat="50.65464" lon="5.19738">
        <ele>126.80000305176</ele>
        <time>2021-07-18T07:50:26.000Z</time>
      </trkpt>
      <trkpt lat="50.65468" lon="5.19732">
        <ele>126.80000305176</ele>
        <time>2021-07-18T07:50:27.000Z</time>
      </trkpt>
      <trkpt lat="50.65478" lon="5.19717">
        <ele>126.59999847412</ele>
        <time>2021-07-18T07:50:30.000Z</time>
      </trkpt>
      <trkpt lat="50.65482" lon="5.19711">
        <ele>126.40000152588</ele>
        <time>2021-07-18T07:50:31.000Z</time>
      </trkpt>
      <trkpt lat="50.65486" lon="5.19704">
        <ele>126.40000152588</ele>
        <time>2021-07-18T07:50:32.000Z</time>
      </trkpt>
      <trkpt lat="50.65509" lon="5.19657">
        <ele>126</ele>
        <time>2021-07-18T07:50:38.000Z</time>
      </trkpt>
      <trkpt lat="50.65518" lon="5.19641">
        <ele>126.19999694824</ele>
        <time>2021-07-18T07:50:40.000Z</time>
      </trkpt>
      <trkpt lat="50.65541" lon="5.19595">
        <ele>125.59999847412</ele>
        <time>2021-07-18T07:50:46.000Z</time>
      </trkpt>
      <trkpt lat="50.65553" lon="5.19577">
        <ele>124.40000152588</ele>
        <time>2021-07-18T07:50:50.000Z</time>
      </trkpt>
      <trkpt lat="50.65554" lon="5.19574">
        <ele>124.40000152588</ele>
        <time>2021-07-18T07:50:51.000Z</time>
      </trkpt>
      <trkpt lat="50.65554" lon="5.1957">
        <ele>124.40000152588</ele>
        <time>2021-07-18T07:50:53.000Z</time>
      </trkpt>
      <trkpt lat="50.65553" lon="5.19567">
        <ele>124.80000305176</ele>
        <time>2021-07-18T07:53:44.000Z</time>
      </trkpt>
      <trkpt lat="50.65555" lon="5.1956">
        <ele>124.59999847412</ele>
        <time>2021-07-18T07:53:46.000Z</time>
      </trkpt>
      <trkpt lat="50.65565" lon="5.19535">
        <ele>124.40000152588</ele>
        <time>2021-07-18T07:53:51.000Z</time>
      </trkpt>
      <trkpt lat="50.65588" lon="5.19474">
        <ele>124</ele>
        <time>2021-07-18T07:54:00.000Z</time>
      </trkpt>
      <trkpt lat="50.656" lon="5.19443">
        <ele>123.59999847412</ele>
        <time>2021-07-18T07:54:04.000Z</time>
      </trkpt>
      <trkpt lat="50.65603" lon="5.19435">
        <ele>123.59999847412</ele>
        <time>2021-07-18T07:54:05.000Z</time>
      </trkpt>
      <trkpt lat="50.65618" lon="5.19396">
        <ele>123.19999694824</ele>
        <time>2021-07-18T07:54:10.000Z</time>
      </trkpt>
      <trkpt lat="50.65636" lon="5.1935">
        <ele>122.80000305176</ele>
        <time>2021-07-18T07:54:16.000Z</time>
      </trkpt>
      <trkpt lat="50.65647" lon="5.19321">
        <ele>123.19999694824</ele>
        <time>2021-07-18T07:54:20.000Z</time>
      </trkpt>
      <trkpt lat="50.65653" lon="5.19306">
        <ele>123.19999694824</ele>
        <time>2021-07-18T07:54:22.000Z</time>
      </trkpt>
      <trkpt lat="50.65664" lon="5.19278">
        <ele>123.80000305176</ele>
        <time>2021-07-18T07:54:26.000Z</time>
      </trkpt>
      <trkpt lat="50.65673" lon="5.19257">
        <ele>124.59999847412</ele>
        <time>2021-07-18T07:54:29.000Z</time>
      </trkpt>
      <trkpt lat="50.65675" lon="5.1925">
        <ele>125</ele>
        <time>2021-07-18T07:54:30.000Z</time>
      </trkpt>
      <trkpt lat="50.6569" lon="5.19213">
        <ele>126.40000152588</ele>
        <time>2021-07-18T07:54:35.000Z</time>
      </trkpt>
      <trkpt lat="50.65704" lon="5.19176">
        <ele>127.80000305176</ele>
        <time>2021-07-18T07:54:40.000Z</time>
      </trkpt>
      <trkpt lat="50.65735" lon="5.19097">
        <ele>129.39999389648</ele>
        <time>2021-07-18T07:54:50.000Z</time>
      </trkpt>
      <trkpt lat="50.65742" lon="5.1908">
        <ele>129.39999389648</ele>
        <time>2021-07-18T07:54:52.000Z</time>
      </trkpt>
      <trkpt lat="50.65752" lon="5.19054">
        <ele>129.39999389648</ele>
        <time>2021-07-18T07:54:55.000Z</time>
      </trkpt>
      <trkpt lat="50.65774" lon="5.18997">
        <ele>128.80000305176</ele>
        <time>2021-07-18T07:55:01.000Z</time>
      </trkpt>
      <trkpt lat="50.65778" lon="5.18987">
        <ele>128.60000610352</ele>
        <time>2021-07-18T07:55:02.000Z</time>
      </trkpt>
      <trkpt lat="50.65809" lon="5.18909">
        <ele>127.19999694824</ele>
        <time>2021-07-18T07:55:10.000Z</time>
      </trkpt>
      <trkpt lat="50.6582" lon="5.1888">
        <ele>126.80000305176</ele>
        <time>2021-07-18T07:55:13.000Z</time>
      </trkpt>
      <trkpt lat="50.65849" lon="5.18806">
        <ele>126.40000152588</ele>
        <time>2021-07-18T07:55:21.000Z</time>
      </trkpt>
      <trkpt lat="50.6586" lon="5.18779">
        <ele>126.40000152588</ele>
        <time>2021-07-18T07:55:24.000Z</time>
      </trkpt>
      <trkpt lat="50.6589" lon="5.18702">
        <ele>127.59999847412</ele>
        <time>2021-07-18T07:55:33.000Z</time>
      </trkpt>
      <trkpt lat="50.65897" lon="5.18685">
        <ele>128</ele>
        <time>2021-07-18T07:55:35.000Z</time>
      </trkpt>
      <trkpt lat="50.65901" lon="5.18676">
        <ele>128</ele>
        <time>2021-07-18T07:55:36.000Z</time>
      </trkpt>
      <trkpt lat="50.65908" lon="5.18658">
        <ele>128.19999694824</ele>
        <time>2021-07-18T07:55:38.000Z</time>
      </trkpt>
      <trkpt lat="50.65938" lon="5.18583">
        <ele>128.19999694824</ele>
        <time>2021-07-18T07:55:46.000Z</time>
      </trkpt>
      <trkpt lat="50.65945" lon="5.18563">
        <ele>128</ele>
        <time>2021-07-18T07:55:48.000Z</time>
      </trkpt>
      <trkpt lat="50.65958" lon="5.18533">
        <ele>127.40000152588</ele>
        <time>2021-07-18T07:55:51.000Z</time>
      </trkpt>
      <trkpt lat="50.65986" lon="5.1846">
        <ele>125.80000305176</ele>
        <time>2021-07-18T07:55:58.000Z</time>
      </trkpt>
      <trkpt lat="50.6599" lon="5.1845">
        <ele>125.40000152588</ele>
        <time>2021-07-18T07:55:59.000Z</time>
      </trkpt>
      <trkpt lat="50.66023" lon="5.18372">
        <ele>124.40000152588</ele>
        <time>2021-07-18T07:56:07.000Z</time>
      </trkpt>
      <trkpt lat="50.66043" lon="5.18341">
        <ele>124.19999694824</ele>
        <time>2021-07-18T07:56:11.000Z</time>
      </trkpt>
      <trkpt lat="50.66048" lon="5.18334">
        <ele>124.19999694824</ele>
        <time>2021-07-18T07:56:12.000Z</time>
      </trkpt>
      <trkpt lat="50.66054" lon="5.18327">
        <ele>124.19999694824</ele>
        <time>2021-07-18T07:56:13.000Z</time>
      </trkpt>
      <trkpt lat="50.66088" lon="5.18292">
        <ele>124</ele>
        <time>2021-07-18T07:56:19.000Z</time>
      </trkpt>
      <trkpt lat="50.661" lon="5.1828">
        <ele>124</ele>
        <time>2021-07-18T07:56:21.000Z</time>
      </trkpt>
      <trkpt lat="50.66129" lon="5.1825">
        <ele>123.59999847412</ele>
        <time>2021-07-18T07:56:26.000Z</time>
      </trkpt>
      <trkpt lat="50.66154" lon="5.18225">
        <ele>123.19999694824</ele>
        <time>2021-07-18T07:56:31.000Z</time>
      </trkpt>
      <trkpt lat="50.66168" lon="5.18208">
        <ele>123.19999694824</ele>
        <time>2021-07-18T07:56:34.000Z</time>
      </trkpt>
      <trkpt lat="50.66176" lon="5.18193">
        <ele>123</ele>
        <time>2021-07-18T07:56:36.000Z</time>
      </trkpt>
      <trkpt lat="50.66178" lon="5.18175">
        <ele>122.80000305176</ele>
        <time>2021-07-18T07:56:38.000Z</time>
      </trkpt>
      <trkpt lat="50.66176" lon="5.18166">
        <ele>122.80000305176</ele>
        <time>2021-07-18T07:56:39.000Z</time>
      </trkpt>
      <trkpt lat="50.66172" lon="5.18157">
        <ele>122.80000305176</ele>
        <time>2021-07-18T07:56:40.000Z</time>
      </trkpt>
      <trkpt lat="50.66157" lon="5.18124">
        <ele>123</ele>
        <time>2021-07-18T07:56:44.000Z</time>
      </trkpt>
      <trkpt lat="50.66127" lon="5.18053">
        <ele>123</ele>
        <time>2021-07-18T07:56:52.000Z</time>
      </trkpt>
      <trkpt lat="50.66123" lon="5.18044">
        <ele>122.80000305176</ele>
        <time>2021-07-18T07:56:53.000Z</time>
      </trkpt>
      <trkpt lat="50.66098" lon="5.17979">
        <ele>122.80000305176</ele>
        <time>2021-07-18T07:57:00.000Z</time>
      </trkpt>
      <trkpt lat="50.66098" lon="5.17969">
        <ele>122.59999847412</ele>
        <time>2021-07-18T07:57:01.000Z</time>
      </trkpt>
      <trkpt lat="50.66099" lon="5.17958">
        <ele>122.59999847412</ele>
        <time>2021-07-18T07:57:02.000Z</time>
      </trkpt>
      <trkpt lat="50.66106" lon="5.1794">
        <ele>122.59999847412</ele>
        <time>2021-07-18T07:57:04.000Z</time>
      </trkpt>
      <trkpt lat="50.66122" lon="5.17907">
        <ele>122.19999694824</ele>
        <time>2021-07-18T07:57:08.000Z</time>
      </trkpt>
      <trkpt lat="50.66129" lon="5.17889">
        <ele>122</ele>
        <time>2021-07-18T07:57:10.000Z</time>
      </trkpt>
      <trkpt lat="50.6615" lon="5.17822">
        <ele>121.59999847412</ele>
        <time>2021-07-18T07:57:17.000Z</time>
      </trkpt>
      <trkpt lat="50.66172" lon="5.17755">
        <ele>121.19999694824</ele>
        <time>2021-07-18T07:57:24.000Z</time>
      </trkpt>
      <trkpt lat="50.66181" lon="5.17726">
        <ele>121.19999694824</ele>
        <time>2021-07-18T07:57:27.000Z</time>
      </trkpt>
      <trkpt lat="50.66191" lon="5.17713">
        <ele>121</ele>
        <time>2021-07-18T07:57:29.000Z</time>
      </trkpt>
      <trkpt lat="50.66204" lon="5.17711">
        <ele>120.80000305176</ele>
        <time>2021-07-18T07:57:31.000Z</time>
      </trkpt>
      <trkpt lat="50.66211" lon="5.17712">
        <ele>121</ele>
        <time>2021-07-18T07:57:32.000Z</time>
      </trkpt>
      <trkpt lat="50.66218" lon="5.17714">
        <ele>120.80000305176</ele>
        <time>2021-07-18T07:57:33.000Z</time>
      </trkpt>
      <trkpt lat="50.66259" lon="5.1773">
        <ele>120.40000152588</ele>
        <time>2021-07-18T07:57:39.000Z</time>
      </trkpt>
      <trkpt lat="50.66308" lon="5.17747">
        <ele>119.59999847412</ele>
        <time>2021-07-18T07:57:46.000Z</time>
      </trkpt>
      <trkpt lat="50.66329" lon="5.17755">
        <ele>119.40000152588</ele>
        <time>2021-07-18T07:57:49.000Z</time>
      </trkpt>
      <trkpt lat="50.66385" lon="5.17773">
        <ele>119</ele>
        <time>2021-07-18T07:57:57.000Z</time>
      </trkpt>
      <trkpt lat="50.66406" lon="5.1778">
        <ele>119</ele>
        <time>2021-07-18T07:58:00.000Z</time>
      </trkpt>
      <trkpt lat="50.6646" lon="5.17799">
        <ele>118.59999847412</ele>
        <time>2021-07-18T07:58:08.000Z</time>
      </trkpt>
      <trkpt lat="50.66473" lon="5.17803">
        <ele>118.59999847412</ele>
        <time>2021-07-18T07:58:10.000Z</time>
      </trkpt>
      <trkpt lat="50.66528" lon="5.17819">
        <ele>118.40000152588</ele>
        <time>2021-07-18T07:58:18.000Z</time>
      </trkpt>
      <trkpt lat="50.66535" lon="5.17819">
        <ele>118.40000152588</ele>
        <time>2021-07-18T07:58:19.000Z</time>
      </trkpt>
      <trkpt lat="50.66568" lon="5.17805">
        <ele>118</ele>
        <time>2021-07-18T07:58:24.000Z</time>
      </trkpt>
      <trkpt lat="50.66619" lon="5.17771">
        <ele>117.59999847412</ele>
        <time>2021-07-18T07:58:32.000Z</time>
      </trkpt>
      <trkpt lat="50.66645" lon="5.17757">
        <ele>117.40000152588</ele>
        <time>2021-07-18T07:58:36.000Z</time>
      </trkpt>
      <trkpt lat="50.66657" lon="5.17746">
        <ele>117.19999694824</ele>
        <time>2021-07-18T07:58:38.000Z</time>
      </trkpt>
      <trkpt lat="50.66666" lon="5.1773">
        <ele>117.19999694824</ele>
        <time>2021-07-18T07:58:40.000Z</time>
      </trkpt>
      <trkpt lat="50.66672" lon="5.17711">
        <ele>117.40000152588</ele>
        <time>2021-07-18T07:58:42.000Z</time>
      </trkpt>
      <trkpt lat="50.66676" lon="5.17691">
        <ele>117.19999694824</ele>
        <time>2021-07-18T07:58:44.000Z</time>
      </trkpt>
      <trkpt lat="50.66677" lon="5.1767">
        <ele>117.40000152588</ele>
        <time>2021-07-18T07:58:46.000Z</time>
      </trkpt>
      <trkpt lat="50.66678" lon="5.17604">
        <ele>117.40000152588</ele>
        <time>2021-07-18T07:58:52.000Z</time>
      </trkpt>
      <trkpt lat="50.66679" lon="5.1757">
        <ele>117.59999847412</ele>
        <time>2021-07-18T07:58:55.000Z</time>
      </trkpt>
      <trkpt lat="50.66682" lon="5.17482">
        <ele>118</ele>
        <time>2021-07-18T07:59:03.000Z</time>
      </trkpt>
      <trkpt lat="50.6669" lon="5.17468">
        <ele>118</ele>
        <time>2021-07-18T07:59:05.000Z</time>
      </trkpt>
      <trkpt lat="50.66708" lon="5.17469">
        <ele>118.19999694824</ele>
        <time>2021-07-18T07:59:08.000Z</time>
      </trkpt>
      <trkpt lat="50.66753" lon="5.17479">
        <ele>118</ele>
        <time>2021-07-18T07:59:15.000Z</time>
      </trkpt>
      <trkpt lat="50.66759" lon="5.1748">
        <ele>118</ele>
        <time>2021-07-18T07:59:16.000Z</time>
      </trkpt>
      <trkpt lat="50.66811" lon="5.17488">
        <ele>118</ele>
        <time>2021-07-18T07:59:24.000Z</time>
      </trkpt>
      <trkpt lat="50.66853" lon="5.17484">
        <ele>117.80000305176</ele>
        <time>2021-07-18T07:59:31.000Z</time>
      </trkpt>
      <trkpt lat="50.66877" lon="5.17477">
        <ele>118</ele>
        <time>2021-07-18T07:59:35.000Z</time>
      </trkpt>
      <trkpt lat="50.66895" lon="5.17467">
        <ele>118</ele>
        <time>2021-07-18T07:59:38.000Z</time>
      </trkpt>
      <trkpt lat="50.66911" lon="5.17455">
        <ele>118.19999694824</ele>
        <time>2021-07-18T07:59:41.000Z</time>
      </trkpt>
      <trkpt lat="50.66921" lon="5.17449">
        <ele>118.40000152588</ele>
        <time>2021-07-18T07:59:43.000Z</time>
      </trkpt>
      <trkpt lat="50.66925" lon="5.17446">
        <ele>118.59999847412</ele>
        <time>2021-07-18T07:59:44.000Z</time>
      </trkpt>
      <trkpt lat="50.6694" lon="5.17436">
        <ele>119</ele>
        <time>2021-07-18T07:59:47.000Z</time>
      </trkpt>
      <trkpt lat="50.6696" lon="5.17427">
        <ele>119.59999847412</ele>
        <time>2021-07-18T07:59:51.000Z</time>
      </trkpt>
      <trkpt lat="50.6697" lon="5.17423">
        <ele>119.59999847412</ele>
        <time>2021-07-18T07:59:53.000Z</time>
      </trkpt>
      <trkpt lat="50.66975" lon="5.17422">
        <ele>119.80000305176</ele>
        <time>2021-07-18T07:59:54.000Z</time>
      </trkpt>
      <trkpt lat="50.66985" lon="5.17424">
        <ele>120.19999694824</ele>
        <time>2021-07-18T07:59:56.000Z</time>
      </trkpt>
      <trkpt lat="50.66989" lon="5.17425">
        <ele>120.19999694824</ele>
        <time>2021-07-18T07:59:57.000Z</time>
      </trkpt>
      <trkpt lat="50.66994" lon="5.17427">
        <ele>120.59999847412</ele>
        <time>2021-07-18T07:59:58.000Z</time>
      </trkpt>
      <trkpt lat="50.66998" lon="5.17427">
        <ele>120.59999847412</ele>
        <time>2021-07-18T07:59:59.000Z</time>
      </trkpt>
      <trkpt lat="50.67002" lon="5.17425">
        <ele>120.80000305176</ele>
        <time>2021-07-18T08:00:00.000Z</time>
      </trkpt>
      <trkpt lat="50.67005" lon="5.17422">
        <ele>121</ele>
        <time>2021-07-18T08:00:01.000Z</time>
      </trkpt>
      <trkpt lat="50.67016" lon="5.1741">
        <ele>121.80000305176</ele>
        <time>2021-07-18T08:00:04.000Z</time>
      </trkpt>
      <trkpt lat="50.67025" lon="5.17405">
        <ele>121.80000305176</ele>
        <time>2021-07-18T08:00:06.000Z</time>
      </trkpt>
      <trkpt lat="50.67053" lon="5.17392">
        <ele>123</ele>
        <time>2021-07-18T08:00:12.000Z</time>
      </trkpt>
      <trkpt lat="50.67062" lon="5.17388">
        <ele>123.19999694824</ele>
        <time>2021-07-18T08:00:14.000Z</time>
      </trkpt>
      <trkpt lat="50.6708" lon="5.17378">
        <ele>123.19999694824</ele>
        <time>2021-07-18T08:00:18.000Z</time>
      </trkpt>
      <trkpt lat="50.6709" lon="5.17376">
        <ele>123.19999694824</ele>
        <time>2021-07-18T08:00:20.000Z</time>
      </trkpt>
      <trkpt lat="50.67105" lon="5.17367">
        <ele>123.19999694824</ele>
        <time>2021-07-18T08:00:23.000Z</time>
      </trkpt>
      <trkpt lat="50.67114" lon="5.17359">
        <ele>123.40000152588</ele>
        <time>2021-07-18T08:00:25.000Z</time>
      </trkpt>
      <trkpt lat="50.67129" lon="5.17343">
        <ele>123.40000152588</ele>
        <time>2021-07-18T08:00:29.000Z</time>
      </trkpt>
      <trkpt lat="50.67136" lon="5.17335">
        <ele>123.40000152588</ele>
        <time>2021-07-18T08:00:31.000Z</time>
      </trkpt>
      <trkpt lat="50.67148" lon="5.17325">
        <ele>123.40000152588</ele>
        <time>2021-07-18T08:00:34.000Z</time>
      </trkpt>
      <trkpt lat="50.67166" lon="5.17306">
        <ele>123</ele>
        <time>2021-07-18T08:00:38.000Z</time>
      </trkpt>
      <trkpt lat="50.67175" lon="5.17297">
        <ele>123</ele>
        <time>2021-07-18T08:00:40.000Z</time>
      </trkpt>
      <trkpt lat="50.67186" lon="5.1729">
        <ele>123</ele>
        <time>2021-07-18T08:00:42.000Z</time>
      </trkpt>
      <trkpt lat="50.67195" lon="5.1728">
        <ele>122.80000305176</ele>
        <time>2021-07-18T08:00:44.000Z</time>
      </trkpt>
      <trkpt lat="50.67205" lon="5.1727">
        <ele>122.59999847412</ele>
        <time>2021-07-18T08:00:46.000Z</time>
      </trkpt>
      <trkpt lat="50.67231" lon="5.17249">
        <ele>122.59999847412</ele>
        <time>2021-07-18T08:00:51.000Z</time>
      </trkpt>
      <trkpt lat="50.67237" lon="5.17245">
        <ele>122.40000152588</ele>
        <time>2021-07-18T08:00:52.000Z</time>
      </trkpt>
      <trkpt lat="50.67241" lon="5.17239">
        <ele>122.40000152588</ele>
        <time>2021-07-18T08:00:53.000Z</time>
      </trkpt>
      <trkpt lat="50.67251" lon="5.17228">
        <ele>122.40000152588</ele>
        <time>2021-07-18T08:00:55.000Z</time>
      </trkpt>
      <trkpt lat="50.67262" lon="5.17219">
        <ele>122.19999694824</ele>
        <time>2021-07-18T08:00:57.000Z</time>
      </trkpt>
      <trkpt lat="50.67292" lon="5.17205">
        <ele>121.80000305176</ele>
        <time>2021-07-18T08:01:02.000Z</time>
      </trkpt>
      <trkpt lat="50.67311" lon="5.172">
        <ele>121.80000305176</ele>
        <time>2021-07-18T08:01:05.000Z</time>
      </trkpt>
      <trkpt lat="50.67336" lon="5.17198">
        <ele>121.59999847412</ele>
        <time>2021-07-18T08:01:09.000Z</time>
      </trkpt>
      <trkpt lat="50.67386" lon="5.17194">
        <ele>122</ele>
        <time>2021-07-18T08:01:17.000Z</time>
      </trkpt>
      <trkpt lat="50.67405" lon="5.17191">
        <ele>122</ele>
        <time>2021-07-18T08:01:20.000Z</time>
      </trkpt>
      <trkpt lat="50.67434" lon="5.17179">
        <ele>122.19999694824</ele>
        <time>2021-07-18T08:01:25.000Z</time>
      </trkpt>
      <trkpt lat="50.6744" lon="5.17177">
        <ele>122.19999694824</ele>
        <time>2021-07-18T08:01:26.000Z</time>
      </trkpt>
      <trkpt lat="50.67446" lon="5.17175">
        <ele>122.40000152588</ele>
        <time>2021-07-18T08:01:27.000Z</time>
      </trkpt>
      <trkpt lat="50.67491" lon="5.17144">
        <ele>123.59999847412</ele>
        <time>2021-07-18T08:01:35.000Z</time>
      </trkpt>
      <trkpt lat="50.67496" lon="5.1714">
        <ele>123.80000305176</ele>
        <time>2021-07-18T08:01:36.000Z</time>
      </trkpt>
      <trkpt lat="50.6755" lon="5.17099">
        <ele>125.19999694824</ele>
        <time>2021-07-18T08:01:46.000Z</time>
      </trkpt>
      <trkpt lat="50.67565" lon="5.17087">
        <ele>125.59999847412</ele>
        <time>2021-07-18T08:01:49.000Z</time>
      </trkpt>
      <trkpt lat="50.6757" lon="5.17083">
        <ele>125.59999847412</ele>
        <time>2021-07-18T08:01:50.000Z</time>
      </trkpt>
      <trkpt lat="50.67575" lon="5.17079">
        <ele>125.80000305176</ele>
        <time>2021-07-18T08:01:51.000Z</time>
      </trkpt>
      <trkpt lat="50.67585" lon="5.17073">
        <ele>126.19999694824</ele>
        <time>2021-07-18T08:01:53.000Z</time>
      </trkpt>
      <trkpt lat="50.67617" lon="5.17057">
        <ele>127</ele>
        <time>2021-07-18T08:01:59.000Z</time>
      </trkpt>
      <trkpt lat="50.67632" lon="5.1705">
        <ele>127.59999847412</ele>
        <time>2021-07-18T08:02:02.000Z</time>
      </trkpt>
      <trkpt lat="50.67642" lon="5.17048">
        <ele>128</ele>
        <time>2021-07-18T08:02:04.000Z</time>
      </trkpt>
      <trkpt lat="50.67657" lon="5.1705">
        <ele>128.19999694824</ele>
        <time>2021-07-18T08:02:07.000Z</time>
      </trkpt>
      <trkpt lat="50.67672" lon="5.17041">
        <ele>128.80000305176</ele>
        <time>2021-07-18T08:02:10.000Z</time>
      </trkpt>
      <trkpt lat="50.67699" lon="5.17032">
        <ele>129.19999694824</ele>
        <time>2021-07-18T08:02:15.000Z</time>
      </trkpt>
      <trkpt lat="50.67756" lon="5.1702">
        <ele>129.60000610352</ele>
        <time>2021-07-18T08:02:25.000Z</time>
      </trkpt>
      <trkpt lat="50.67779" lon="5.17012">
        <ele>129.80000305176</ele>
        <time>2021-07-18T08:02:29.000Z</time>
      </trkpt>
      <trkpt lat="50.67807" lon="5.16998">
        <ele>130</ele>
        <time>2021-07-18T08:02:34.000Z</time>
      </trkpt>
      <trkpt lat="50.67823" lon="5.16987">
        <ele>130.60000610352</ele>
        <time>2021-07-18T08:02:37.000Z</time>
      </trkpt>
      <trkpt lat="50.67834" lon="5.1698">
        <ele>130.80000305176</ele>
        <time>2021-07-18T08:02:39.000Z</time>
      </trkpt>
      <trkpt lat="50.67845" lon="5.16978">
        <ele>131.19999694824</ele>
        <time>2021-07-18T08:02:41.000Z</time>
      </trkpt>
      <trkpt lat="50.67855" lon="5.16976">
        <ele>131.39999389648</ele>
        <time>2021-07-18T08:02:43.000Z</time>
      </trkpt>
      <trkpt lat="50.67865" lon="5.16967">
        <ele>131.39999389648</ele>
        <time>2021-07-18T08:02:45.000Z</time>
      </trkpt>
      <trkpt lat="50.67873" lon="5.16956">
        <ele>131.60000610352</ele>
        <time>2021-07-18T08:02:47.000Z</time>
      </trkpt>
      <trkpt lat="50.67889" lon="5.16944">
        <ele>131.80000305176</ele>
        <time>2021-07-18T08:02:50.000Z</time>
      </trkpt>
      <trkpt lat="50.67894" lon="5.1694">
        <ele>131.80000305176</ele>
        <time>2021-07-18T08:02:51.000Z</time>
      </trkpt>
      <trkpt lat="50.67943" lon="5.16905">
        <ele>132</ele>
        <time>2021-07-18T08:03:00.000Z</time>
      </trkpt>
      <trkpt lat="50.67949" lon="5.169">
        <ele>132.19999694824</ele>
        <time>2021-07-18T08:03:01.000Z</time>
      </trkpt>
      <trkpt lat="50.67989" lon="5.16857">
        <ele>132.80000305176</ele>
        <time>2021-07-18T08:03:09.000Z</time>
      </trkpt>
      <trkpt lat="50.68003" lon="5.16838">
        <ele>133</ele>
        <time>2021-07-18T08:03:12.000Z</time>
      </trkpt>
      <trkpt lat="50.68016" lon="5.16818">
        <ele>133.19999694824</ele>
        <time>2021-07-18T08:03:15.000Z</time>
      </trkpt>
      <trkpt lat="50.6802" lon="5.16811">
        <ele>133.39999389648</ele>
        <time>2021-07-18T08:03:16.000Z</time>
      </trkpt>
      <trkpt lat="50.68048" lon="5.16773">
        <ele>134</ele>
        <time>2021-07-18T08:03:22.000Z</time>
      </trkpt>
      <trkpt lat="50.68052" lon="5.16766">
        <ele>134</ele>
        <time>2021-07-18T08:03:23.000Z</time>
      </trkpt>
      <trkpt lat="50.68061" lon="5.16753">
        <ele>134.19999694824</ele>
        <time>2021-07-18T08:03:25.000Z</time>
      </trkpt>
      <trkpt lat="50.68066" lon="5.16749">
        <ele>134.19999694824</ele>
        <time>2021-07-18T08:03:26.000Z</time>
      </trkpt>
      <trkpt lat="50.68098" lon="5.16721">
        <ele>135</ele>
        <time>2021-07-18T08:03:32.000Z</time>
      </trkpt>
      <trkpt lat="50.68134" lon="5.167">
        <ele>135</ele>
        <time>2021-07-18T08:03:38.000Z</time>
      </trkpt>
      <trkpt lat="50.68159" lon="5.16688">
        <ele>135.39999389648</ele>
        <time>2021-07-18T08:03:42.000Z</time>
      </trkpt>
      <trkpt lat="50.68177" lon="5.16678">
        <ele>135.60000610352</ele>
        <time>2021-07-18T08:03:45.000Z</time>
      </trkpt>
      <trkpt lat="50.6819" lon="5.16671">
        <ele>135.39999389648</ele>
        <time>2021-07-18T08:03:47.000Z</time>
      </trkpt>
      <trkpt lat="50.68222" lon="5.1665">
        <ele>135</ele>
        <time>2021-07-18T08:03:52.000Z</time>
      </trkpt>
      <trkpt lat="50.68232" lon="5.16637">
        <ele>134.80000305176</ele>
        <time>2021-07-18T08:03:54.000Z</time>
      </trkpt>
      <trkpt lat="50.68242" lon="5.16622">
        <ele>134.80000305176</ele>
        <time>2021-07-18T08:03:56.000Z</time>
      </trkpt>
      <trkpt lat="50.68248" lon="5.16616">
        <ele>134.80000305176</ele>
        <time>2021-07-18T08:03:57.000Z</time>
      </trkpt>
      <trkpt lat="50.68259" lon="5.16604">
        <ele>134.80000305176</ele>
        <time>2021-07-18T08:03:59.000Z</time>
      </trkpt>
      <trkpt lat="50.68303" lon="5.16566">
        <ele>134.39999389648</ele>
        <time>2021-07-18T08:04:06.000Z</time>
      </trkpt>
      <trkpt lat="50.68309" lon="5.16561">
        <ele>134.39999389648</ele>
        <time>2021-07-18T08:04:07.000Z</time>
      </trkpt>
      <trkpt lat="50.68335" lon="5.16541">
        <ele>133.80000305176</ele>
        <time>2021-07-18T08:04:11.000Z</time>
      </trkpt>
      <trkpt lat="50.68342" lon="5.16535">
        <ele>134</ele>
        <time>2021-07-18T08:04:12.000Z</time>
      </trkpt>
      <trkpt lat="50.68368" lon="5.16515">
        <ele>133.39999389648</ele>
        <time>2021-07-18T08:04:16.000Z</time>
      </trkpt>
      <trkpt lat="50.68381" lon="5.16507">
        <ele>133</ele>
        <time>2021-07-18T08:04:18.000Z</time>
      </trkpt>
      <trkpt lat="50.68388" lon="5.16504">
        <ele>133</ele>
        <time>2021-07-18T08:04:19.000Z</time>
      </trkpt>
      <trkpt lat="50.68401" lon="5.16496">
        <ele>132.80000305176</ele>
        <time>2021-07-18T08:04:21.000Z</time>
      </trkpt>
      <trkpt lat="50.68435" lon="5.16476">
        <ele>131.60000610352</ele>
        <time>2021-07-18T08:04:26.000Z</time>
      </trkpt>
      <trkpt lat="50.68455" lon="5.16463">
        <ele>131</ele>
        <time>2021-07-18T08:04:29.000Z</time>
      </trkpt>
      <trkpt lat="50.68469" lon="5.16454">
        <ele>130.80000305176</ele>
        <time>2021-07-18T08:04:31.000Z</time>
      </trkpt>
      <trkpt lat="50.68481" lon="5.16446">
        <ele>130.39999389648</ele>
        <time>2021-07-18T08:04:33.000Z</time>
      </trkpt>
      <trkpt lat="50.68488" lon="5.16442">
        <ele>130.39999389648</ele>
        <time>2021-07-18T08:04:34.000Z</time>
      </trkpt>
      <trkpt lat="50.68494" lon="5.16438">
        <ele>130.39999389648</ele>
        <time>2021-07-18T08:04:35.000Z</time>
      </trkpt>
      <trkpt lat="50.68531" lon="5.16416">
        <ele>130</ele>
        <time>2021-07-18T08:04:41.000Z</time>
      </trkpt>
      <trkpt lat="50.68543" lon="5.16409">
        <ele>130.19999694824</ele>
        <time>2021-07-18T08:04:43.000Z</time>
      </trkpt>
      <trkpt lat="50.68567" lon="5.16393">
        <ele>130.19999694824</ele>
        <time>2021-07-18T08:04:47.000Z</time>
      </trkpt>
      <trkpt lat="50.68582" lon="5.16377">
        <ele>130.60000610352</ele>
        <time>2021-07-18T08:04:50.000Z</time>
      </trkpt>
      <trkpt lat="50.68587" lon="5.16371">
        <ele>130.80000305176</ele>
        <time>2021-07-18T08:04:51.000Z</time>
      </trkpt>
      <trkpt lat="50.68607" lon="5.16334">
        <ele>131.80000305176</ele>
        <time>2021-07-18T08:04:56.000Z</time>
      </trkpt>
      <trkpt lat="50.68617" lon="5.16313">
        <ele>132.80000305176</ele>
        <time>2021-07-18T08:04:59.000Z</time>
      </trkpt>
      <trkpt lat="50.68621" lon="5.16308">
        <ele>133.19999694824</ele>
        <time>2021-07-18T08:05:00.000Z</time>
      </trkpt>
      <trkpt lat="50.68627" lon="5.16306">
        <ele>133.39999389648</ele>
        <time>2021-07-18T08:05:01.000Z</time>
      </trkpt>
      <trkpt lat="50.68644" lon="5.16304">
        <ele>133.60000610352</ele>
        <time>2021-07-18T08:05:04.000Z</time>
      </trkpt>
      <trkpt lat="50.68668" lon="5.16304">
        <ele>133.80000305176</ele>
        <time>2021-07-18T08:05:08.000Z</time>
      </trkpt>
      <trkpt lat="50.6868" lon="5.16304">
        <ele>134</ele>
        <time>2021-07-18T08:05:10.000Z</time>
      </trkpt>
      <trkpt lat="50.68694" lon="5.16304">
        <ele>134</ele>
        <time>2021-07-18T08:05:12.000Z</time>
      </trkpt>
      <trkpt lat="50.68722" lon="5.16304">
        <ele>133.60000610352</ele>
        <time>2021-07-18T08:05:16.000Z</time>
      </trkpt>
      <trkpt lat="50.68752" lon="5.16304">
        <ele>133.39999389648</ele>
        <time>2021-07-18T08:05:20.000Z</time>
      </trkpt>
      <trkpt lat="50.68798" lon="5.16307">
        <ele>132.19999694824</ele>
        <time>2021-07-18T08:05:26.000Z</time>
      </trkpt>
      <trkpt lat="50.68821" lon="5.16308">
        <ele>131.60000610352</ele>
        <time>2021-07-18T08:05:29.000Z</time>
      </trkpt>
      <trkpt lat="50.68837" lon="5.16309">
        <ele>131.19999694824</ele>
        <time>2021-07-18T08:05:31.000Z</time>
      </trkpt>
      <trkpt lat="50.6886" lon="5.16309">
        <ele>130.80000305176</ele>
        <time>2021-07-18T08:05:34.000Z</time>
      </trkpt>
      <trkpt lat="50.68882" lon="5.16311">
        <ele>130.60000610352</ele>
        <time>2021-07-18T08:05:37.000Z</time>
      </trkpt>
      <trkpt lat="50.68939" lon="5.16315">
        <ele>129.80000305176</ele>
        <time>2021-07-18T08:05:45.000Z</time>
      </trkpt>
      <trkpt lat="50.68946" lon="5.16315">
        <ele>129.60000610352</ele>
        <time>2021-07-18T08:05:46.000Z</time>
      </trkpt>
      <trkpt lat="50.69004" lon="5.16308">
        <ele>128.80000305176</ele>
        <time>2021-07-18T08:05:54.000Z</time>
      </trkpt>
      <trkpt lat="50.69032" lon="5.16296">
        <ele>128.80000305176</ele>
        <time>2021-07-18T08:05:58.000Z</time>
      </trkpt>
      <trkpt lat="50.69053" lon="5.16285">
        <ele>128.60000610352</ele>
        <time>2021-07-18T08:06:01.000Z</time>
      </trkpt>
      <trkpt lat="50.69099" lon="5.16248">
        <ele>128.19999694824</ele>
        <time>2021-07-18T08:06:08.000Z</time>
      </trkpt>
      <trkpt lat="50.69132" lon="5.16217">
        <ele>127.80000305176</ele>
        <time>2021-07-18T08:06:13.000Z</time>
      </trkpt>
      <trkpt lat="50.69166" lon="5.16185">
        <ele>127.40000152588</ele>
        <time>2021-07-18T08:06:18.000Z</time>
      </trkpt>
      <trkpt lat="50.69173" lon="5.16179">
        <ele>127.19999694824</ele>
        <time>2021-07-18T08:06:19.000Z</time>
      </trkpt>
      <trkpt lat="50.69195" lon="5.1616">
        <ele>126.80000305176</ele>
        <time>2021-07-18T08:06:22.000Z</time>
      </trkpt>
      <trkpt lat="50.69232" lon="5.16127">
        <ele>125.80000305176</ele>
        <time>2021-07-18T08:06:27.000Z</time>
      </trkpt>
      <trkpt lat="50.69267" lon="5.16094">
        <ele>124.19999694824</ele>
        <time>2021-07-18T08:06:32.000Z</time>
      </trkpt>
      <trkpt lat="50.6928" lon="5.16082">
        <ele>124</ele>
        <time>2021-07-18T08:06:34.000Z</time>
      </trkpt>
      <trkpt lat="50.69329" lon="5.16035">
        <ele>123.19999694824</ele>
        <time>2021-07-18T08:06:42.000Z</time>
      </trkpt>
      <trkpt lat="50.69335" lon="5.1603">
        <ele>123.40000152588</ele>
        <time>2021-07-18T08:06:43.000Z</time>
      </trkpt>
      <trkpt lat="50.69364" lon="5.16004">
        <ele>123.40000152588</ele>
        <time>2021-07-18T08:06:48.000Z</time>
      </trkpt>
      <trkpt lat="50.69386" lon="5.15983">
        <ele>123.80000305176</ele>
        <time>2021-07-18T08:06:52.000Z</time>
      </trkpt>
      <trkpt lat="50.69424" lon="5.15948">
        <ele>125</ele>
        <time>2021-07-18T08:06:59.000Z</time>
      </trkpt>
      <trkpt lat="50.69435" lon="5.15938">
        <ele>125.40000152588</ele>
        <time>2021-07-18T08:07:01.000Z</time>
      </trkpt>
      <trkpt lat="50.69447" lon="5.15928">
        <ele>125.40000152588</ele>
        <time>2021-07-18T08:07:03.000Z</time>
      </trkpt>
      <trkpt lat="50.69489" lon="5.15888">
        <ele>126</ele>
        <time>2021-07-18T08:07:10.000Z</time>
      </trkpt>
      <trkpt lat="50.69515" lon="5.15865">
        <ele>125.80000305176</ele>
        <time>2021-07-18T08:07:14.000Z</time>
      </trkpt>
      <trkpt lat="50.69555" lon="5.15828">
        <ele>125.59999847412</ele>
        <time>2021-07-18T08:07:20.000Z</time>
      </trkpt>
      <trkpt lat="50.69568" lon="5.15815">
        <ele>125.40000152588</ele>
        <time>2021-07-18T08:07:22.000Z</time>
      </trkpt>
      <trkpt lat="50.69607" lon="5.15781">
        <ele>124.40000152588</ele>
        <time>2021-07-18T08:07:28.000Z</time>
      </trkpt>
      <trkpt lat="50.69625" lon="5.15767">
        <ele>123.80000305176</ele>
        <time>2021-07-18T08:07:31.000Z</time>
      </trkpt>
      <trkpt lat="50.69662" lon="5.15741">
        <ele>123.80000305176</ele>
        <time>2021-07-18T08:07:37.000Z</time>
      </trkpt>
      <trkpt lat="50.69674" lon="5.15733">
        <ele>123.80000305176</ele>
        <time>2021-07-18T08:07:39.000Z</time>
      </trkpt>
      <trkpt lat="50.69698" lon="5.15716">
        <ele>124.59999847412</ele>
        <time>2021-07-18T08:07:43.000Z</time>
      </trkpt>
      <trkpt lat="50.69733" lon="5.15692">
        <ele>125.40000152588</ele>
        <time>2021-07-18T08:07:49.000Z</time>
      </trkpt>
      <trkpt lat="50.6975" lon="5.1568">
        <ele>126.19999694824</ele>
        <time>2021-07-18T08:07:52.000Z</time>
      </trkpt>
      <trkpt lat="50.6979" lon="5.15653">
        <ele>127.40000152588</ele>
        <time>2021-07-18T08:07:59.000Z</time>
      </trkpt>
      <trkpt lat="50.69796" lon="5.15648">
        <ele>127.40000152588</ele>
        <time>2021-07-18T08:08:00.000Z</time>
      </trkpt>
      <trkpt lat="50.69841" lon="5.15617">
        <ele>128.39999389648</ele>
        <time>2021-07-18T08:08:08.000Z</time>
      </trkpt>
      <trkpt lat="50.69858" lon="5.15605">
        <ele>129</ele>
        <time>2021-07-18T08:08:11.000Z</time>
      </trkpt>
      <trkpt lat="50.69863" lon="5.15602">
        <ele>129.39999389648</ele>
        <time>2021-07-18T08:08:12.000Z</time>
      </trkpt>
      <trkpt lat="50.69874" lon="5.15594">
        <ele>129.60000610352</ele>
        <time>2021-07-18T08:08:14.000Z</time>
      </trkpt>
      <trkpt lat="50.69879" lon="5.1559">
        <ele>129.60000610352</ele>
        <time>2021-07-18T08:08:15.000Z</time>
      </trkpt>
      <trkpt lat="50.69895" lon="5.15579">
        <ele>130.19999694824</ele>
        <time>2021-07-18T08:08:18.000Z</time>
      </trkpt>
      <trkpt lat="50.69905" lon="5.15572">
        <ele>130.80000305176</ele>
        <time>2021-07-18T08:08:20.000Z</time>
      </trkpt>
      <trkpt lat="50.69936" lon="5.15551">
        <ele>132</ele>
        <time>2021-07-18T08:08:26.000Z</time>
      </trkpt>
      <trkpt lat="50.69957" lon="5.1554">
        <ele>133.80000305176</ele>
        <time>2021-07-18T08:08:30.000Z</time>
      </trkpt>
      <trkpt lat="50.69985" lon="5.15529">
        <ele>134.39999389648</ele>
        <time>2021-07-18T08:08:35.000Z</time>
      </trkpt>
      <trkpt lat="50.6999" lon="5.15528">
        <ele>135</ele>
        <time>2021-07-18T08:08:36.000Z</time>
      </trkpt>
      <trkpt lat="50.70018" lon="5.15518">
        <ele>136.39999389648</ele>
        <time>2021-07-18T08:08:41.000Z</time>
      </trkpt>
      <trkpt lat="50.70036" lon="5.15512">
        <ele>137</ele>
        <time>2021-07-18T08:08:44.000Z</time>
      </trkpt>
      <trkpt lat="50.70086" lon="5.15493">
        <ele>137.80000305176</ele>
        <time>2021-07-18T08:08:52.000Z</time>
      </trkpt>
      <trkpt lat="50.7013" lon="5.15459">
        <ele>137.60000610352</ele>
        <time>2021-07-18T08:08:59.000Z</time>
      </trkpt>
      <trkpt lat="50.70136" lon="5.15453">
        <ele>137.19999694824</ele>
        <time>2021-07-18T08:09:00.000Z</time>
      </trkpt>
      <trkpt lat="50.70148" lon="5.15442">
        <ele>137.19999694824</ele>
        <time>2021-07-18T08:09:02.000Z</time>
      </trkpt>
      <trkpt lat="50.70185" lon="5.15406">
        <ele>136.39999389648</ele>
        <time>2021-07-18T08:09:08.000Z</time>
      </trkpt>
      <trkpt lat="50.70234" lon="5.15361">
        <ele>134.19999694824</ele>
        <time>2021-07-18T08:09:16.000Z</time>
      </trkpt>
      <trkpt lat="50.70253" lon="5.15344">
        <ele>134</ele>
        <time>2021-07-18T08:09:19.000Z</time>
      </trkpt>
      <trkpt lat="50.70303" lon="5.15296">
        <ele>133.19999694824</ele>
        <time>2021-07-18T08:09:27.000Z</time>
      </trkpt>
      <trkpt lat="50.70309" lon="5.1529">
        <ele>133</ele>
        <time>2021-07-18T08:09:28.000Z</time>
      </trkpt>
      <trkpt lat="50.70315" lon="5.15284">
        <ele>133</ele>
        <time>2021-07-18T08:09:29.000Z</time>
      </trkpt>
      <trkpt lat="50.70366" lon="5.15237">
        <ele>132</ele>
        <time>2021-07-18T08:09:37.000Z</time>
      </trkpt>
      <trkpt lat="50.70373" lon="5.15231">
        <ele>132</ele>
        <time>2021-07-18T08:09:38.000Z</time>
      </trkpt>
      <trkpt lat="50.70398" lon="5.15208">
        <ele>132</ele>
        <time>2021-07-18T08:09:42.000Z</time>
      </trkpt>
      <trkpt lat="50.70417" lon="5.15191">
        <ele>132</ele>
        <time>2021-07-18T08:09:45.000Z</time>
      </trkpt>
      <trkpt lat="50.70437" lon="5.15172">
        <ele>132</ele>
        <time>2021-07-18T08:09:48.000Z</time>
      </trkpt>
      <trkpt lat="50.70451" lon="5.15159">
        <ele>132</ele>
        <time>2021-07-18T08:09:50.000Z</time>
      </trkpt>
      <trkpt lat="50.70458" lon="5.15153">
        <ele>131.80000305176</ele>
        <time>2021-07-18T08:09:51.000Z</time>
      </trkpt>
      <trkpt lat="50.70493" lon="5.15118">
        <ele>131.39999389648</ele>
        <time>2021-07-18T08:09:56.000Z</time>
      </trkpt>
      <trkpt lat="50.70507" lon="5.15103">
        <ele>130.60000610352</ele>
        <time>2021-07-18T08:09:58.000Z</time>
      </trkpt>
      <trkpt lat="50.7052" lon="5.15087">
        <ele>129.39999389648</ele>
        <time>2021-07-18T08:10:00.000Z</time>
      </trkpt>
      <trkpt lat="50.70549" lon="5.15046">
        <ele>127.80000305176</ele>
        <time>2021-07-18T08:10:05.000Z</time>
      </trkpt>
      <trkpt lat="50.70559" lon="5.15036">
        <ele>127</ele>
        <time>2021-07-18T08:10:07.000Z</time>
      </trkpt>
      <trkpt lat="50.70564" lon="5.15036">
        <ele>126.80000305176</ele>
        <time>2021-07-18T08:10:08.000Z</time>
      </trkpt>
      <trkpt lat="50.70569" lon="5.15039">
        <ele>126.59999847412</ele>
        <time>2021-07-18T08:10:09.000Z</time>
      </trkpt>
      <trkpt lat="50.70577" lon="5.1505">
        <ele>126.19999694824</ele>
        <time>2021-07-18T08:10:11.000Z</time>
      </trkpt>
      <trkpt lat="50.70593" lon="5.15075">
        <ele>126</ele>
        <time>2021-07-18T08:10:15.000Z</time>
      </trkpt>
      <trkpt lat="50.70599" lon="5.1509">
        <ele>126</ele>
        <time>2021-07-18T08:10:17.000Z</time>
      </trkpt>
      <trkpt lat="50.70618" lon="5.15128">
        <ele>125.59999847412</ele>
        <time>2021-07-18T08:10:22.000Z</time>
      </trkpt>
      <trkpt lat="50.70621" lon="5.15134">
        <ele>125.80000305176</ele>
        <time>2021-07-18T08:10:23.000Z</time>
      </trkpt>
      <trkpt lat="50.70625" lon="5.15144">
        <ele>125.40000152588</ele>
        <time>2021-07-18T08:10:25.000Z</time>
      </trkpt>
      <trkpt lat="50.70626" lon="5.15155">
        <ele>125.40000152588</ele>
        <time>2021-07-18T08:10:27.000Z</time>
      </trkpt>
      <trkpt lat="50.70625" lon="5.15161">
        <ele>125.59999847412</ele>
        <time>2021-07-18T08:10:28.000Z</time>
      </trkpt>
      <trkpt lat="50.70622" lon="5.15175">
        <ele>125.59999847412</ele>
        <time>2021-07-18T08:10:30.000Z</time>
      </trkpt>
      <trkpt lat="50.70621" lon="5.15182">
        <ele>125.80000305176</ele>
        <time>2021-07-18T08:10:31.000Z</time>
      </trkpt>
      <trkpt lat="50.70621" lon="5.1519">
        <ele>125.80000305176</ele>
        <time>2021-07-18T08:10:32.000Z</time>
      </trkpt>
      <trkpt lat="50.70621" lon="5.15206">
        <ele>125.59999847412</ele>
        <time>2021-07-18T08:10:34.000Z</time>
      </trkpt>
      <trkpt lat="50.70623" lon="5.15231">
        <ele>125.80000305176</ele>
        <time>2021-07-18T08:10:37.000Z</time>
      </trkpt>
      <trkpt lat="50.70629" lon="5.15283">
        <ele>126.40000152588</ele>
        <time>2021-07-18T08:10:43.000Z</time>
      </trkpt>
      <trkpt lat="50.70632" lon="5.15319">
        <ele>126.80000305176</ele>
        <time>2021-07-18T08:10:47.000Z</time>
      </trkpt>
      <trkpt lat="50.70633" lon="5.15347">
        <ele>127</ele>
        <time>2021-07-18T08:10:50.000Z</time>
      </trkpt>
      <trkpt lat="50.70631" lon="5.15375">
        <ele>127.59999847412</ele>
        <time>2021-07-18T08:10:53.000Z</time>
      </trkpt>
      <trkpt lat="50.70622" lon="5.15441">
        <ele>128.60000610352</ele>
        <time>2021-07-18T08:11:00.000Z</time>
      </trkpt>
      <trkpt lat="50.70621" lon="5.15451">
        <ele>128.80000305176</ele>
        <time>2021-07-18T08:11:01.000Z</time>
      </trkpt>
      <trkpt lat="50.7061" lon="5.15535">
        <ele>129.80000305176</ele>
        <time>2021-07-18T08:11:10.000Z</time>
      </trkpt>
      <trkpt lat="50.70609" lon="5.15545">
        <ele>129.80000305176</ele>
        <time>2021-07-18T08:11:11.000Z</time>
      </trkpt>
      <trkpt lat="50.70598" lon="5.15632">
        <ele>130</ele>
        <time>2021-07-18T08:11:20.000Z</time>
      </trkpt>
      <trkpt lat="50.70589" lon="5.15696">
        <ele>129.80000305176</ele>
        <time>2021-07-18T08:11:26.000Z</time>
      </trkpt>
      <trkpt lat="50.70586" lon="5.15718">
        <ele>130</ele>
        <time>2021-07-18T08:11:28.000Z</time>
      </trkpt>
      <trkpt lat="50.70576" lon="5.15798">
        <ele>129.39999389648</ele>
        <time>2021-07-18T08:11:35.000Z</time>
      </trkpt>
      <trkpt lat="50.70571" lon="5.15833">
        <ele>128.80000305176</ele>
        <time>2021-07-18T08:11:38.000Z</time>
      </trkpt>
      <trkpt lat="50.70567" lon="5.15869">
        <ele>128.80000305176</ele>
        <time>2021-07-18T08:11:41.000Z</time>
      </trkpt>
      <trkpt lat="50.70554" lon="5.15963">
        <ele>127</ele>
        <time>2021-07-18T08:11:49.000Z</time>
      </trkpt>
      <trkpt lat="50.70552" lon="5.15975">
        <ele>126.80000305176</ele>
        <time>2021-07-18T08:11:50.000Z</time>
      </trkpt>
      <trkpt lat="50.70541" lon="5.16059">
        <ele>126.40000152588</ele>
        <time>2021-07-18T08:11:57.000Z</time>
      </trkpt>
      <trkpt lat="50.70531" lon="5.16143">
        <ele>126</ele>
        <time>2021-07-18T08:12:04.000Z</time>
      </trkpt>
      <trkpt lat="50.70518" lon="5.16237">
        <ele>126.19999694824</ele>
        <time>2021-07-18T08:12:12.000Z</time>
      </trkpt>
      <trkpt lat="50.70512" lon="5.16284">
        <ele>126.40000152588</ele>
        <time>2021-07-18T08:12:16.000Z</time>
      </trkpt>
      <trkpt lat="50.70499" lon="5.16379">
        <ele>126.80000305176</ele>
        <time>2021-07-18T08:12:24.000Z</time>
      </trkpt>
      <trkpt lat="50.70492" lon="5.16437">
        <ele>126.80000305176</ele>
        <time>2021-07-18T08:12:29.000Z</time>
      </trkpt>
      <trkpt lat="50.70485" lon="5.16482">
        <ele>127</ele>
        <time>2021-07-18T08:12:33.000Z</time>
      </trkpt>
      <trkpt lat="50.70472" lon="5.16571">
        <ele>127.19999694824</ele>
        <time>2021-07-18T08:12:41.000Z</time>
      </trkpt>
      <trkpt lat="50.70452" lon="5.16645">
        <ele>127.59999847412</ele>
        <time>2021-07-18T08:12:48.000Z</time>
      </trkpt>
      <trkpt lat="50.7043" lon="5.16721">
        <ele>127.59999847412</ele>
        <time>2021-07-18T08:12:55.000Z</time>
      </trkpt>
      <trkpt lat="50.70417" lon="5.16767">
        <ele>127.40000152588</ele>
        <time>2021-07-18T08:12:59.000Z</time>
      </trkpt>
      <trkpt lat="50.70407" lon="5.16802">
        <ele>127.40000152588</ele>
        <time>2021-07-18T08:13:02.000Z</time>
      </trkpt>
      <trkpt lat="50.70401" lon="5.16825">
        <ele>126.80000305176</ele>
        <time>2021-07-18T08:13:04.000Z</time>
      </trkpt>
      <trkpt lat="50.7039" lon="5.16873">
        <ele>126</ele>
        <time>2021-07-18T08:13:08.000Z</time>
      </trkpt>
      <trkpt lat="50.70391" lon="5.16899">
        <ele>125.80000305176</ele>
        <time>2021-07-18T08:13:10.000Z</time>
      </trkpt>
      <trkpt lat="50.70394" lon="5.16911">
        <ele>125.59999847412</ele>
        <time>2021-07-18T08:13:11.000Z</time>
      </trkpt>
      <trkpt lat="50.70398" lon="5.16923">
        <ele>125.19999694824</ele>
        <time>2021-07-18T08:13:12.000Z</time>
      </trkpt>
      <trkpt lat="50.70412" lon="5.16957">
        <ele>124.40000152588</ele>
        <time>2021-07-18T08:13:15.000Z</time>
      </trkpt>
      <trkpt lat="50.70416" lon="5.16967">
        <ele>124.19999694824</ele>
        <time>2021-07-18T08:13:16.000Z</time>
      </trkpt>
      <trkpt lat="50.70447" lon="5.17038">
        <ele>123.80000305176</ele>
        <time>2021-07-18T08:13:23.000Z</time>
      </trkpt>
      <trkpt lat="50.7045" lon="5.17049">
        <ele>123.80000305176</ele>
        <time>2021-07-18T08:13:24.000Z</time>
      </trkpt>
      <trkpt lat="50.70458" lon="5.17095">
        <ele>123.80000305176</ele>
        <time>2021-07-18T08:13:28.000Z</time>
      </trkpt>
      <trkpt lat="50.70466" lon="5.1719">
        <ele>124</ele>
        <time>2021-07-18T08:13:36.000Z</time>
      </trkpt>
      <trkpt lat="50.7047" lon="5.1724">
        <ele>124</ele>
        <time>2021-07-18T08:13:40.000Z</time>
      </trkpt>
      <trkpt lat="50.70478" lon="5.17301">
        <ele>123.80000305176</ele>
        <time>2021-07-18T08:13:45.000Z</time>
      </trkpt>
      <trkpt lat="50.70492" lon="5.17355">
        <ele>123.40000152588</ele>
        <time>2021-07-18T08:13:50.000Z</time>
      </trkpt>
      <trkpt lat="50.70495" lon="5.17366">
        <ele>123.40000152588</ele>
        <time>2021-07-18T08:13:51.000Z</time>
      </trkpt>
      <trkpt lat="50.70517" lon="5.1745">
        <ele>123.40000152588</ele>
        <time>2021-07-18T08:13:59.000Z</time>
      </trkpt>
      <trkpt lat="50.70535" lon="5.17533">
        <ele>124</ele>
        <time>2021-07-18T08:14:07.000Z</time>
      </trkpt>
      <trkpt lat="50.70539" lon="5.17554">
        <ele>124</ele>
        <time>2021-07-18T08:14:09.000Z</time>
      </trkpt>
      <trkpt lat="50.70555" lon="5.17641">
        <ele>124.19999694824</ele>
        <time>2021-07-18T08:14:17.000Z</time>
      </trkpt>
      <trkpt lat="50.70557" lon="5.17652">
        <ele>124.19999694824</ele>
        <time>2021-07-18T08:14:18.000Z</time>
      </trkpt>
      <trkpt lat="50.70574" lon="5.17742">
        <ele>124.19999694824</ele>
        <time>2021-07-18T08:14:26.000Z</time>
      </trkpt>
      <trkpt lat="50.70578" lon="5.17765">
        <ele>124.19999694824</ele>
        <time>2021-07-18T08:14:28.000Z</time>
      </trkpt>
      <trkpt lat="50.70582" lon="5.17788">
        <ele>124.19999694824</ele>
        <time>2021-07-18T08:14:30.000Z</time>
      </trkpt>
      <trkpt lat="50.70595" lon="5.17859">
        <ele>123.80000305176</ele>
        <time>2021-07-18T08:14:36.000Z</time>
      </trkpt>
      <trkpt lat="50.706" lon="5.17883">
        <ele>123.40000152588</ele>
        <time>2021-07-18T08:14:38.000Z</time>
      </trkpt>
      <trkpt lat="50.70613" lon="5.17954">
        <ele>122.80000305176</ele>
        <time>2021-07-18T08:14:44.000Z</time>
      </trkpt>
      <trkpt lat="50.7062" lon="5.1799">
        <ele>122.40000152588</ele>
        <time>2021-07-18T08:14:47.000Z</time>
      </trkpt>
      <trkpt lat="50.70635" lon="5.18073">
        <ele>121</ele>
        <time>2021-07-18T08:14:54.000Z</time>
      </trkpt>
      <trkpt lat="50.70642" lon="5.18109">
        <ele>121</ele>
        <time>2021-07-18T08:14:57.000Z</time>
      </trkpt>
      <trkpt lat="50.70644" lon="5.18121">
        <ele>120.80000305176</ele>
        <time>2021-07-18T08:14:58.000Z</time>
      </trkpt>
      <trkpt lat="50.7066" lon="5.18203">
        <ele>120.40000152588</ele>
        <time>2021-07-18T08:15:05.000Z</time>
      </trkpt>
      <trkpt lat="50.7067" lon="5.18261">
        <ele>119.40000152588</ele>
        <time>2021-07-18T08:15:10.000Z</time>
      </trkpt>
      <trkpt lat="50.70685" lon="5.18342">
        <ele>119</ele>
        <time>2021-07-18T08:15:17.000Z</time>
      </trkpt>
      <trkpt lat="50.70696" lon="5.184">
        <ele>118.80000305176</ele>
        <time>2021-07-18T08:15:22.000Z</time>
      </trkpt>
      <trkpt lat="50.70717" lon="5.18477">
        <ele>118.59999847412</ele>
        <time>2021-07-18T08:15:29.000Z</time>
      </trkpt>
      <trkpt lat="50.70744" lon="5.18549">
        <ele>118.19999694824</ele>
        <time>2021-07-18T08:15:36.000Z</time>
      </trkpt>
      <trkpt lat="50.70776" lon="5.18619">
        <ele>118.19999694824</ele>
        <time>2021-07-18T08:15:43.000Z</time>
      </trkpt>
      <trkpt lat="50.70791" lon="5.18647">
        <ele>118.40000152588</ele>
        <time>2021-07-18T08:15:46.000Z</time>
      </trkpt>
      <trkpt lat="50.70826" lon="5.18701">
        <ele>118.40000152588</ele>
        <time>2021-07-18T08:15:53.000Z</time>
      </trkpt>
      <trkpt lat="50.7086" lon="5.18738">
        <ele>117.59999847412</ele>
        <time>2021-07-18T08:15:59.000Z</time>
      </trkpt>
      <trkpt lat="50.70874" lon="5.18743">
        <ele>117.19999694824</ele>
        <time>2021-07-18T08:16:01.000Z</time>
      </trkpt>
      <trkpt lat="50.70888" lon="5.18745">
        <ele>117</ele>
        <time>2021-07-18T08:16:03.000Z</time>
      </trkpt>
      <trkpt lat="50.70923" lon="5.18748">
        <ele>117</ele>
        <time>2021-07-18T08:16:08.000Z</time>
      </trkpt>
      <trkpt lat="50.70951" lon="5.18751">
        <ele>117</ele>
        <time>2021-07-18T08:16:12.000Z</time>
      </trkpt>
      <trkpt lat="50.71001" lon="5.18757">
        <ele>117.19999694824</ele>
        <time>2021-07-18T08:16:19.000Z</time>
      </trkpt>
      <trkpt lat="50.71056" lon="5.18764">
        <ele>118.40000152588</ele>
        <time>2021-07-18T08:16:27.000Z</time>
      </trkpt>
      <trkpt lat="50.71063" lon="5.18764">
        <ele>118.59999847412</ele>
        <time>2021-07-18T08:16:28.000Z</time>
      </trkpt>
      <trkpt lat="50.71083" lon="5.1876">
        <ele>119</ele>
        <time>2021-07-18T08:16:31.000Z</time>
      </trkpt>
      <trkpt lat="50.71104" lon="5.18754">
        <ele>119</ele>
        <time>2021-07-18T08:16:34.000Z</time>
      </trkpt>
      <trkpt lat="50.7111" lon="5.1875">
        <ele>119</ele>
        <time>2021-07-18T08:16:35.000Z</time>
      </trkpt>
      <trkpt lat="50.71123" lon="5.18742">
        <ele>119</ele>
        <time>2021-07-18T08:16:37.000Z</time>
      </trkpt>
      <trkpt lat="50.71148" lon="5.1872">
        <ele>119.40000152588</ele>
        <time>2021-07-18T08:16:41.000Z</time>
      </trkpt>
      <trkpt lat="50.71199" lon="5.18678">
        <ele>121</ele>
        <time>2021-07-18T08:16:49.000Z</time>
      </trkpt>
      <trkpt lat="50.71212" lon="5.18667">
        <ele>121</ele>
        <time>2021-07-18T08:16:51.000Z</time>
      </trkpt>
      <trkpt lat="50.71253" lon="5.18633">
        <ele>121</ele>
        <time>2021-07-18T08:16:57.000Z</time>
      </trkpt>
      <trkpt lat="50.7128" lon="5.1861">
        <ele>120.59999847412</ele>
        <time>2021-07-18T08:17:01.000Z</time>
      </trkpt>
      <trkpt lat="50.7133" lon="5.18575">
        <ele>120</ele>
        <time>2021-07-18T08:17:08.000Z</time>
      </trkpt>
      <trkpt lat="50.71338" lon="5.18571">
        <ele>120</ele>
        <time>2021-07-18T08:17:09.000Z</time>
      </trkpt>
      <trkpt lat="50.71369" lon="5.18566">
        <ele>119.80000305176</ele>
        <time>2021-07-18T08:17:13.000Z</time>
      </trkpt>
      <trkpt lat="50.71406" lon="5.18569">
        <ele>119.80000305176</ele>
        <time>2021-07-18T08:17:18.000Z</time>
      </trkpt>
      <trkpt lat="50.71427" lon="5.1857">
        <ele>120</ele>
        <time>2021-07-18T08:17:21.000Z</time>
      </trkpt>
      <trkpt lat="50.71433" lon="5.18571">
        <ele>120</ele>
        <time>2021-07-18T08:17:22.000Z</time>
      </trkpt>
      <trkpt lat="50.71488" lon="5.18572">
        <ele>121.40000152588</ele>
        <time>2021-07-18T08:17:30.000Z</time>
      </trkpt>
      <trkpt lat="50.71495" lon="5.18573">
        <ele>121.40000152588</ele>
        <time>2021-07-18T08:17:31.000Z</time>
      </trkpt>
      <trkpt lat="50.71543" lon="5.18577">
        <ele>122.19999694824</ele>
        <time>2021-07-18T08:17:38.000Z</time>
      </trkpt>
      <trkpt lat="50.71571" lon="5.18578">
        <ele>123</ele>
        <time>2021-07-18T08:17:42.000Z</time>
      </trkpt>
      <trkpt lat="50.71612" lon="5.1858">
        <ele>124</ele>
        <time>2021-07-18T08:17:48.000Z</time>
      </trkpt>
      <trkpt lat="50.71649" lon="5.18583">
        <ele>124.59999847412</ele>
        <time>2021-07-18T08:17:53.000Z</time>
      </trkpt>
      <trkpt lat="50.71665" lon="5.18584">
        <ele>124.59999847412</ele>
        <time>2021-07-18T08:17:55.000Z</time>
      </trkpt>
      <trkpt lat="50.71707" lon="5.18586">
        <ele>124.40000152588</ele>
        <time>2021-07-18T08:18:00.000Z</time>
      </trkpt>
      <trkpt lat="50.71732" lon="5.18587">
        <ele>123.59999847412</ele>
        <time>2021-07-18T08:18:03.000Z</time>
      </trkpt>
      <trkpt lat="50.71766" lon="5.18593">
        <ele>122.19999694824</ele>
        <time>2021-07-18T08:18:07.000Z</time>
      </trkpt>
      <trkpt lat="50.71782" lon="5.18599">
        <ele>121.59999847412</ele>
        <time>2021-07-18T08:18:09.000Z</time>
      </trkpt>
      <trkpt lat="50.71812" lon="5.18616">
        <ele>120.80000305176</ele>
        <time>2021-07-18T08:18:13.000Z</time>
      </trkpt>
      <trkpt lat="50.71827" lon="5.18627">
        <ele>120.59999847412</ele>
        <time>2021-07-18T08:18:15.000Z</time>
      </trkpt>
      <trkpt lat="50.71866" lon="5.18672">
        <ele>119.59999847412</ele>
        <time>2021-07-18T08:18:21.000Z</time>
      </trkpt>
      <trkpt lat="50.71894" lon="5.18719">
        <ele>119.19999694824</ele>
        <time>2021-07-18T08:18:26.000Z</time>
      </trkpt>
      <trkpt lat="50.71899" lon="5.18729">
        <ele>119.19999694824</ele>
        <time>2021-07-18T08:18:27.000Z</time>
      </trkpt>
      <trkpt lat="50.71931" lon="5.18808">
        <ele>119</ele>
        <time>2021-07-18T08:18:35.000Z</time>
      </trkpt>
      <trkpt lat="50.71935" lon="5.18818">
        <ele>119.19999694824</ele>
        <time>2021-07-18T08:18:36.000Z</time>
      </trkpt>
      <trkpt lat="50.71957" lon="5.18875">
        <ele>119.80000305176</ele>
        <time>2021-07-18T08:18:42.000Z</time>
      </trkpt>
      <trkpt lat="50.71973" lon="5.18923">
        <ele>120.59999847412</ele>
        <time>2021-07-18T08:18:47.000Z</time>
      </trkpt>
      <trkpt lat="50.71978" lon="5.18932">
        <ele>120.59999847412</ele>
        <time>2021-07-18T08:18:48.000Z</time>
      </trkpt>
      <trkpt lat="50.71984" lon="5.18941">
        <ele>120.59999847412</ele>
        <time>2021-07-18T08:18:49.000Z</time>
      </trkpt>
      <trkpt lat="50.7199" lon="5.18947">
        <ele>120.59999847412</ele>
        <time>2021-07-18T08:18:50.000Z</time>
      </trkpt>
      <trkpt lat="50.71998" lon="5.18951">
        <ele>120.80000305176</ele>
        <time>2021-07-18T08:18:51.000Z</time>
      </trkpt>
      <trkpt lat="50.72014" lon="5.1895">
        <ele>120.80000305176</ele>
        <time>2021-07-18T08:18:53.000Z</time>
      </trkpt>
      <trkpt lat="50.72021" lon="5.18946">
        <ele>120.80000305176</ele>
        <time>2021-07-18T08:18:54.000Z</time>
      </trkpt>
      <trkpt lat="50.72029" lon="5.18941">
        <ele>120.59999847412</ele>
        <time>2021-07-18T08:18:55.000Z</time>
      </trkpt>
      <trkpt lat="50.72066" lon="5.18908">
        <ele>120</ele>
        <time>2021-07-18T08:19:00.000Z</time>
      </trkpt>
      <trkpt lat="50.72081" lon="5.18895">
        <ele>119.59999847412</ele>
        <time>2021-07-18T08:19:02.000Z</time>
      </trkpt>
      <trkpt lat="50.72117" lon="5.18863">
        <ele>117.59999847412</ele>
        <time>2021-07-18T08:19:07.000Z</time>
      </trkpt>
      <trkpt lat="50.72137" lon="5.18846">
        <ele>116.59999847412</ele>
        <time>2021-07-18T08:19:10.000Z</time>
      </trkpt>
      <trkpt lat="50.72144" lon="5.1884">
        <ele>116.19999694824</ele>
        <time>2021-07-18T08:19:11.000Z</time>
      </trkpt>
      <trkpt lat="50.72169" lon="5.1882">
        <ele>115.19999694824</ele>
        <time>2021-07-18T08:19:15.000Z</time>
      </trkpt>
      <trkpt lat="50.72176" lon="5.1882">
        <ele>114.80000305176</ele>
        <time>2021-07-18T08:19:16.000Z</time>
      </trkpt>
      <trkpt lat="50.72183" lon="5.18823">
        <ele>114.80000305176</ele>
        <time>2021-07-18T08:19:17.000Z</time>
      </trkpt>
      <trkpt lat="50.72197" lon="5.18833">
        <ele>114.59999847412</ele>
        <time>2021-07-18T08:19:19.000Z</time>
      </trkpt>
      <trkpt lat="50.72249" lon="5.18872">
        <ele>112.59999847412</ele>
        <time>2021-07-18T08:19:26.000Z</time>
      </trkpt>
      <trkpt lat="50.72263" lon="5.18883">
        <ele>112.19999694824</ele>
        <time>2021-07-18T08:19:28.000Z</time>
      </trkpt>
      <trkpt lat="50.72275" lon="5.18898">
        <ele>111.80000305176</ele>
        <time>2021-07-18T08:19:30.000Z</time>
      </trkpt>
      <trkpt lat="50.72285" lon="5.18917">
        <ele>111.59999847412</ele>
        <time>2021-07-18T08:19:32.000Z</time>
      </trkpt>
      <trkpt lat="50.7229" lon="5.1894">
        <ele>111.19999694824</ele>
        <time>2021-07-18T08:19:34.000Z</time>
      </trkpt>
      <trkpt lat="50.72291" lon="5.18951">
        <ele>111.19999694824</ele>
        <time>2021-07-18T08:19:35.000Z</time>
      </trkpt>
      <trkpt lat="50.72291" lon="5.18976">
        <ele>111</ele>
        <time>2021-07-18T08:19:37.000Z</time>
      </trkpt>
      <trkpt lat="50.72291" lon="5.18988">
        <ele>110.80000305176</ele>
        <time>2021-07-18T08:19:38.000Z</time>
      </trkpt>
      <trkpt lat="50.7229" lon="5.19037">
        <ele>110.80000305176</ele>
        <time>2021-07-18T08:19:42.000Z</time>
      </trkpt>
      <trkpt lat="50.7229" lon="5.19048">
        <ele>110.80000305176</ele>
        <time>2021-07-18T08:19:43.000Z</time>
      </trkpt>
      <trkpt lat="50.72289" lon="5.1912">
        <ele>110.80000305176</ele>
        <time>2021-07-18T08:19:49.000Z</time>
      </trkpt>
      <trkpt lat="50.72289" lon="5.19158">
        <ele>110.80000305176</ele>
        <time>2021-07-18T08:19:52.000Z</time>
      </trkpt>
      <trkpt lat="50.72288" lon="5.19244">
        <ele>111</ele>
        <time>2021-07-18T08:19:59.000Z</time>
      </trkpt>
      <trkpt lat="50.72288" lon="5.19291">
        <ele>111</ele>
        <time>2021-07-18T08:20:03.000Z</time>
      </trkpt>
      <trkpt lat="50.72287" lon="5.19326">
        <ele>111.40000152588</ele>
        <time>2021-07-18T08:20:06.000Z</time>
      </trkpt>
      <trkpt lat="50.72287" lon="5.19338">
        <ele>111.40000152588</ele>
        <time>2021-07-18T08:20:07.000Z</time>
      </trkpt>
      <trkpt lat="50.72287" lon="5.1942">
        <ele>112.19999694824</ele>
        <time>2021-07-18T08:20:14.000Z</time>
      </trkpt>
      <trkpt lat="50.72287" lon="5.19444">
        <ele>112.19999694824</ele>
        <time>2021-07-18T08:20:16.000Z</time>
      </trkpt>
      <trkpt lat="50.72287" lon="5.19456">
        <ele>112.19999694824</ele>
        <time>2021-07-18T08:20:17.000Z</time>
      </trkpt>
      <trkpt lat="50.72287" lon="5.19467">
        <ele>112.19999694824</ele>
        <time>2021-07-18T08:20:18.000Z</time>
      </trkpt>
      <trkpt lat="50.72285" lon="5.19557">
        <ele>113.19999694824</ele>
        <time>2021-07-18T08:20:26.000Z</time>
      </trkpt>
      <trkpt lat="50.72285" lon="5.19579">
        <ele>113.80000305176</ele>
        <time>2021-07-18T08:20:28.000Z</time>
      </trkpt>
      <trkpt lat="50.72283" lon="5.19633">
        <ele>114.40000152588</ele>
        <time>2021-07-18T08:20:33.000Z</time>
      </trkpt>
      <trkpt lat="50.72282" lon="5.19644">
        <ele>114.40000152588</ele>
        <time>2021-07-18T08:20:34.000Z</time>
      </trkpt>
      <trkpt lat="50.7228" lon="5.19676">
        <ele>114.80000305176</ele>
        <time>2021-07-18T08:20:37.000Z</time>
      </trkpt>
      <trkpt lat="50.72278" lon="5.19697">
        <ele>115.19999694824</ele>
        <time>2021-07-18T08:20:39.000Z</time>
      </trkpt>
      <trkpt lat="50.72272" lon="5.19759">
        <ele>116</ele>
        <time>2021-07-18T08:20:45.000Z</time>
      </trkpt>
      <trkpt lat="50.72271" lon="5.19769">
        <ele>116.19999694824</ele>
        <time>2021-07-18T08:20:46.000Z</time>
      </trkpt>
      <trkpt lat="50.72262" lon="5.19861">
        <ele>117.80000305176</ele>
        <time>2021-07-18T08:20:55.000Z</time>
      </trkpt>
      <trkpt lat="50.7226" lon="5.19883">
        <ele>118.40000152588</ele>
        <time>2021-07-18T08:20:57.000Z</time>
      </trkpt>
      <trkpt lat="50.72259" lon="5.19893">
        <ele>118.80000305176</ele>
        <time>2021-07-18T08:20:58.000Z</time>
      </trkpt>
      <trkpt lat="50.72248" lon="5.1998">
        <ele>119.19999694824</ele>
        <time>2021-07-18T08:21:06.000Z</time>
      </trkpt>
      <trkpt lat="50.72243" lon="5.20014">
        <ele>119.19999694824</ele>
        <time>2021-07-18T08:21:09.000Z</time>
      </trkpt>
      <trkpt lat="50.72241" lon="5.20025">
        <ele>119.19999694824</ele>
        <time>2021-07-18T08:21:10.000Z</time>
      </trkpt>
      <trkpt lat="50.72228" lon="5.20093">
        <ele>119</ele>
        <time>2021-07-18T08:21:16.000Z</time>
      </trkpt>
      <trkpt lat="50.72208" lon="5.20161">
        <ele>118.19999694824</ele>
        <time>2021-07-18T08:21:22.000Z</time>
      </trkpt>
      <trkpt lat="50.72204" lon="5.20172">
        <ele>118</ele>
        <time>2021-07-18T08:21:23.000Z</time>
      </trkpt>
      <trkpt lat="50.72176" lon="5.20247">
        <ele>117.40000152588</ele>
        <time>2021-07-18T08:21:30.000Z</time>
      </trkpt>
      <trkpt lat="50.72171" lon="5.20257">
        <ele>117.40000152588</ele>
        <time>2021-07-18T08:21:31.000Z</time>
      </trkpt>
      <trkpt lat="50.72167" lon="5.20267">
        <ele>117.40000152588</ele>
        <time>2021-07-18T08:21:32.000Z</time>
      </trkpt>
      <trkpt lat="50.72132" lon="5.20336">
        <ele>117</ele>
        <time>2021-07-18T08:21:39.000Z</time>
      </trkpt>
      <trkpt lat="50.72122" lon="5.20355">
        <ele>116.80000305176</ele>
        <time>2021-07-18T08:21:41.000Z</time>
      </trkpt>
      <trkpt lat="50.7209" lon="5.20424">
        <ele>116</ele>
        <time>2021-07-18T08:21:48.000Z</time>
      </trkpt>
      <trkpt lat="50.72087" lon="5.20435">
        <ele>116</ele>
        <time>2021-07-18T08:21:49.000Z</time>
      </trkpt>
      <trkpt lat="50.72085" lon="5.20447">
        <ele>115.80000305176</ele>
        <time>2021-07-18T08:21:50.000Z</time>
      </trkpt>
      <trkpt lat="50.72083" lon="5.20483">
        <ele>115.80000305176</ele>
        <time>2021-07-18T08:21:53.000Z</time>
      </trkpt>
      <trkpt lat="50.72088" lon="5.20553">
        <ele>115.59999847412</ele>
        <time>2021-07-18T08:21:59.000Z</time>
      </trkpt>
      <trkpt lat="50.72095" lon="5.20635">
        <ele>115.59999847412</ele>
        <time>2021-07-18T08:22:06.000Z</time>
      </trkpt>
      <trkpt lat="50.72095" lon="5.20658">
        <ele>115.40000152588</ele>
        <time>2021-07-18T08:22:08.000Z</time>
      </trkpt>
      <trkpt lat="50.72096" lon="5.20681">
        <ele>115.59999847412</ele>
        <time>2021-07-18T08:22:10.000Z</time>
      </trkpt>
      <trkpt lat="50.72095" lon="5.20763">
        <ele>116</ele>
        <time>2021-07-18T08:22:17.000Z</time>
      </trkpt>
      <trkpt lat="50.72093" lon="5.20856">
        <ele>116.40000152588</ele>
        <time>2021-07-18T08:22:25.000Z</time>
      </trkpt>
      <trkpt lat="50.72092" lon="5.20879">
        <ele>116.40000152588</ele>
        <time>2021-07-18T08:22:27.000Z</time>
      </trkpt>
      <trkpt lat="50.72091" lon="5.20926">
        <ele>116.40000152588</ele>
        <time>2021-07-18T08:22:31.000Z</time>
      </trkpt>
      <trkpt lat="50.72089" lon="5.20972">
        <ele>116.40000152588</ele>
        <time>2021-07-18T08:22:35.000Z</time>
      </trkpt>
      <trkpt lat="50.72087" lon="5.20984">
        <ele>116.40000152588</ele>
        <time>2021-07-18T08:22:36.000Z</time>
      </trkpt>
      <trkpt lat="50.7208" lon="5.21007">
        <ele>116.19999694824</ele>
        <time>2021-07-18T08:22:38.000Z</time>
      </trkpt>
      <trkpt lat="50.72075" lon="5.21017">
        <ele>116</ele>
        <time>2021-07-18T08:22:39.000Z</time>
      </trkpt>
      <trkpt lat="50.72046" lon="5.21087">
        <ele>115.59999847412</ele>
        <time>2021-07-18T08:22:46.000Z</time>
      </trkpt>
      <trkpt lat="50.72042" lon="5.21096">
        <ele>115.19999694824</ele>
        <time>2021-07-18T08:22:47.000Z</time>
      </trkpt>
      <trkpt lat="50.72027" lon="5.21134">
        <ele>115</ele>
        <time>2021-07-18T08:22:51.000Z</time>
      </trkpt>
      <trkpt lat="50.72015" lon="5.21161">
        <ele>115</ele>
        <time>2021-07-18T08:22:54.000Z</time>
      </trkpt>
      <trkpt lat="50.71993" lon="5.21219">
        <ele>115.80000305176</ele>
        <time>2021-07-18T08:23:01.000Z</time>
      </trkpt>
      <trkpt lat="50.7199" lon="5.21227">
        <ele>116</ele>
        <time>2021-07-18T08:23:02.000Z</time>
      </trkpt>
      <trkpt lat="50.71968" lon="5.21281">
        <ele>116.40000152588</ele>
        <time>2021-07-18T08:23:09.000Z</time>
      </trkpt>
      <trkpt lat="50.71956" lon="5.21316">
        <ele>117</ele>
        <time>2021-07-18T08:23:13.000Z</time>
      </trkpt>
      <trkpt lat="50.71947" lon="5.21349">
        <ele>117.19999694824</ele>
        <time>2021-07-18T08:23:17.000Z</time>
      </trkpt>
      <trkpt lat="50.7193" lon="5.21399">
        <ele>118</ele>
        <time>2021-07-18T08:23:23.000Z</time>
      </trkpt>
      <trkpt lat="50.71927" lon="5.21407">
        <ele>118.59999847412</ele>
        <time>2021-07-18T08:23:24.000Z</time>
      </trkpt>
      <trkpt lat="50.71908" lon="5.21455">
        <ele>119.19999694824</ele>
        <time>2021-07-18T08:23:30.000Z</time>
      </trkpt>
      <trkpt lat="50.71898" lon="5.21479">
        <ele>119.59999847412</ele>
        <time>2021-07-18T08:23:33.000Z</time>
      </trkpt>
      <trkpt lat="50.71889" lon="5.21503">
        <ele>120.19999694824</ele>
        <time>2021-07-18T08:23:36.000Z</time>
      </trkpt>
      <trkpt lat="50.71869" lon="5.21553">
        <ele>121</ele>
        <time>2021-07-18T08:23:42.000Z</time>
      </trkpt>
      <trkpt lat="50.71863" lon="5.2157">
        <ele>121.19999694824</ele>
        <time>2021-07-18T08:23:44.000Z</time>
      </trkpt>
      <trkpt lat="50.71847" lon="5.21612">
        <ele>122.19999694824</ele>
        <time>2021-07-18T08:23:49.000Z</time>
      </trkpt>
      <trkpt lat="50.71839" lon="5.21638">
        <ele>122.80000305176</ele>
        <time>2021-07-18T08:23:52.000Z</time>
      </trkpt>
      <trkpt lat="50.71834" lon="5.21655">
        <ele>123.19999694824</ele>
        <time>2021-07-18T08:23:54.000Z</time>
      </trkpt>
      <trkpt lat="50.71825" lon="5.2169">
        <ele>123.80000305176</ele>
        <time>2021-07-18T08:23:58.000Z</time>
      </trkpt>
      <trkpt lat="50.71818" lon="5.21715">
        <ele>124.40000152588</ele>
        <time>2021-07-18T08:24:01.000Z</time>
      </trkpt>
      <trkpt lat="50.71816" lon="5.21723">
        <ele>124.59999847412</ele>
        <time>2021-07-18T08:24:02.000Z</time>
      </trkpt>
      <trkpt lat="50.71801" lon="5.21781">
        <ele>126.19999694824</ele>
        <time>2021-07-18T08:24:09.000Z</time>
      </trkpt>
      <trkpt lat="50.71797" lon="5.21797">
        <ele>126.80000305176</ele>
        <time>2021-07-18T08:24:11.000Z</time>
      </trkpt>
      <trkpt lat="50.71793" lon="5.21813">
        <ele>127.59999847412</ele>
        <time>2021-07-18T08:24:13.000Z</time>
      </trkpt>
      <trkpt lat="50.71782" lon="5.21856">
        <ele>129</ele>
        <time>2021-07-18T08:24:18.000Z</time>
      </trkpt>
      <trkpt lat="50.71778" lon="5.21874">
        <ele>129.60000610352</ele>
        <time>2021-07-18T08:24:20.000Z</time>
      </trkpt>
      <trkpt lat="50.7176" lon="5.21947">
        <ele>131.80000305176</ele>
        <time>2021-07-18T08:24:28.000Z</time>
      </trkpt>
      <trkpt lat="50.71748" lon="5.21995">
        <ele>132.39999389648</ele>
        <time>2021-07-18T08:24:33.000Z</time>
      </trkpt>
      <trkpt lat="50.7174" lon="5.22025">
        <ele>132.60000610352</ele>
        <time>2021-07-18T08:24:36.000Z</time>
      </trkpt>
      <trkpt lat="50.71718" lon="5.22107">
        <ele>133</ele>
        <time>2021-07-18T08:24:44.000Z</time>
      </trkpt>
      <trkpt lat="50.71712" lon="5.22128">
        <ele>133.19999694824</ele>
        <time>2021-07-18T08:24:46.000Z</time>
      </trkpt>
      <trkpt lat="50.71688" lon="5.22212">
        <ele>133.39999389648</ele>
        <time>2021-07-18T08:24:54.000Z</time>
      </trkpt>
      <trkpt lat="50.71662" lon="5.22297">
        <ele>133.60000610352</ele>
        <time>2021-07-18T08:25:02.000Z</time>
      </trkpt>
      <trkpt lat="50.71656" lon="5.2232">
        <ele>133.60000610352</ele>
        <time>2021-07-18T08:25:04.000Z</time>
      </trkpt>
      <trkpt lat="50.71649" lon="5.22342">
        <ele>133.39999389648</ele>
        <time>2021-07-18T08:25:06.000Z</time>
      </trkpt>
      <trkpt lat="50.71638" lon="5.22377">
        <ele>133.39999389648</ele>
        <time>2021-07-18T08:25:09.000Z</time>
      </trkpt>
      <trkpt lat="50.71621" lon="5.22436">
        <ele>132.80000305176</ele>
        <time>2021-07-18T08:25:14.000Z</time>
      </trkpt>
      <trkpt lat="50.716" lon="5.22508">
        <ele>130.80000305176</ele>
        <time>2021-07-18T08:25:20.000Z</time>
      </trkpt>
      <trkpt lat="50.71585" lon="5.22556">
        <ele>130.19999694824</ele>
        <time>2021-07-18T08:25:24.000Z</time>
      </trkpt>
      <trkpt lat="50.71582" lon="5.22568">
        <ele>129.80000305176</ele>
        <time>2021-07-18T08:25:25.000Z</time>
      </trkpt>
      <trkpt lat="50.71564" lon="5.22627">
        <ele>129</ele>
        <time>2021-07-18T08:25:30.000Z</time>
      </trkpt>
      <trkpt lat="50.71549" lon="5.22676">
        <ele>127.80000305176</ele>
        <time>2021-07-18T08:25:34.000Z</time>
      </trkpt>
      <trkpt lat="50.71542" lon="5.22699">
        <ele>127.40000152588</ele>
        <time>2021-07-18T08:25:36.000Z</time>
      </trkpt>
      <trkpt lat="50.71525" lon="5.22758">
        <ele>126.40000152588</ele>
        <time>2021-07-18T08:25:41.000Z</time>
      </trkpt>
      <trkpt lat="50.71507" lon="5.22817">
        <ele>125.40000152588</ele>
        <time>2021-07-18T08:25:46.000Z</time>
      </trkpt>
      <trkpt lat="50.71481" lon="5.22902">
        <ele>124</ele>
        <time>2021-07-18T08:25:53.000Z</time>
      </trkpt>
      <trkpt lat="50.71474" lon="5.22925">
        <ele>123.59999847412</ele>
        <time>2021-07-18T08:25:55.000Z</time>
      </trkpt>
      <trkpt lat="50.71463" lon="5.2296">
        <ele>123.59999847412</ele>
        <time>2021-07-18T08:25:58.000Z</time>
      </trkpt>
      <trkpt lat="50.71438" lon="5.23039">
        <ele>122.80000305176</ele>
        <time>2021-07-18T08:26:05.000Z</time>
      </trkpt>
      <trkpt lat="50.71434" lon="5.2305">
        <ele>122.59999847412</ele>
        <time>2021-07-18T08:26:06.000Z</time>
      </trkpt>
      <trkpt lat="50.71429" lon="5.23061">
        <ele>122.59999847412</ele>
        <time>2021-07-18T08:26:07.000Z</time>
      </trkpt>
      <trkpt lat="50.71425" lon="5.23071">
        <ele>122.40000152588</ele>
        <time>2021-07-18T08:26:08.000Z</time>
      </trkpt>
      <trkpt lat="50.71418" lon="5.23095">
        <ele>122.40000152588</ele>
        <time>2021-07-18T08:26:10.000Z</time>
      </trkpt>
      <trkpt lat="50.71415" lon="5.23107">
        <ele>122.40000152588</ele>
        <time>2021-07-18T08:26:11.000Z</time>
      </trkpt>
      <trkpt lat="50.71412" lon="5.23119">
        <ele>122.19999694824</ele>
        <time>2021-07-18T08:26:12.000Z</time>
      </trkpt>
      <trkpt lat="50.71398" lon="5.23164">
        <ele>122</ele>
        <time>2021-07-18T08:26:16.000Z</time>
      </trkpt>
      <trkpt lat="50.71382" lon="5.23207">
        <ele>121.59999847412</ele>
        <time>2021-07-18T08:26:20.000Z</time>
      </trkpt>
      <trkpt lat="50.71368" lon="5.23237">
        <ele>121.40000152588</ele>
        <time>2021-07-18T08:26:23.000Z</time>
      </trkpt>
      <trkpt lat="50.71355" lon="5.23266">
        <ele>121</ele>
        <time>2021-07-18T08:26:26.000Z</time>
      </trkpt>
      <trkpt lat="50.71346" lon="5.23285">
        <ele>121</ele>
        <time>2021-07-18T08:26:28.000Z</time>
      </trkpt>
      <trkpt lat="50.71338" lon="5.23305">
        <ele>121</ele>
        <time>2021-07-18T08:26:30.000Z</time>
      </trkpt>
      <trkpt lat="50.71317" lon="5.23363">
        <ele>120.80000305176</ele>
        <time>2021-07-18T08:26:36.000Z</time>
      </trkpt>
      <trkpt lat="50.71314" lon="5.23373">
        <ele>120.80000305176</ele>
        <time>2021-07-18T08:26:37.000Z</time>
      </trkpt>
      <trkpt lat="50.71284" lon="5.23451">
        <ele>121</ele>
        <time>2021-07-18T08:26:45.000Z</time>
      </trkpt>
      <trkpt lat="50.71281" lon="5.2346">
        <ele>121.19999694824</ele>
        <time>2021-07-18T08:26:46.000Z</time>
      </trkpt>
      <trkpt lat="50.71277" lon="5.2347">
        <ele>121.19999694824</ele>
        <time>2021-07-18T08:26:47.000Z</time>
      </trkpt>
      <trkpt lat="50.7126" lon="5.23518">
        <ele>122.19999694824</ele>
        <time>2021-07-18T08:26:52.000Z</time>
      </trkpt>
      <trkpt lat="50.71255" lon="5.23537">
        <ele>122.40000152588</ele>
        <time>2021-07-18T08:26:54.000Z</time>
      </trkpt>
      <trkpt lat="50.71252" lon="5.23556">
        <ele>123</ele>
        <time>2021-07-18T08:26:56.000Z</time>
      </trkpt>
      <trkpt lat="50.7125" lon="5.23573">
        <ele>123.19999694824</ele>
        <time>2021-07-18T08:26:58.000Z</time>
      </trkpt>
      <trkpt lat="50.71249" lon="5.23582">
        <ele>123.40000152588</ele>
        <time>2021-07-18T08:26:59.000Z</time>
      </trkpt>
      <trkpt lat="50.71249" lon="5.23591">
        <ele>123.19999694824</ele>
        <time>2021-07-18T08:27:00.000Z</time>
      </trkpt>
      <trkpt lat="50.7124" lon="5.23654">
        <ele>124.59999847412</ele>
        <time>2021-07-18T08:27:06.000Z</time>
      </trkpt>
      <trkpt lat="50.71238" lon="5.23664">
        <ele>124.59999847412</ele>
        <time>2021-07-18T08:27:07.000Z</time>
      </trkpt>
      <trkpt lat="50.71227" lon="5.23692">
        <ele>124.80000305176</ele>
        <time>2021-07-18T08:27:10.000Z</time>
      </trkpt>
      <trkpt lat="50.71215" lon="5.2372">
        <ele>124.80000305176</ele>
        <time>2021-07-18T08:27:13.000Z</time>
      </trkpt>
      <trkpt lat="50.71197" lon="5.2376">
        <ele>124.80000305176</ele>
        <time>2021-07-18T08:27:17.000Z</time>
      </trkpt>
      <trkpt lat="50.71192" lon="5.2377">
        <ele>124.80000305176</ele>
        <time>2021-07-18T08:27:18.000Z</time>
      </trkpt>
      <trkpt lat="50.71173" lon="5.23812">
        <ele>124.19999694824</ele>
        <time>2021-07-18T08:27:22.000Z</time>
      </trkpt>
      <trkpt lat="50.71158" lon="5.23845">
        <ele>123.19999694824</ele>
        <time>2021-07-18T08:27:25.000Z</time>
      </trkpt>
      <trkpt lat="50.71147" lon="5.23866">
        <ele>122.59999847412</ele>
        <time>2021-07-18T08:27:27.000Z</time>
      </trkpt>
      <trkpt lat="50.7114" lon="5.23875">
        <ele>122.40000152588</ele>
        <time>2021-07-18T08:27:28.000Z</time>
      </trkpt>
      <trkpt lat="50.71134" lon="5.23884">
        <ele>122</ele>
        <time>2021-07-18T08:27:29.000Z</time>
      </trkpt>
      <trkpt lat="50.71127" lon="5.23892">
        <ele>121.80000305176</ele>
        <time>2021-07-18T08:27:30.000Z</time>
      </trkpt>
      <trkpt lat="50.71085" lon="5.23935">
        <ele>119.80000305176</ele>
        <time>2021-07-18T08:27:36.000Z</time>
      </trkpt>
      <trkpt lat="50.71052" lon="5.23969">
        <ele>118.80000305176</ele>
        <time>2021-07-18T08:27:41.000Z</time>
      </trkpt>
      <trkpt lat="50.71046" lon="5.23976">
        <ele>118.59999847412</ele>
        <time>2021-07-18T08:27:42.000Z</time>
      </trkpt>
      <trkpt lat="50.71026" lon="5.23997">
        <ele>118.59999847412</ele>
        <time>2021-07-18T08:27:45.000Z</time>
      </trkpt>
      <trkpt lat="50.71001" lon="5.24028">
        <ele>118.40000152588</ele>
        <time>2021-07-18T08:27:49.000Z</time>
      </trkpt>
      <trkpt lat="50.70989" lon="5.24043">
        <ele>118.40000152588</ele>
        <time>2021-07-18T08:27:51.000Z</time>
      </trkpt>
      <trkpt lat="50.70948" lon="5.241">
        <ele>117.59999847412</ele>
        <time>2021-07-18T08:27:58.000Z</time>
      </trkpt>
      <trkpt lat="50.70938" lon="5.24115">
        <ele>117.59999847412</ele>
        <time>2021-07-18T08:28:00.000Z</time>
      </trkpt>
      <trkpt lat="50.70919" lon="5.24143">
        <ele>116.80000305176</ele>
        <time>2021-07-18T08:28:04.000Z</time>
      </trkpt>
      <trkpt lat="50.70914" lon="5.2415">
        <ele>116.80000305176</ele>
        <time>2021-07-18T08:28:05.000Z</time>
      </trkpt>
      <trkpt lat="50.7091" lon="5.24155">
        <ele>116.80000305176</ele>
        <time>2021-07-18T08:28:06.000Z</time>
      </trkpt>
      <trkpt lat="50.70898" lon="5.24162">
        <ele>116.59999847412</ele>
        <time>2021-07-18T08:28:08.000Z</time>
      </trkpt>
      <trkpt lat="50.70894" lon="5.24168">
        <ele>116.40000152588</ele>
        <time>2021-07-18T08:28:09.000Z</time>
      </trkpt>
      <trkpt lat="50.70892" lon="5.24176">
        <ele>116.40000152588</ele>
        <time>2021-07-18T08:28:10.000Z</time>
      </trkpt>
      <trkpt lat="50.70893" lon="5.24185">
        <ele>116.40000152588</ele>
        <time>2021-07-18T08:28:11.000Z</time>
      </trkpt>
      <trkpt lat="50.70895" lon="5.24191">
        <ele>116.40000152588</ele>
        <time>2021-07-18T08:28:12.000Z</time>
      </trkpt>
      <trkpt lat="50.70899" lon="5.24205">
        <ele>116.40000152588</ele>
        <time>2021-07-18T08:28:14.000Z</time>
      </trkpt>
      <trkpt lat="50.70899" lon="5.24212">
        <ele>116.40000152588</ele>
        <time>2021-07-18T08:28:15.000Z</time>
      </trkpt>
      <trkpt lat="50.70898" lon="5.2422">
        <ele>116.19999694824</ele>
        <time>2021-07-18T08:28:16.000Z</time>
      </trkpt>
      <trkpt lat="50.70896" lon="5.24229">
        <ele>116.40000152588</ele>
        <time>2021-07-18T08:28:17.000Z</time>
      </trkpt>
      <trkpt lat="50.70882" lon="5.24277">
        <ele>116.19999694824</ele>
        <time>2021-07-18T08:28:22.000Z</time>
      </trkpt>
      <trkpt lat="50.70872" lon="5.24317">
        <ele>116.19999694824</ele>
        <time>2021-07-18T08:28:26.000Z</time>
      </trkpt>
      <trkpt lat="50.70871" lon="5.24338">
        <ele>116.19999694824</ele>
        <time>2021-07-18T08:28:28.000Z</time>
      </trkpt>
      <trkpt lat="50.7087" lon="5.24421">
        <ele>116.40000152588</ele>
        <time>2021-07-18T08:28:36.000Z</time>
      </trkpt>
      <trkpt lat="50.70866" lon="5.24471">
        <ele>116.59999847412</ele>
        <time>2021-07-18T08:28:41.000Z</time>
      </trkpt>
      <trkpt lat="50.70862" lon="5.24516">
        <ele>116.80000305176</ele>
        <time>2021-07-18T08:28:45.000Z</time>
      </trkpt>
      <trkpt lat="50.70863" lon="5.24527">
        <ele>116.80000305176</ele>
        <time>2021-07-18T08:28:46.000Z</time>
      </trkpt>
      <trkpt lat="50.70864" lon="5.24539">
        <ele>116.80000305176</ele>
        <time>2021-07-18T08:28:47.000Z</time>
      </trkpt>
      <trkpt lat="50.70871" lon="5.246">
        <ele>116.59999847412</ele>
        <time>2021-07-18T08:28:52.000Z</time>
      </trkpt>
      <trkpt lat="50.70866" lon="5.24623">
        <ele>116.19999694824</ele>
        <time>2021-07-18T08:28:54.000Z</time>
      </trkpt>
      <trkpt lat="50.70862" lon="5.24633">
        <ele>116</ele>
        <time>2021-07-18T08:28:55.000Z</time>
      </trkpt>
      <trkpt lat="50.70856" lon="5.24642">
        <ele>116.19999694824</ele>
        <time>2021-07-18T08:28:56.000Z</time>
      </trkpt>
      <trkpt lat="50.70836" lon="5.24665">
        <ele>115.19999694824</ele>
        <time>2021-07-18T08:28:59.000Z</time>
      </trkpt>
      <trkpt lat="50.70796" lon="5.24709">
        <ele>113.59999847412</ele>
        <time>2021-07-18T08:29:05.000Z</time>
      </trkpt>
      <trkpt lat="50.70791" lon="5.24718">
        <ele>113.59999847412</ele>
        <time>2021-07-18T08:29:06.000Z</time>
      </trkpt>
      <trkpt lat="50.70787" lon="5.24729">
        <ele>113.40000152588</ele>
        <time>2021-07-18T08:29:07.000Z</time>
      </trkpt>
      <trkpt lat="50.70786" lon="5.24753">
        <ele>113</ele>
        <time>2021-07-18T08:29:09.000Z</time>
      </trkpt>
      <trkpt lat="50.70788" lon="5.2483">
        <ele>112.59999847412</ele>
        <time>2021-07-18T08:29:15.000Z</time>
      </trkpt>
      <trkpt lat="50.70788" lon="5.24842">
        <ele>112.59999847412</ele>
        <time>2021-07-18T08:29:16.000Z</time>
      </trkpt>
      <trkpt lat="50.70793" lon="5.24922">
        <ele>112.80000305176</ele>
        <time>2021-07-18T08:29:23.000Z</time>
      </trkpt>
      <trkpt lat="50.7079" lon="5.24975">
        <ele>113.40000152588</ele>
        <time>2021-07-18T08:29:28.000Z</time>
      </trkpt>
      <trkpt lat="50.70792" lon="5.24985">
        <ele>113.80000305176</ele>
        <time>2021-07-18T08:29:29.000Z</time>
      </trkpt>
      <trkpt lat="50.70794" lon="5.24995">
        <ele>114.19999694824</ele>
        <time>2021-07-18T08:29:30.000Z</time>
      </trkpt>
      <trkpt lat="50.70803" lon="5.25012">
        <ele>114.80000305176</ele>
        <time>2021-07-18T08:29:32.000Z</time>
      </trkpt>
      <trkpt lat="50.7084" lon="5.25065">
        <ele>115.19999694824</ele>
        <time>2021-07-18T08:29:39.000Z</time>
      </trkpt>
      <trkpt lat="50.70859" lon="5.25113">
        <ele>115.40000152588</ele>
        <time>2021-07-18T08:29:44.000Z</time>
      </trkpt>
      <trkpt lat="50.70881" lon="5.25197">
        <ele>115.40000152588</ele>
        <time>2021-07-18T08:29:52.000Z</time>
      </trkpt>
      <trkpt lat="50.70884" lon="5.25208">
        <ele>115.40000152588</ele>
        <time>2021-07-18T08:29:53.000Z</time>
      </trkpt>
      <trkpt lat="50.70903" lon="5.2529">
        <ele>115.19999694824</ele>
        <time>2021-07-18T08:30:01.000Z</time>
      </trkpt>
      <trkpt lat="50.70908" lon="5.2531">
        <ele>115.19999694824</ele>
        <time>2021-07-18T08:30:03.000Z</time>
      </trkpt>
      <trkpt lat="50.70913" lon="5.25329">
        <ele>115.19999694824</ele>
        <time>2021-07-18T08:30:05.000Z</time>
      </trkpt>
      <trkpt lat="50.70924" lon="5.25374">
        <ele>115.59999847412</ele>
        <time>2021-07-18T08:30:10.000Z</time>
      </trkpt>
      <trkpt lat="50.70926" lon="5.25383">
        <ele>115.59999847412</ele>
        <time>2021-07-18T08:30:11.000Z</time>
      </trkpt>
      <trkpt lat="50.70949" lon="5.25465">
        <ele>117.40000152588</ele>
        <time>2021-07-18T08:30:20.000Z</time>
      </trkpt>
      <trkpt lat="50.70953" lon="5.25485">
        <ele>117.80000305176</ele>
        <time>2021-07-18T08:30:22.000Z</time>
      </trkpt>
      <trkpt lat="50.70963" lon="5.25526">
        <ele>118.19999694824</ele>
        <time>2021-07-18T08:30:26.000Z</time>
      </trkpt>
      <trkpt lat="50.70972" lon="5.25562">
        <ele>118</ele>
        <time>2021-07-18T08:30:30.000Z</time>
      </trkpt>
      <trkpt lat="50.70984" lon="5.2559">
        <ele>117.59999847412</ele>
        <time>2021-07-18T08:30:35.000Z</time>
      </trkpt>
      <trkpt lat="50.70993" lon="5.25615">
        <ele>117</ele>
        <time>2021-07-18T08:30:41.000Z</time>
      </trkpt>
      <trkpt lat="50.70997" lon="5.25625">
        <ele>116.80000305176</ele>
        <time>2021-07-18T08:30:43.000Z</time>
      </trkpt>
      <trkpt lat="50.70999" lon="5.25632">
        <ele>116.59999847412</ele>
        <time>2021-07-18T08:30:44.000Z</time>
      </trkpt>
      <trkpt lat="50.71002" lon="5.25647">
        <ele>116.59999847412</ele>
        <time>2021-07-18T08:30:46.000Z</time>
      </trkpt>
      <trkpt lat="50.71017" lon="5.25712">
        <ele>116.40000152588</ele>
        <time>2021-07-18T08:30:53.000Z</time>
      </trkpt>
      <trkpt lat="50.7102" lon="5.25722">
        <ele>116.40000152588</ele>
        <time>2021-07-18T08:30:54.000Z</time>
      </trkpt>
      <trkpt lat="50.71038" lon="5.25771">
        <ele>116.19999694824</ele>
        <time>2021-07-18T08:30:59.000Z</time>
      </trkpt>
      <trkpt lat="50.71046" lon="5.25791">
        <ele>116.19999694824</ele>
        <time>2021-07-18T08:31:01.000Z</time>
      </trkpt>
      <trkpt lat="50.71069" lon="5.25847">
        <ele>114.80000305176</ele>
        <time>2021-07-18T08:31:07.000Z</time>
      </trkpt>
      <trkpt lat="50.71073" lon="5.25857">
        <ele>114.59999847412</ele>
        <time>2021-07-18T08:31:08.000Z</time>
      </trkpt>
      <trkpt lat="50.71101" lon="5.25912">
        <ele>113.59999847412</ele>
        <time>2021-07-18T08:31:14.000Z</time>
      </trkpt>
      <trkpt lat="50.71115" lon="5.25939">
        <ele>113.19999694824</ele>
        <time>2021-07-18T08:31:17.000Z</time>
      </trkpt>
      <trkpt lat="50.71143" lon="5.25982">
        <ele>112.19999694824</ele>
        <time>2021-07-18T08:31:22.000Z</time>
      </trkpt>
      <trkpt lat="50.71178" lon="5.26045">
        <ele>110.80000305176</ele>
        <time>2021-07-18T08:31:29.000Z</time>
      </trkpt>
      <trkpt lat="50.71211" lon="5.26124">
        <ele>110.40000152588</ele>
        <time>2021-07-18T08:31:37.000Z</time>
      </trkpt>
      <trkpt lat="50.71225" lon="5.2618">
        <ele>110.19999694824</ele>
        <time>2021-07-18T08:31:42.000Z</time>
      </trkpt>
      <trkpt lat="50.71236" lon="5.26262">
        <ele>110.19999694824</ele>
        <time>2021-07-18T08:31:49.000Z</time>
      </trkpt>
      <trkpt lat="50.71247" lon="5.26354">
        <ele>110.80000305176</ele>
        <time>2021-07-18T08:31:57.000Z</time>
      </trkpt>
      <trkpt lat="50.71249" lon="5.26366">
        <ele>111</ele>
        <time>2021-07-18T08:31:58.000Z</time>
      </trkpt>
      <trkpt lat="50.71252" lon="5.26388">
        <ele>111.19999694824</ele>
        <time>2021-07-18T08:32:00.000Z</time>
      </trkpt>
      <trkpt lat="50.71264" lon="5.26478">
        <ele>111.80000305176</ele>
        <time>2021-07-18T08:32:08.000Z</time>
      </trkpt>
      <trkpt lat="50.71266" lon="5.26489">
        <ele>112</ele>
        <time>2021-07-18T08:32:09.000Z</time>
      </trkpt>
      <trkpt lat="50.71267" lon="5.265">
        <ele>112</ele>
        <time>2021-07-18T08:32:10.000Z</time>
      </trkpt>
      <trkpt lat="50.71272" lon="5.26531">
        <ele>112.59999847412</ele>
        <time>2021-07-18T08:32:13.000Z</time>
      </trkpt>
      <trkpt lat="50.71276" lon="5.26552">
        <ele>113</ele>
        <time>2021-07-18T08:32:15.000Z</time>
      </trkpt>
      <trkpt lat="50.7128" lon="5.26573">
        <ele>113</ele>
        <time>2021-07-18T08:32:17.000Z</time>
      </trkpt>
      <trkpt lat="50.71288" lon="5.26605">
        <ele>113.19999694824</ele>
        <time>2021-07-18T08:32:20.000Z</time>
      </trkpt>
      <trkpt lat="50.713" lon="5.26649">
        <ele>113.19999694824</ele>
        <time>2021-07-18T08:32:24.000Z</time>
      </trkpt>
      <trkpt lat="50.71308" lon="5.2667">
        <ele>113.19999694824</ele>
        <time>2021-07-18T08:32:26.000Z</time>
      </trkpt>
      <trkpt lat="50.7133" lon="5.26732">
        <ele>112.80000305176</ele>
        <time>2021-07-18T08:32:32.000Z</time>
      </trkpt>
      <trkpt lat="50.71337" lon="5.26752">
        <ele>112.59999847412</ele>
        <time>2021-07-18T08:32:34.000Z</time>
      </trkpt>
      <trkpt lat="50.71357" lon="5.2681">
        <ele>112</ele>
        <time>2021-07-18T08:32:40.000Z</time>
      </trkpt>
      <trkpt lat="50.71361" lon="5.2682">
        <ele>112</ele>
        <time>2021-07-18T08:32:41.000Z</time>
      </trkpt>
      <trkpt lat="50.71375" lon="5.26873">
        <ele>112.19999694824</ele>
        <time>2021-07-18T08:32:47.000Z</time>
      </trkpt>
      <trkpt lat="50.71372" lon="5.26889">
        <ele>112.40000152588</ele>
        <time>2021-07-18T08:32:49.000Z</time>
      </trkpt>
      <trkpt lat="50.71355" lon="5.26906">
        <ele>112.80000305176</ele>
        <time>2021-07-18T08:32:52.000Z</time>
      </trkpt>
      <trkpt lat="50.71337" lon="5.26927">
        <ele>112.59999847412</ele>
        <time>2021-07-18T08:32:55.000Z</time>
      </trkpt>
      <trkpt lat="50.71324" lon="5.26944">
        <ele>112.59999847412</ele>
        <time>2021-07-18T08:32:57.000Z</time>
      </trkpt>
      <trkpt lat="50.71318" lon="5.26953">
        <ele>112.59999847412</ele>
        <time>2021-07-18T08:32:58.000Z</time>
      </trkpt>
      <trkpt lat="50.71301" lon="5.26983">
        <ele>112.40000152588</ele>
        <time>2021-07-18T08:33:01.000Z</time>
      </trkpt>
      <trkpt lat="50.71295" lon="5.26992">
        <ele>112.40000152588</ele>
        <time>2021-07-18T08:33:02.000Z</time>
      </trkpt>
      <trkpt lat="50.71289" lon="5.27002">
        <ele>112.40000152588</ele>
        <time>2021-07-18T08:33:03.000Z</time>
      </trkpt>
      <trkpt lat="50.71274" lon="5.27017">
        <ele>111.40000152588</ele>
        <time>2021-07-18T08:33:05.000Z</time>
      </trkpt>
      <trkpt lat="50.71266" lon="5.27023">
        <ele>111.19999694824</ele>
        <time>2021-07-18T08:33:06.000Z</time>
      </trkpt>
      <trkpt lat="50.71258" lon="5.27028">
        <ele>110.59999847412</ele>
        <time>2021-07-18T08:33:07.000Z</time>
      </trkpt>
      <trkpt lat="50.71221" lon="5.27047">
        <ele>108.80000305176</ele>
        <time>2021-07-18T08:33:12.000Z</time>
      </trkpt>
      <trkpt lat="50.71214" lon="5.27051">
        <ele>108.19999694824</ele>
        <time>2021-07-18T08:33:13.000Z</time>
      </trkpt>
      <trkpt lat="50.71208" lon="5.27057">
        <ele>107.59999847412</ele>
        <time>2021-07-18T08:33:14.000Z</time>
      </trkpt>
      <trkpt lat="50.71194" lon="5.2707">
        <ele>107</ele>
        <time>2021-07-18T08:33:16.000Z</time>
      </trkpt>
      <trkpt lat="50.71144" lon="5.2712">
        <ele>106.19999694824</ele>
        <time>2021-07-18T08:33:23.000Z</time>
      </trkpt>
      <trkpt lat="50.71113" lon="5.27149">
        <ele>106.19999694824</ele>
        <time>2021-07-18T08:33:27.000Z</time>
      </trkpt>
      <trkpt lat="50.71097" lon="5.27166">
        <ele>106</ele>
        <time>2021-07-18T08:33:29.000Z</time>
      </trkpt>
      <trkpt lat="50.71052" lon="5.27199">
        <ele>105.80000305176</ele>
        <time>2021-07-18T08:33:34.000Z</time>
      </trkpt>
      <trkpt lat="50.71032" lon="5.27207">
        <ele>105.59999847412</ele>
        <time>2021-07-18T08:33:36.000Z</time>
      </trkpt>
      <trkpt lat="50.71005" lon="5.27217">
        <ele>105.80000305176</ele>
        <time>2021-07-18T08:33:39.000Z</time>
      </trkpt>
      <trkpt lat="50.70997" lon="5.27222">
        <ele>105.80000305176</ele>
        <time>2021-07-18T08:33:40.000Z</time>
      </trkpt>
      <trkpt lat="50.70988" lon="5.27239">
        <ele>105.80000305176</ele>
        <time>2021-07-18T08:33:42.000Z</time>
      </trkpt>
      <trkpt lat="50.70992" lon="5.27263">
        <ele>106</ele>
        <time>2021-07-18T08:33:44.000Z</time>
      </trkpt>
      <trkpt lat="50.71" lon="5.27287">
        <ele>106.40000152588</ele>
        <time>2021-07-18T08:33:46.000Z</time>
      </trkpt>
      <trkpt lat="50.7101" lon="5.27311">
        <ele>106.80000305176</ele>
        <time>2021-07-18T08:33:48.000Z</time>
      </trkpt>
      <trkpt lat="50.71031" lon="5.27351">
        <ele>107</ele>
        <time>2021-07-18T08:33:51.000Z</time>
      </trkpt>
      <trkpt lat="50.71043" lon="5.27381">
        <ele>107</ele>
        <time>2021-07-18T08:33:53.000Z</time>
      </trkpt>
      <trkpt lat="50.71053" lon="5.27414">
        <ele>107</ele>
        <time>2021-07-18T08:33:55.000Z</time>
      </trkpt>
      <trkpt lat="50.71057" lon="5.27431">
        <ele>107.19999694824</ele>
        <time>2021-07-18T08:33:56.000Z</time>
      </trkpt>
      <trkpt lat="50.7106" lon="5.27449">
        <ele>106.80000305176</ele>
        <time>2021-07-18T08:33:57.000Z</time>
      </trkpt>
      <trkpt lat="50.71062" lon="5.27501">
        <ele>106.19999694824</ele>
        <time>2021-07-18T08:34:00.000Z</time>
      </trkpt>
      <trkpt lat="50.71061" lon="5.27518">
        <ele>105.59999847412</ele>
        <time>2021-07-18T08:34:01.000Z</time>
      </trkpt>
      <trkpt lat="50.71053" lon="5.27612">
        <ele>103.59999847412</ele>
        <time>2021-07-18T08:34:07.000Z</time>
      </trkpt>
      <trkpt lat="50.71052" lon="5.27626">
        <ele>103.40000152588</ele>
        <time>2021-07-18T08:34:08.000Z</time>
      </trkpt>
      <trkpt lat="50.71044" lon="5.27717">
        <ele>103.40000152588</ele>
        <time>2021-07-18T08:34:15.000Z</time>
      </trkpt>
      <trkpt lat="50.71037" lon="5.27799">
        <ele>103.80000305176</ele>
        <time>2021-07-18T08:34:22.000Z</time>
      </trkpt>
      <trkpt lat="50.71032" lon="5.27852">
        <ele>104.59999847412</ele>
        <time>2021-07-18T08:34:27.000Z</time>
      </trkpt>
      <trkpt lat="50.71025" lon="5.27859">
        <ele>104.80000305176</ele>
        <time>2021-07-18T08:34:29.000Z</time>
      </trkpt>
      <trkpt lat="50.71021" lon="5.27858">
        <ele>104.80000305176</ele>
        <time>2021-07-18T08:34:30.000Z</time>
      </trkpt>
      <trkpt lat="50.71015" lon="5.27854">
        <ele>105.40000152588</ele>
        <time>2021-07-18T08:34:34.000Z</time>
        <extensions>
          <visugpx:TrkExtension xmlns:visugpx="https://www.visugpx.com/editgpx/">
            <visugpx:etape>Les Écuyers à Oleye.</visugpx:etape>
            </visugpx:TrkExtension>
        </extensions>
      </trkpt>
      <trkpt lat="50.71014" lon="5.27826">
        <ele>106.59999847412</ele>
        <time>2021-07-18T09:08:30.000Z</time>
      </trkpt>
      <trkpt lat="50.7101" lon="5.27822">
        <ele>106.40000152588</ele>
        <time>2021-07-18T09:08:33.000Z</time>
      </trkpt>
      <trkpt lat="50.71001" lon="5.27812">
        <ele>106.40000152588</ele>
        <time>2021-07-18T09:08:37.000Z</time>
      </trkpt>
      <trkpt lat="50.7098" lon="5.2779">
        <ele>106.59999847412</ele>
        <time>2021-07-18T09:08:43.000Z</time>
      </trkpt>
      <trkpt lat="50.70953" lon="5.27765">
        <ele>106.80000305176</ele>
        <time>2021-07-18T09:08:49.000Z</time>
      </trkpt>
      <trkpt lat="50.70912" lon="5.27734">
        <ele>107.19999694824</ele>
        <time>2021-07-18T09:08:56.000Z</time>
      </trkpt>
      <trkpt lat="50.70888" lon="5.27709">
        <ele>107.19999694824</ele>
        <time>2021-07-18T09:09:00.000Z</time>
      </trkpt>
      <trkpt lat="50.70877" lon="5.27694">
        <ele>107.19999694824</ele>
        <time>2021-07-18T09:09:02.000Z</time>
      </trkpt>
      <trkpt lat="50.70866" lon="5.2768">
        <ele>107.40000152588</ele>
        <time>2021-07-18T09:09:04.000Z</time>
      </trkpt>
      <trkpt lat="50.7085" lon="5.27662">
        <ele>107.40000152588</ele>
        <time>2021-07-18T09:09:07.000Z</time>
      </trkpt>
      <trkpt lat="50.7084" lon="5.2765">
        <ele>107.59999847412</ele>
        <time>2021-07-18T09:09:09.000Z</time>
      </trkpt>
      <trkpt lat="50.70835" lon="5.27645">
        <ele>107.80000305176</ele>
        <time>2021-07-18T09:09:10.000Z</time>
      </trkpt>
      <trkpt lat="50.70823" lon="5.2763">
        <ele>108</ele>
        <time>2021-07-18T09:09:13.000Z</time>
      </trkpt>
      <trkpt lat="50.70803" lon="5.27605">
        <ele>108.80000305176</ele>
        <time>2021-07-18T09:09:18.000Z</time>
      </trkpt>
      <trkpt lat="50.70796" lon="5.27593">
        <ele>109</ele>
        <time>2021-07-18T09:09:20.000Z</time>
      </trkpt>
      <trkpt lat="50.70786" lon="5.27574">
        <ele>109.19999694824</ele>
        <time>2021-07-18T09:09:23.000Z</time>
      </trkpt>
      <trkpt lat="50.70776" lon="5.27547">
        <ele>109.59999847412</ele>
        <time>2021-07-18T09:09:27.000Z</time>
      </trkpt>
      <trkpt lat="50.7076" lon="5.27497">
        <ele>109.80000305176</ele>
        <time>2021-07-18T09:09:34.000Z</time>
      </trkpt>
      <trkpt lat="50.70757" lon="5.2749">
        <ele>110.19999694824</ele>
        <time>2021-07-18T09:09:35.000Z</time>
      </trkpt>
      <trkpt lat="50.70754" lon="5.27484">
        <ele>110.19999694824</ele>
        <time>2021-07-18T09:09:36.000Z</time>
      </trkpt>
      <trkpt lat="50.70739" lon="5.27455">
        <ele>110.59999847412</ele>
        <time>2021-07-18T09:09:41.000Z</time>
      </trkpt>
      <trkpt lat="50.70726" lon="5.27432">
        <ele>111.19999694824</ele>
        <time>2021-07-18T09:09:45.000Z</time>
      </trkpt>
      <trkpt lat="50.70722" lon="5.27426">
        <ele>111.19999694824</ele>
        <time>2021-07-18T09:09:46.000Z</time>
      </trkpt>
      <trkpt lat="50.70708" lon="5.27405">
        <ele>112</ele>
        <time>2021-07-18T09:09:50.000Z</time>
      </trkpt>
      <trkpt lat="50.70697" lon="5.27391">
        <ele>112.19999694824</ele>
        <time>2021-07-18T09:09:53.000Z</time>
      </trkpt>
      <trkpt lat="50.70689" lon="5.27382">
        <ele>112.19999694824</ele>
        <time>2021-07-18T09:09:55.000Z</time>
      </trkpt>
      <trkpt lat="50.70667" lon="5.27359">
        <ele>113.59999847412</ele>
        <time>2021-07-18T09:10:01.000Z</time>
      </trkpt>
      <trkpt lat="50.70652" lon="5.27344">
        <ele>114.59999847412</ele>
        <time>2021-07-18T09:10:05.000Z</time>
      </trkpt>
      <trkpt lat="50.70644" lon="5.27336">
        <ele>115</ele>
        <time>2021-07-18T09:10:07.000Z</time>
      </trkpt>
      <trkpt lat="50.70632" lon="5.27324">
        <ele>115.80000305176</ele>
        <time>2021-07-18T09:10:10.000Z</time>
      </trkpt>
      <trkpt lat="50.70615" lon="5.27309">
        <ele>117.19999694824</ele>
        <time>2021-07-18T09:10:14.000Z</time>
      </trkpt>
      <trkpt lat="50.70591" lon="5.27286">
        <ele>118.59999847412</ele>
        <time>2021-07-18T09:10:20.000Z</time>
      </trkpt>
      <trkpt lat="50.70583" lon="5.27278">
        <ele>119</ele>
        <time>2021-07-18T09:10:22.000Z</time>
      </trkpt>
      <trkpt lat="50.70549" lon="5.27245">
        <ele>121</ele>
        <time>2021-07-18T09:10:30.000Z</time>
      </trkpt>
      <trkpt lat="50.70509" lon="5.27207">
        <ele>121.40000152588</ele>
        <time>2021-07-18T09:10:38.000Z</time>
      </trkpt>
      <trkpt lat="50.70492" lon="5.2719">
        <ele>121.19999694824</ele>
        <time>2021-07-18T09:10:41.000Z</time>
      </trkpt>
      <trkpt lat="50.7048" lon="5.27178">
        <ele>121.19999694824</ele>
        <time>2021-07-18T09:10:43.000Z</time>
      </trkpt>
      <trkpt lat="50.70467" lon="5.27165">
        <ele>121.40000152588</ele>
        <time>2021-07-18T09:10:45.000Z</time>
      </trkpt>
      <trkpt lat="50.70452" lon="5.27151">
        <ele>121</ele>
        <time>2021-07-18T09:10:47.000Z</time>
      </trkpt>
      <trkpt lat="50.70429" lon="5.27129">
        <ele>119.80000305176</ele>
        <time>2021-07-18T09:10:50.000Z</time>
      </trkpt>
      <trkpt lat="50.70421" lon="5.27121">
        <ele>119.40000152588</ele>
        <time>2021-07-18T09:10:51.000Z</time>
      </trkpt>
      <trkpt lat="50.70378" lon="5.27081">
        <ele>115.80000305176</ele>
        <time>2021-07-18T09:10:57.000Z</time>
      </trkpt>
      <trkpt lat="50.70337" lon="5.27038">
        <ele>114.59999847412</ele>
        <time>2021-07-18T09:11:04.000Z</time>
      </trkpt>
      <trkpt lat="50.70305" lon="5.26988">
        <ele>114.80000305176</ele>
        <time>2021-07-18T09:11:11.000Z</time>
      </trkpt>
      <trkpt lat="50.7027" lon="5.26933">
        <ele>115.19999694824</ele>
        <time>2021-07-18T09:11:20.000Z</time>
      </trkpt>
      <trkpt lat="50.70233" lon="5.26881">
        <ele>116.40000152588</ele>
        <time>2021-07-18T09:11:29.000Z</time>
      </trkpt>
      <trkpt lat="50.70199" lon="5.26851">
        <ele>117</ele>
        <time>2021-07-18T09:11:36.000Z</time>
      </trkpt>
      <trkpt lat="50.70147" lon="5.26812">
        <ele>117.19999694824</ele>
        <time>2021-07-18T09:11:45.000Z</time>
      </trkpt>
      <trkpt lat="50.70136" lon="5.26803">
        <ele>117</ele>
        <time>2021-07-18T09:11:47.000Z</time>
      </trkpt>
      <trkpt lat="50.70082" lon="5.26763">
        <ele>116.59999847412</ele>
        <time>2021-07-18T09:11:56.000Z</time>
      </trkpt>
      <trkpt lat="50.70076" lon="5.26759">
        <ele>116.40000152588</ele>
        <time>2021-07-18T09:11:57.000Z</time>
      </trkpt>
      <trkpt lat="50.70053" lon="5.26739">
        <ele>116.19999694824</ele>
        <time>2021-07-18T09:12:01.000Z</time>
      </trkpt>
      <trkpt lat="50.70037" lon="5.2672">
        <ele>115.59999847412</ele>
        <time>2021-07-18T09:12:04.000Z</time>
      </trkpt>
      <trkpt lat="50.70004" lon="5.26668">
        <ele>115.19999694824</ele>
        <time>2021-07-18T09:12:11.000Z</time>
      </trkpt>
      <trkpt lat="50.69972" lon="5.26613">
        <ele>115</ele>
        <time>2021-07-18T09:12:18.000Z</time>
      </trkpt>
      <trkpt lat="50.69967" lon="5.26605">
        <ele>115</ele>
        <time>2021-07-18T09:12:19.000Z</time>
      </trkpt>
      <trkpt lat="50.69939" lon="5.26557">
        <ele>114.80000305176</ele>
        <time>2021-07-18T09:12:25.000Z</time>
      </trkpt>
      <trkpt lat="50.69931" lon="5.2654">
        <ele>114.59999847412</ele>
        <time>2021-07-18T09:12:27.000Z</time>
      </trkpt>
      <trkpt lat="50.69912" lon="5.26483">
        <ele>113.80000305176</ele>
        <time>2021-07-18T09:12:33.000Z</time>
      </trkpt>
      <trkpt lat="50.69909" lon="5.26474">
        <ele>113.80000305176</ele>
        <time>2021-07-18T09:12:34.000Z</time>
      </trkpt>
      <trkpt lat="50.69881" lon="5.26391">
        <ele>112.80000305176</ele>
        <time>2021-07-18T09:12:43.000Z</time>
      </trkpt>
      <trkpt lat="50.69854" lon="5.26311">
        <ele>112.19999694824</ele>
        <time>2021-07-18T09:12:52.000Z</time>
      </trkpt>
      <trkpt lat="50.69835" lon="5.26238">
        <ele>112.19999694824</ele>
        <time>2021-07-18T09:13:00.000Z</time>
      </trkpt>
      <trkpt lat="50.69825" lon="5.26161">
        <ele>112.80000305176</ele>
        <time>2021-07-18T09:13:08.000Z</time>
      </trkpt>
      <trkpt lat="50.69823" lon="5.26151">
        <ele>113</ele>
        <time>2021-07-18T09:13:09.000Z</time>
      </trkpt>
      <trkpt lat="50.69818" lon="5.26115">
        <ele>113.19999694824</ele>
        <time>2021-07-18T09:13:13.000Z</time>
      </trkpt>
      <trkpt lat="50.69813" lon="5.26081">
        <ele>114</ele>
        <time>2021-07-18T09:13:17.000Z</time>
      </trkpt>
      <trkpt lat="50.69815" lon="5.26064">
        <ele>114.40000152588</ele>
        <time>2021-07-18T09:13:19.000Z</time>
      </trkpt>
      <trkpt lat="50.69817" lon="5.26056">
        <ele>114.80000305176</ele>
        <time>2021-07-18T09:13:20.000Z</time>
      </trkpt>
      <trkpt lat="50.69817" lon="5.26048">
        <ele>115</ele>
        <time>2021-07-18T09:13:21.000Z</time>
      </trkpt>
      <trkpt lat="50.69811" lon="5.26034">
        <ele>115.19999694824</ele>
        <time>2021-07-18T09:13:23.000Z</time>
      </trkpt>
      <trkpt lat="50.69808" lon="5.26027">
        <ele>115.59999847412</ele>
        <time>2021-07-18T09:13:24.000Z</time>
      </trkpt>
      <trkpt lat="50.69804" lon="5.2601">
        <ele>115.59999847412</ele>
        <time>2021-07-18T09:13:26.000Z</time>
      </trkpt>
      <trkpt lat="50.69798" lon="5.25995">
        <ele>115.59999847412</ele>
        <time>2021-07-18T09:13:28.000Z</time>
      </trkpt>
      <trkpt lat="50.6979" lon="5.25983">
        <ele>115.80000305176</ele>
        <time>2021-07-18T09:13:30.000Z</time>
      </trkpt>
      <trkpt lat="50.69768" lon="5.25943">
        <ele>116.19999694824</ele>
        <time>2021-07-18T09:13:36.000Z</time>
      </trkpt>
      <trkpt lat="50.69753" lon="5.25915">
        <ele>116.80000305176</ele>
        <time>2021-07-18T09:13:40.000Z</time>
      </trkpt>
      <trkpt lat="50.69734" lon="5.25881">
        <ele>117.59999847412</ele>
        <time>2021-07-18T09:13:45.000Z</time>
      </trkpt>
      <trkpt lat="50.69719" lon="5.25855">
        <ele>118.40000152588</ele>
        <time>2021-07-18T09:13:49.000Z</time>
      </trkpt>
      <trkpt lat="50.6969" lon="5.25802">
        <ele>119.19999694824</ele>
        <time>2021-07-18T09:13:57.000Z</time>
      </trkpt>
      <trkpt lat="50.6968" lon="5.25779">
        <ele>119.59999847412</ele>
        <time>2021-07-18T09:14:00.000Z</time>
      </trkpt>
      <trkpt lat="50.69672" lon="5.25754">
        <ele>119.59999847412</ele>
        <time>2021-07-18T09:14:03.000Z</time>
      </trkpt>
      <trkpt lat="50.69669" lon="5.25746">
        <ele>119.80000305176</ele>
        <time>2021-07-18T09:14:04.000Z</time>
      </trkpt>
      <trkpt lat="50.69649" lon="5.25696">
        <ele>119.80000305176</ele>
        <time>2021-07-18T09:14:10.000Z</time>
      </trkpt>
      <trkpt lat="50.69638" lon="5.25661">
        <ele>119.59999847412</ele>
        <time>2021-07-18T09:14:14.000Z</time>
      </trkpt>
      <trkpt lat="50.69625" lon="5.25625">
        <ele>119.19999694824</ele>
        <time>2021-07-18T09:14:18.000Z</time>
      </trkpt>
      <trkpt lat="50.69622" lon="5.25615">
        <ele>119.19999694824</ele>
        <time>2021-07-18T09:14:19.000Z</time>
      </trkpt>
      <trkpt lat="50.69596" lon="5.25545">
        <ele>118</ele>
        <time>2021-07-18T09:14:27.000Z</time>
      </trkpt>
      <trkpt lat="50.69589" lon="5.25527">
        <ele>118.19999694824</ele>
        <time>2021-07-18T09:14:29.000Z</time>
      </trkpt>
      <trkpt lat="50.69583" lon="5.25505">
        <ele>118.19999694824</ele>
        <time>2021-07-18T09:14:31.000Z</time>
      </trkpt>
      <trkpt lat="50.69576" lon="5.25482">
        <ele>117.80000305176</ele>
        <time>2021-07-18T09:14:33.000Z</time>
      </trkpt>
      <trkpt lat="50.69573" lon="5.2547">
        <ele>118</ele>
        <time>2021-07-18T09:14:34.000Z</time>
      </trkpt>
      <trkpt lat="50.69547" lon="5.2539">
        <ele>116.59999847412</ele>
        <time>2021-07-18T09:14:41.000Z</time>
      </trkpt>
      <trkpt lat="50.69543" lon="5.25379">
        <ele>116.19999694824</ele>
        <time>2021-07-18T09:14:42.000Z</time>
      </trkpt>
      <trkpt lat="50.6954" lon="5.25367">
        <ele>116</ele>
        <time>2021-07-18T09:14:43.000Z</time>
      </trkpt>
      <trkpt lat="50.6954" lon="5.25342">
        <ele>115.19999694824</ele>
        <time>2021-07-18T09:14:45.000Z</time>
      </trkpt>
      <trkpt lat="50.69549" lon="5.2532">
        <ele>114.80000305176</ele>
        <time>2021-07-18T09:14:47.000Z</time>
      </trkpt>
      <trkpt lat="50.69554" lon="5.25312">
        <ele>114.40000152588</ele>
        <time>2021-07-18T09:14:48.000Z</time>
      </trkpt>
      <trkpt lat="50.69565" lon="5.25298">
        <ele>113.80000305176</ele>
        <time>2021-07-18T09:14:50.000Z</time>
      </trkpt>
      <trkpt lat="50.69569" lon="5.25293">
        <ele>113.80000305176</ele>
        <time>2021-07-18T09:14:51.000Z</time>
      </trkpt>
      <trkpt lat="50.69574" lon="5.25288">
        <ele>113.40000152588</ele>
        <time>2021-07-18T09:14:52.000Z</time>
      </trkpt>
      <trkpt lat="50.69577" lon="5.25273">
        <ele>112.19999694824</ele>
        <time>2021-07-18T09:14:54.000Z</time>
      </trkpt>
      <trkpt lat="50.69576" lon="5.25265">
        <ele>112</ele>
        <time>2021-07-18T09:14:55.000Z</time>
      </trkpt>
      <trkpt lat="50.69574" lon="5.25259">
        <ele>112</ele>
        <time>2021-07-18T09:14:56.000Z</time>
      </trkpt>
      <trkpt lat="50.69571" lon="5.25252">
        <ele>111.80000305176</ele>
        <time>2021-07-18T09:14:57.000Z</time>
      </trkpt>
      <trkpt lat="50.69564" lon="5.25232">
        <ele>111.80000305176</ele>
        <time>2021-07-18T09:15:00.000Z</time>
      </trkpt>
      <trkpt lat="50.69554" lon="5.25196">
        <ele>111.80000305176</ele>
        <time>2021-07-18T09:15:05.000Z</time>
      </trkpt>
      <trkpt lat="50.69547" lon="5.25174">
        <ele>112.80000305176</ele>
        <time>2021-07-18T09:15:08.000Z</time>
      </trkpt>
      <trkpt lat="50.69529" lon="5.25114">
        <ele>114</ele>
        <time>2021-07-18T09:15:16.000Z</time>
      </trkpt>
      <trkpt lat="50.69527" lon="5.25106">
        <ele>114</ele>
        <time>2021-07-18T09:15:17.000Z</time>
      </trkpt>
      <trkpt lat="50.69512" lon="5.2506">
        <ele>114.80000305176</ele>
        <time>2021-07-18T09:15:23.000Z</time>
      </trkpt>
      <trkpt lat="50.6951" lon="5.25052">
        <ele>115</ele>
        <time>2021-07-18T09:15:24.000Z</time>
      </trkpt>
      <trkpt lat="50.69499" lon="5.25023">
        <ele>115.80000305176</ele>
        <time>2021-07-18T09:15:29.000Z</time>
      </trkpt>
      <trkpt lat="50.69495" lon="5.25007">
        <ele>116.40000152588</ele>
        <time>2021-07-18T09:15:32.000Z</time>
      </trkpt>
      <trkpt lat="50.69493" lon="5.24994">
        <ele>116.80000305176</ele>
        <time>2021-07-18T09:15:34.000Z</time>
      </trkpt>
      <trkpt lat="50.69495" lon="5.2498">
        <ele>117.19999694824</ele>
        <time>2021-07-18T09:15:36.000Z</time>
      </trkpt>
      <trkpt lat="50.69498" lon="5.24974">
        <ele>117.40000152588</ele>
        <time>2021-07-18T09:15:37.000Z</time>
      </trkpt>
      <trkpt lat="50.69501" lon="5.24968">
        <ele>117.80000305176</ele>
        <time>2021-07-18T09:15:38.000Z</time>
      </trkpt>
      <trkpt lat="50.69519" lon="5.24937">
        <ele>118</ele>
        <time>2021-07-18T09:15:43.000Z</time>
      </trkpt>
      <trkpt lat="50.69532" lon="5.24919">
        <ele>118</ele>
        <time>2021-07-18T09:15:46.000Z</time>
      </trkpt>
      <trkpt lat="50.69548" lon="5.24903">
        <ele>118</ele>
        <time>2021-07-18T09:15:49.000Z</time>
      </trkpt>
      <trkpt lat="50.69583" lon="5.24862">
        <ele>117</ele>
        <time>2021-07-18T09:15:56.000Z</time>
      </trkpt>
      <trkpt lat="50.69603" lon="5.24842">
        <ele>116.59999847412</ele>
        <time>2021-07-18T09:16:00.000Z</time>
      </trkpt>
      <trkpt lat="50.69609" lon="5.2484">
        <ele>116.59999847412</ele>
        <time>2021-07-18T09:16:02.000Z</time>
      </trkpt>
      <trkpt lat="50.69614" lon="5.24837">
        <ele>116.59999847412</ele>
        <time>2021-07-18T09:16:03.000Z</time>
      </trkpt>
      <trkpt lat="50.69621" lon="5.24825">
        <ele>116.59999847412</ele>
        <time>2021-07-18T09:16:05.000Z</time>
      </trkpt>
      <trkpt lat="50.69617" lon="5.24809">
        <ele>116.59999847412</ele>
        <time>2021-07-18T09:16:07.000Z</time>
      </trkpt>
      <trkpt lat="50.69604" lon="5.248">
        <ele>116.40000152588</ele>
        <time>2021-07-18T09:16:10.000Z</time>
      </trkpt>
      <trkpt lat="50.69582" lon="5.2477">
        <ele>116.59999847412</ele>
        <time>2021-07-18T09:16:15.000Z</time>
      </trkpt>
      <trkpt lat="50.69567" lon="5.24749">
        <ele>116.59999847412</ele>
        <time>2021-07-18T09:16:18.000Z</time>
      </trkpt>
      <trkpt lat="50.6955" lon="5.24725">
        <ele>116.40000152588</ele>
        <time>2021-07-18T09:16:21.000Z</time>
      </trkpt>
      <trkpt lat="50.69537" lon="5.24707">
        <ele>116.19999694824</ele>
        <time>2021-07-18T09:16:23.000Z</time>
      </trkpt>
      <trkpt lat="50.69511" lon="5.24671">
        <ele>116</ele>
        <time>2021-07-18T09:16:27.000Z</time>
      </trkpt>
      <trkpt lat="50.69476" lon="5.24622">
        <ele>113.19999694824</ele>
        <time>2021-07-18T09:16:33.000Z</time>
      </trkpt>
      <trkpt lat="50.69471" lon="5.24615">
        <ele>113.40000152588</ele>
        <time>2021-07-18T09:16:34.000Z</time>
      </trkpt>
      <trkpt lat="50.69459" lon="5.24604">
        <ele>113.19999694824</ele>
        <time>2021-07-18T09:16:36.000Z</time>
      </trkpt>
      <trkpt lat="50.69452" lon="5.24601">
        <ele>113.19999694824</ele>
        <time>2021-07-18T09:16:37.000Z</time>
      </trkpt>
      <trkpt lat="50.69446" lon="5.24602">
        <ele>113</ele>
        <time>2021-07-18T09:16:38.000Z</time>
      </trkpt>
      <trkpt lat="50.69433" lon="5.24612">
        <ele>112.80000305176</ele>
        <time>2021-07-18T09:16:40.000Z</time>
      </trkpt>
      <trkpt lat="50.69424" lon="5.24628">
        <ele>113</ele>
        <time>2021-07-18T09:16:42.000Z</time>
      </trkpt>
      <trkpt lat="50.69416" lon="5.24646">
        <ele>113</ele>
        <time>2021-07-18T09:16:44.000Z</time>
      </trkpt>
      <trkpt lat="50.69412" lon="5.24653">
        <ele>113</ele>
        <time>2021-07-18T09:16:45.000Z</time>
      </trkpt>
      <trkpt lat="50.69403" lon="5.24664">
        <ele>113</ele>
        <time>2021-07-18T09:16:47.000Z</time>
      </trkpt>
      <trkpt lat="50.69398" lon="5.24665">
        <ele>113</ele>
        <time>2021-07-18T09:16:48.000Z</time>
      </trkpt>
      <trkpt lat="50.69393" lon="5.24664">
        <ele>113.19999694824</ele>
        <time>2021-07-18T09:16:49.000Z</time>
      </trkpt>
      <trkpt lat="50.69382" lon="5.24655">
        <ele>113.40000152588</ele>
        <time>2021-07-18T09:16:51.000Z</time>
      </trkpt>
      <trkpt lat="50.69377" lon="5.24649">
        <ele>113.59999847412</ele>
        <time>2021-07-18T09:16:52.000Z</time>
      </trkpt>
      <trkpt lat="50.69339" lon="5.24606">
        <ele>114.19999694824</ele>
        <time>2021-07-18T09:16:59.000Z</time>
      </trkpt>
      <trkpt lat="50.69302" lon="5.2456">
        <ele>114.59999847412</ele>
        <time>2021-07-18T09:17:06.000Z</time>
      </trkpt>
      <trkpt lat="50.69297" lon="5.24553">
        <ele>114.59999847412</ele>
        <time>2021-07-18T09:17:07.000Z</time>
      </trkpt>
      <trkpt lat="50.69253" lon="5.24489">
        <ele>114.80000305176</ele>
        <time>2021-07-18T09:17:16.000Z</time>
      </trkpt>
      <trkpt lat="50.69248" lon="5.24482">
        <ele>115</ele>
        <time>2021-07-18T09:17:17.000Z</time>
      </trkpt>
      <trkpt lat="50.6923" lon="5.24452">
        <ele>115.19999694824</ele>
        <time>2021-07-18T09:17:21.000Z</time>
      </trkpt>
      <trkpt lat="50.69212" lon="5.24422">
        <ele>116</ele>
        <time>2021-07-18T09:17:25.000Z</time>
      </trkpt>
      <trkpt lat="50.69172" lon="5.24353">
        <ele>117.19999694824</ele>
        <time>2021-07-18T09:17:34.000Z</time>
      </trkpt>
      <trkpt lat="50.69129" lon="5.24296">
        <ele>117</ele>
        <time>2021-07-18T09:17:42.000Z</time>
      </trkpt>
      <trkpt lat="50.69086" lon="5.2424">
        <ele>117</ele>
        <time>2021-07-18T09:17:50.000Z</time>
      </trkpt>
      <trkpt lat="50.6908" lon="5.24234">
        <ele>117.19999694824</ele>
        <time>2021-07-18T09:17:51.000Z</time>
      </trkpt>
      <trkpt lat="50.69075" lon="5.24227">
        <ele>117</ele>
        <time>2021-07-18T09:17:52.000Z</time>
      </trkpt>
      <trkpt lat="50.69049" lon="5.24194">
        <ele>117.19999694824</ele>
        <time>2021-07-18T09:17:57.000Z</time>
      </trkpt>
      <trkpt lat="50.69023" lon="5.24161">
        <ele>118.19999694824</ele>
        <time>2021-07-18T09:18:02.000Z</time>
      </trkpt>
      <trkpt lat="50.6898" lon="5.24107">
        <ele>119</ele>
        <time>2021-07-18T09:18:10.000Z</time>
      </trkpt>
      <trkpt lat="50.68964" lon="5.24087">
        <ele>119.19999694824</ele>
        <time>2021-07-18T09:18:13.000Z</time>
      </trkpt>
      <trkpt lat="50.68949" lon="5.24068">
        <ele>119.40000152588</ele>
        <time>2021-07-18T09:18:16.000Z</time>
      </trkpt>
      <trkpt lat="50.68928" lon="5.24041">
        <ele>119.80000305176</ele>
        <time>2021-07-18T09:18:20.000Z</time>
      </trkpt>
      <trkpt lat="50.68889" lon="5.23992">
        <ele>120</ele>
        <time>2021-07-18T09:18:27.000Z</time>
      </trkpt>
      <trkpt lat="50.6886" lon="5.23956">
        <ele>120</ele>
        <time>2021-07-18T09:18:32.000Z</time>
      </trkpt>
      <trkpt lat="50.68848" lon="5.23942">
        <ele>120</ele>
        <time>2021-07-18T09:18:34.000Z</time>
      </trkpt>
      <trkpt lat="50.68812" lon="5.23895">
        <ele>119.40000152588</ele>
        <time>2021-07-18T09:18:40.000Z</time>
      </trkpt>
      <trkpt lat="50.68782" lon="5.23857">
        <ele>118.40000152588</ele>
        <time>2021-07-18T09:18:45.000Z</time>
      </trkpt>
      <trkpt lat="50.6877" lon="5.23841">
        <ele>118.19999694824</ele>
        <time>2021-07-18T09:18:47.000Z</time>
      </trkpt>
      <trkpt lat="50.68727" lon="5.23787">
        <ele>117.59999847412</ele>
        <time>2021-07-18T09:18:54.000Z</time>
      </trkpt>
      <trkpt lat="50.68698" lon="5.2375">
        <ele>117.40000152588</ele>
        <time>2021-07-18T09:18:59.000Z</time>
      </trkpt>
      <trkpt lat="50.68682" lon="5.2373">
        <ele>117.19999694824</ele>
        <time>2021-07-18T09:19:02.000Z</time>
      </trkpt>
      <trkpt lat="50.68677" lon="5.23724">
        <ele>117.19999694824</ele>
        <time>2021-07-18T09:19:03.000Z</time>
      </trkpt>
      <trkpt lat="50.68652" lon="5.23692">
        <ele>118</ele>
        <time>2021-07-18T09:19:08.000Z</time>
      </trkpt>
      <trkpt lat="50.68641" lon="5.2368">
        <ele>118.59999847412</ele>
        <time>2021-07-18T09:19:10.000Z</time>
      </trkpt>
      <trkpt lat="50.68605" lon="5.23632">
        <ele>120</ele>
        <time>2021-07-18T09:19:17.000Z</time>
      </trkpt>
      <trkpt lat="50.68591" lon="5.23609">
        <ele>120.19999694824</ele>
        <time>2021-07-18T09:19:20.000Z</time>
      </trkpt>
      <trkpt lat="50.68572" lon="5.2358">
        <ele>120.19999694824</ele>
        <time>2021-07-18T09:19:24.000Z</time>
      </trkpt>
      <trkpt lat="50.68567" lon="5.23573">
        <ele>120.19999694824</ele>
        <time>2021-07-18T09:19:25.000Z</time>
      </trkpt>
      <trkpt lat="50.68551" lon="5.23554">
        <ele>120.19999694824</ele>
        <time>2021-07-18T09:19:28.000Z</time>
      </trkpt>
      <trkpt lat="50.68537" lon="5.23531">
        <ele>119.59999847412</ele>
        <time>2021-07-18T09:19:31.000Z</time>
      </trkpt>
      <trkpt lat="50.6852" lon="5.23509">
        <ele>119.40000152588</ele>
        <time>2021-07-18T09:19:34.000Z</time>
      </trkpt>
      <trkpt lat="50.68473" lon="5.23454">
        <ele>118.59999847412</ele>
        <time>2021-07-18T09:19:42.000Z</time>
      </trkpt>
      <trkpt lat="50.68451" lon="5.23427">
        <ele>118.40000152588</ele>
        <time>2021-07-18T09:19:46.000Z</time>
      </trkpt>
      <trkpt lat="50.68425" lon="5.23391">
        <ele>118.40000152588</ele>
        <time>2021-07-18T09:19:51.000Z</time>
      </trkpt>
      <trkpt lat="50.68416" lon="5.23376">
        <ele>118.40000152588</ele>
        <time>2021-07-18T09:19:53.000Z</time>
      </trkpt>
      <trkpt lat="50.68402" lon="5.23353">
        <ele>118.80000305176</ele>
        <time>2021-07-18T09:19:56.000Z</time>
      </trkpt>
      <trkpt lat="50.68386" lon="5.23331">
        <ele>119.59999847412</ele>
        <time>2021-07-18T09:19:59.000Z</time>
      </trkpt>
      <trkpt lat="50.68354" lon="5.23282">
        <ele>120.19999694824</ele>
        <time>2021-07-18T09:20:05.000Z</time>
      </trkpt>
      <trkpt lat="50.68349" lon="5.23273">
        <ele>120</ele>
        <time>2021-07-18T09:20:06.000Z</time>
      </trkpt>
      <trkpt lat="50.68313" lon="5.2322">
        <ele>120</ele>
        <time>2021-07-18T09:20:12.000Z</time>
      </trkpt>
      <trkpt lat="50.68294" lon="5.23193">
        <ele>119.40000152588</ele>
        <time>2021-07-18T09:20:15.000Z</time>
      </trkpt>
      <trkpt lat="50.68282" lon="5.23175">
        <ele>119</ele>
        <time>2021-07-18T09:20:17.000Z</time>
      </trkpt>
      <trkpt lat="50.68245" lon="5.23124">
        <ele>117.59999847412</ele>
        <time>2021-07-18T09:20:23.000Z</time>
      </trkpt>
      <trkpt lat="50.68238" lon="5.23117">
        <ele>117.59999847412</ele>
        <time>2021-07-18T09:20:24.000Z</time>
      </trkpt>
      <trkpt lat="50.68217" lon="5.23103">
        <ele>117</ele>
        <time>2021-07-18T09:20:27.000Z</time>
      </trkpt>
      <trkpt lat="50.68179" lon="5.23096">
        <ele>116.19999694824</ele>
        <time>2021-07-18T09:20:32.000Z</time>
      </trkpt>
      <trkpt lat="50.6815" lon="5.23088">
        <ele>116.19999694824</ele>
        <time>2021-07-18T09:20:36.000Z</time>
      </trkpt>
      <trkpt lat="50.68143" lon="5.23083">
        <ele>116</ele>
        <time>2021-07-18T09:20:37.000Z</time>
      </trkpt>
      <trkpt lat="50.68137" lon="5.23078">
        <ele>116</ele>
        <time>2021-07-18T09:20:38.000Z</time>
      </trkpt>
      <trkpt lat="50.68126" lon="5.23064">
        <ele>116.19999694824</ele>
        <time>2021-07-18T09:20:40.000Z</time>
      </trkpt>
      <trkpt lat="50.68121" lon="5.23056">
        <ele>116</ele>
        <time>2021-07-18T09:20:41.000Z</time>
      </trkpt>
      <trkpt lat="50.68079" lon="5.22994">
        <ele>116.80000305176</ele>
        <time>2021-07-18T09:20:49.000Z</time>
      </trkpt>
      <trkpt lat="50.68069" lon="5.22979">
        <ele>116.80000305176</ele>
        <time>2021-07-18T09:20:51.000Z</time>
      </trkpt>
      <trkpt lat="50.68039" lon="5.22934">
        <ele>117</ele>
        <time>2021-07-18T09:20:57.000Z</time>
      </trkpt>
      <trkpt lat="50.68014" lon="5.22898">
        <ele>117.40000152588</ele>
        <time>2021-07-18T09:21:02.000Z</time>
      </trkpt>
      <trkpt lat="50.68" lon="5.22875">
        <ele>117.59999847412</ele>
        <time>2021-07-18T09:21:05.000Z</time>
      </trkpt>
      <trkpt lat="50.67981" lon="5.22847">
        <ele>118.40000152588</ele>
        <time>2021-07-18T09:21:09.000Z</time>
      </trkpt>
      <trkpt lat="50.67962" lon="5.2282">
        <ele>119.19999694824</ele>
        <time>2021-07-18T09:21:13.000Z</time>
      </trkpt>
      <trkpt lat="50.67942" lon="5.22797">
        <ele>120.40000152588</ele>
        <time>2021-07-18T09:21:17.000Z</time>
      </trkpt>
      <trkpt lat="50.67937" lon="5.22792">
        <ele>120.40000152588</ele>
        <time>2021-07-18T09:21:18.000Z</time>
      </trkpt>
      <trkpt lat="50.67906" lon="5.2276">
        <ele>121.19999694824</ele>
        <time>2021-07-18T09:21:24.000Z</time>
      </trkpt>
      <trkpt lat="50.67896" lon="5.22749">
        <ele>121.80000305176</ele>
        <time>2021-07-18T09:21:26.000Z</time>
      </trkpt>
      <trkpt lat="50.67891" lon="5.22743">
        <ele>122.40000152588</ele>
        <time>2021-07-18T09:21:27.000Z</time>
      </trkpt>
      <trkpt lat="50.67862" lon="5.22711">
        <ele>123.59999847412</ele>
        <time>2021-07-18T09:21:33.000Z</time>
      </trkpt>
      <trkpt lat="50.67847" lon="5.22695">
        <ele>124.19999694824</ele>
        <time>2021-07-18T09:21:36.000Z</time>
      </trkpt>
      <trkpt lat="50.67809" lon="5.22648">
        <ele>126</ele>
        <time>2021-07-18T09:21:44.000Z</time>
      </trkpt>
      <trkpt lat="50.67794" lon="5.2263">
        <ele>126.40000152588</ele>
        <time>2021-07-18T09:21:47.000Z</time>
      </trkpt>
      <trkpt lat="50.67782" lon="5.22624">
        <ele>126.59999847412</ele>
        <time>2021-07-18T09:21:49.000Z</time>
      </trkpt>
      <trkpt lat="50.67763" lon="5.2263">
        <ele>126.59999847412</ele>
        <time>2021-07-18T09:21:52.000Z</time>
      </trkpt>
      <trkpt lat="50.67757" lon="5.2263">
        <ele>126.80000305176</ele>
        <time>2021-07-18T09:21:53.000Z</time>
      </trkpt>
      <trkpt lat="50.67751" lon="5.22627">
        <ele>126.59999847412</ele>
        <time>2021-07-18T09:21:54.000Z</time>
      </trkpt>
      <trkpt lat="50.67741" lon="5.22615">
        <ele>126.59999847412</ele>
        <time>2021-07-18T09:21:56.000Z</time>
      </trkpt>
      <trkpt lat="50.67722" lon="5.22586">
        <ele>126.59999847412</ele>
        <time>2021-07-18T09:22:00.000Z</time>
      </trkpt>
      <trkpt lat="50.67698" lon="5.22548">
        <ele>126.59999847412</ele>
        <time>2021-07-18T09:22:05.000Z</time>
      </trkpt>
      <trkpt lat="50.67673" lon="5.22505">
        <ele>126.59999847412</ele>
        <time>2021-07-18T09:22:10.000Z</time>
      </trkpt>
      <trkpt lat="50.67663" lon="5.22487">
        <ele>126.59999847412</ele>
        <time>2021-07-18T09:22:12.000Z</time>
      </trkpt>
      <trkpt lat="50.67654" lon="5.22466">
        <ele>126.80000305176</ele>
        <time>2021-07-18T09:22:14.000Z</time>
      </trkpt>
      <trkpt lat="50.67636" lon="5.22424">
        <ele>126</ele>
        <time>2021-07-18T09:22:18.000Z</time>
      </trkpt>
      <trkpt lat="50.67612" lon="5.22371">
        <ele>124.59999847412</ele>
        <time>2021-07-18T09:22:23.000Z</time>
      </trkpt>
      <trkpt lat="50.67603" lon="5.2235">
        <ele>124</ele>
        <time>2021-07-18T09:22:25.000Z</time>
      </trkpt>
      <trkpt lat="50.67571" lon="5.22273">
        <ele>122.40000152588</ele>
        <time>2021-07-18T09:22:32.000Z</time>
      </trkpt>
      <trkpt lat="50.67567" lon="5.22262">
        <ele>122.19999694824</ele>
        <time>2021-07-18T09:22:33.000Z</time>
      </trkpt>
      <trkpt lat="50.67543" lon="5.22197">
        <ele>120.80000305176</ele>
        <time>2021-07-18T09:22:39.000Z</time>
      </trkpt>
      <trkpt lat="50.67525" lon="5.22126">
        <ele>120</ele>
        <time>2021-07-18T09:22:45.000Z</time>
      </trkpt>
      <trkpt lat="50.67519" lon="5.22102">
        <ele>119.80000305176</ele>
        <time>2021-07-18T09:22:47.000Z</time>
      </trkpt>
      <trkpt lat="50.67504" lon="5.22045">
        <ele>119.59999847412</ele>
        <time>2021-07-18T09:22:52.000Z</time>
      </trkpt>
      <trkpt lat="50.6749" lon="5.2199">
        <ele>118.80000305176</ele>
        <time>2021-07-18T09:22:57.000Z</time>
      </trkpt>
      <trkpt lat="50.67481" lon="5.21959">
        <ele>118.80000305176</ele>
        <time>2021-07-18T09:23:00.000Z</time>
      </trkpt>
      <trkpt lat="50.6748" lon="5.21949">
        <ele>118.59999847412</ele>
        <time>2021-07-18T09:23:01.000Z</time>
      </trkpt>
      <trkpt lat="50.67479" lon="5.21938">
        <ele>118.59999847412</ele>
        <time>2021-07-18T09:23:02.000Z</time>
      </trkpt>
      <trkpt lat="50.67478" lon="5.21928">
        <ele>118.40000152588</ele>
        <time>2021-07-18T09:23:03.000Z</time>
      </trkpt>
      <trkpt lat="50.67473" lon="5.21909">
        <ele>118.59999847412</ele>
        <time>2021-07-18T09:23:05.000Z</time>
      </trkpt>
      <trkpt lat="50.67465" lon="5.21892">
        <ele>118.40000152588</ele>
        <time>2021-07-18T09:23:07.000Z</time>
      </trkpt>
      <trkpt lat="50.67459" lon="5.21872">
        <ele>118.59999847412</ele>
        <time>2021-07-18T09:23:09.000Z</time>
      </trkpt>
      <trkpt lat="50.67441" lon="5.21795">
        <ele>118.59999847412</ele>
        <time>2021-07-18T09:23:16.000Z</time>
      </trkpt>
      <trkpt lat="50.67432" lon="5.21762">
        <ele>118.80000305176</ele>
        <time>2021-07-18T09:23:19.000Z</time>
      </trkpt>
      <trkpt lat="50.67412" lon="5.21697">
        <ele>118.59999847412</ele>
        <time>2021-07-18T09:23:25.000Z</time>
      </trkpt>
      <trkpt lat="50.67383" lon="5.21615">
        <ele>118</ele>
        <time>2021-07-18T09:23:33.000Z</time>
      </trkpt>
      <trkpt lat="50.6738" lon="5.21605">
        <ele>118</ele>
        <time>2021-07-18T09:23:34.000Z</time>
      </trkpt>
      <trkpt lat="50.67378" lon="5.21594">
        <ele>118</ele>
        <time>2021-07-18T09:23:35.000Z</time>
      </trkpt>
      <trkpt lat="50.67376" lon="5.21572">
        <ele>117.80000305176</ele>
        <time>2021-07-18T09:23:37.000Z</time>
      </trkpt>
      <trkpt lat="50.6738" lon="5.21528">
        <ele>117.80000305176</ele>
        <time>2021-07-18T09:23:41.000Z</time>
      </trkpt>
      <trkpt lat="50.67382" lon="5.21507">
        <ele>117.80000305176</ele>
        <time>2021-07-18T09:23:43.000Z</time>
      </trkpt>
      <trkpt lat="50.67388" lon="5.21443">
        <ele>118.59999847412</ele>
        <time>2021-07-18T09:23:49.000Z</time>
      </trkpt>
      <trkpt lat="50.67389" lon="5.21412">
        <ele>119.40000152588</ele>
        <time>2021-07-18T09:23:52.000Z</time>
      </trkpt>
      <trkpt lat="50.67388" lon="5.2139">
        <ele>119.40000152588</ele>
        <time>2021-07-18T09:23:54.000Z</time>
      </trkpt>
      <trkpt lat="50.67382" lon="5.21359">
        <ele>119.80000305176</ele>
        <time>2021-07-18T09:23:57.000Z</time>
      </trkpt>
      <trkpt lat="50.6737" lon="5.2132">
        <ele>119.80000305176</ele>
        <time>2021-07-18T09:24:01.000Z</time>
      </trkpt>
      <trkpt lat="50.67362" lon="5.21292">
        <ele>119.80000305176</ele>
        <time>2021-07-18T09:24:04.000Z</time>
      </trkpt>
      <trkpt lat="50.6736" lon="5.21285">
        <ele>119.80000305176</ele>
        <time>2021-07-18T09:24:05.000Z</time>
      </trkpt>
      <trkpt lat="50.67361" lon="5.21279">
        <ele>119.80000305176</ele>
        <time>2021-07-18T09:24:06.000Z</time>
      </trkpt>
      <trkpt lat="50.67366" lon="5.2127">
        <ele>120</ele>
        <time>2021-07-18T09:24:08.000Z</time>
      </trkpt>
      <trkpt lat="50.6739" lon="5.21246">
        <ele>119.80000305176</ele>
        <time>2021-07-18T09:24:13.000Z</time>
      </trkpt>
      <trkpt lat="50.67412" lon="5.21224">
        <ele>119.59999847412</ele>
        <time>2021-07-18T09:24:17.000Z</time>
      </trkpt>
      <trkpt lat="50.67424" lon="5.21213">
        <ele>119.19999694824</ele>
        <time>2021-07-18T09:24:19.000Z</time>
      </trkpt>
      <trkpt lat="50.67471" lon="5.21166">
        <ele>117.19999694824</ele>
        <time>2021-07-18T09:24:27.000Z</time>
      </trkpt>
      <trkpt lat="50.67489" lon="5.21148">
        <ele>116.80000305176</ele>
        <time>2021-07-18T09:24:30.000Z</time>
      </trkpt>
      <trkpt lat="50.67531" lon="5.21107">
        <ele>116.59999847412</ele>
        <time>2021-07-18T09:24:37.000Z</time>
      </trkpt>
      <trkpt lat="50.67548" lon="5.21089">
        <ele>116.19999694824</ele>
        <time>2021-07-18T09:24:40.000Z</time>
      </trkpt>
      <trkpt lat="50.67589" lon="5.21049">
        <ele>116</ele>
        <time>2021-07-18T09:24:47.000Z</time>
      </trkpt>
      <trkpt lat="50.67643" lon="5.21007">
        <ele>116.40000152588</ele>
        <time>2021-07-18T09:24:56.000Z</time>
      </trkpt>
      <trkpt lat="50.67648" lon="5.21002">
        <ele>116.40000152588</ele>
        <time>2021-07-18T09:24:57.000Z</time>
      </trkpt>
      <trkpt lat="50.67658" lon="5.20988">
        <ele>116.40000152588</ele>
        <time>2021-07-18T09:24:59.000Z</time>
      </trkpt>
      <trkpt lat="50.67662" lon="5.2098">
        <ele>116.59999847412</ele>
        <time>2021-07-18T09:25:00.000Z</time>
      </trkpt>
      <trkpt lat="50.67666" lon="5.20971">
        <ele>116.59999847412</ele>
        <time>2021-07-18T09:25:01.000Z</time>
      </trkpt>
      <trkpt lat="50.67671" lon="5.20951">
        <ele>116.80000305176</ele>
        <time>2021-07-18T09:25:03.000Z</time>
      </trkpt>
      <trkpt lat="50.67672" lon="5.20941">
        <ele>116.80000305176</ele>
        <time>2021-07-18T09:25:04.000Z</time>
      </trkpt>
      <trkpt lat="50.67675" lon="5.20878">
        <ele>117.40000152588</ele>
        <time>2021-07-18T09:25:10.000Z</time>
      </trkpt>
      <trkpt lat="50.67675" lon="5.20868">
        <ele>117.40000152588</ele>
        <time>2021-07-18T09:25:11.000Z</time>
      </trkpt>
      <trkpt lat="50.6767" lon="5.20806">
        <ele>118.19999694824</ele>
        <time>2021-07-18T09:25:17.000Z</time>
      </trkpt>
      <trkpt lat="50.67666" lon="5.20755">
        <ele>118.59999847412</ele>
        <time>2021-07-18T09:25:22.000Z</time>
      </trkpt>
      <trkpt lat="50.67662" lon="5.20714">
        <ele>118.80000305176</ele>
        <time>2021-07-18T09:25:26.000Z</time>
      </trkpt>
      <trkpt lat="50.67658" lon="5.20663">
        <ele>119.40000152588</ele>
        <time>2021-07-18T09:25:31.000Z</time>
      </trkpt>
      <trkpt lat="50.67653" lon="5.20611">
        <ele>120.40000152588</ele>
        <time>2021-07-18T09:25:36.000Z</time>
      </trkpt>
      <trkpt lat="50.67653" lon="5.20591">
        <ele>120.59999847412</ele>
        <time>2021-07-18T09:25:38.000Z</time>
      </trkpt>
      <trkpt lat="50.67655" lon="5.20571">
        <ele>121</ele>
        <time>2021-07-18T09:25:40.000Z</time>
      </trkpt>
      <trkpt lat="50.67657" lon="5.20561">
        <ele>121</ele>
        <time>2021-07-18T09:25:41.000Z</time>
      </trkpt>
      <trkpt lat="50.67661" lon="5.20552">
        <ele>121.40000152588</ele>
        <time>2021-07-18T09:25:42.000Z</time>
      </trkpt>
      <trkpt lat="50.67672" lon="5.20525">
        <ele>121.80000305176</ele>
        <time>2021-07-18T09:25:45.000Z</time>
      </trkpt>
      <trkpt lat="50.67682" lon="5.20496">
        <ele>122</ele>
        <time>2021-07-18T09:25:48.000Z</time>
      </trkpt>
      <trkpt lat="50.67685" lon="5.20476">
        <ele>122.40000152588</ele>
        <time>2021-07-18T09:25:50.000Z</time>
      </trkpt>
      <trkpt lat="50.67684" lon="5.20454">
        <ele>122.40000152588</ele>
        <time>2021-07-18T09:25:52.000Z</time>
      </trkpt>
      <trkpt lat="50.6768" lon="5.20434">
        <ele>122.59999847412</ele>
        <time>2021-07-18T09:25:54.000Z</time>
      </trkpt>
      <trkpt lat="50.67674" lon="5.20415">
        <ele>122.40000152588</ele>
        <time>2021-07-18T09:25:56.000Z</time>
      </trkpt>
      <trkpt lat="50.67659" lon="5.20368">
        <ele>122.80000305176</ele>
        <time>2021-07-18T09:26:01.000Z</time>
      </trkpt>
      <trkpt lat="50.67632" lon="5.20288">
        <ele>123.19999694824</ele>
        <time>2021-07-18T09:26:09.000Z</time>
      </trkpt>
      <trkpt lat="50.67626" lon="5.20267">
        <ele>123.19999694824</ele>
        <time>2021-07-18T09:26:11.000Z</time>
      </trkpt>
      <trkpt lat="50.67613" lon="5.20225">
        <ele>123.19999694824</ele>
        <time>2021-07-18T09:26:15.000Z</time>
      </trkpt>
      <trkpt lat="50.67604" lon="5.20181">
        <ele>123</ele>
        <time>2021-07-18T09:26:19.000Z</time>
      </trkpt>
      <trkpt lat="50.67589" lon="5.20093">
        <ele>122.80000305176</ele>
        <time>2021-07-18T09:26:27.000Z</time>
      </trkpt>
      <trkpt lat="50.67588" lon="5.20083">
        <ele>122.80000305176</ele>
        <time>2021-07-18T09:26:28.000Z</time>
      </trkpt>
      <trkpt lat="50.67585" lon="5.20067">
        <ele>122.80000305176</ele>
        <time>2021-07-18T09:26:30.000Z</time>
      </trkpt>
      <trkpt lat="50.67581" lon="5.20057">
        <ele>122.80000305176</ele>
        <time>2021-07-18T09:26:32.000Z</time>
      </trkpt>
      <trkpt lat="50.67568" lon="5.20064">
        <ele>122.59999847412</ele>
        <time>2021-07-18T09:26:35.000Z</time>
      </trkpt>
      <trkpt lat="50.67532" lon="5.20082">
        <ele>122.19999694824</ele>
        <time>2021-07-18T09:26:41.000Z</time>
      </trkpt>
      <trkpt lat="50.67526" lon="5.20084">
        <ele>122.19999694824</ele>
        <time>2021-07-18T09:26:42.000Z</time>
      </trkpt>
      <trkpt lat="50.67513" lon="5.20083">
        <ele>122.19999694824</ele>
        <time>2021-07-18T09:26:44.000Z</time>
      </trkpt>
      <trkpt lat="50.67507" lon="5.20079">
        <ele>122.40000152588</ele>
        <time>2021-07-18T09:26:45.000Z</time>
      </trkpt>
      <trkpt lat="50.67502" lon="5.20073">
        <ele>122</ele>
        <time>2021-07-18T09:26:46.000Z</time>
      </trkpt>
      <trkpt lat="50.67498" lon="5.20064">
        <ele>122</ele>
        <time>2021-07-18T09:26:47.000Z</time>
      </trkpt>
      <trkpt lat="50.67495" lon="5.20053">
        <ele>122</ele>
        <time>2021-07-18T09:26:48.000Z</time>
      </trkpt>
      <trkpt lat="50.67485" lon="5.20009">
        <ele>121.19999694824</ele>
        <time>2021-07-18T09:26:52.000Z</time>
      </trkpt>
      <trkpt lat="50.67461" lon="5.19935">
        <ele>120.40000152588</ele>
        <time>2021-07-18T09:26:59.000Z</time>
      </trkpt>
      <trkpt lat="50.67449" lon="5.19921">
        <ele>120.19999694824</ele>
        <time>2021-07-18T09:27:01.000Z</time>
      </trkpt>
      <trkpt lat="50.67442" lon="5.19918">
        <ele>120</ele>
        <time>2021-07-18T09:27:02.000Z</time>
      </trkpt>
      <trkpt lat="50.67396" lon="5.19907">
        <ele>119.59999847412</ele>
        <time>2021-07-18T09:27:08.000Z</time>
      </trkpt>
      <trkpt lat="50.67381" lon="5.19911">
        <ele>119.19999694824</ele>
        <time>2021-07-18T09:27:10.000Z</time>
      </trkpt>
      <trkpt lat="50.67374" lon="5.19916">
        <ele>119.19999694824</ele>
        <time>2021-07-18T09:27:11.000Z</time>
      </trkpt>
      <trkpt lat="50.67368" lon="5.19923">
        <ele>119</ele>
        <time>2021-07-18T09:27:12.000Z</time>
      </trkpt>
      <trkpt lat="50.67351" lon="5.19947">
        <ele>118.80000305176</ele>
        <time>2021-07-18T09:27:15.000Z</time>
      </trkpt>
      <trkpt lat="50.6734" lon="5.19964">
        <ele>118.80000305176</ele>
        <time>2021-07-18T09:27:17.000Z</time>
      </trkpt>
      <trkpt lat="50.67322" lon="5.19987">
        <ele>118.19999694824</ele>
        <time>2021-07-18T09:27:20.000Z</time>
      </trkpt>
      <trkpt lat="50.67316" lon="5.19992">
        <ele>118.19999694824</ele>
        <time>2021-07-18T09:27:21.000Z</time>
      </trkpt>
      <trkpt lat="50.67309" lon="5.19995">
        <ele>118.19999694824</ele>
        <time>2021-07-18T09:27:22.000Z</time>
      </trkpt>
      <trkpt lat="50.67294" lon="5.19998">
        <ele>118</ele>
        <time>2021-07-18T09:27:24.000Z</time>
      </trkpt>
      <trkpt lat="50.67237" lon="5.19998">
        <ele>117.59999847412</ele>
        <time>2021-07-18T09:27:32.000Z</time>
      </trkpt>
      <trkpt lat="50.67209" lon="5.19996">
        <ele>117.59999847412</ele>
        <time>2021-07-18T09:27:36.000Z</time>
      </trkpt>
      <trkpt lat="50.67196" lon="5.19988">
        <ele>117.59999847412</ele>
        <time>2021-07-18T09:27:38.000Z</time>
      </trkpt>
      <trkpt lat="50.67181" lon="5.19966">
        <ele>117.80000305176</ele>
        <time>2021-07-18T09:27:41.000Z</time>
      </trkpt>
      <trkpt lat="50.67177" lon="5.19957">
        <ele>118</ele>
        <time>2021-07-18T09:27:42.000Z</time>
      </trkpt>
      <trkpt lat="50.67148" lon="5.19898">
        <ele>118.59999847412</ele>
        <time>2021-07-18T09:27:49.000Z</time>
      </trkpt>
      <trkpt lat="50.67136" lon="5.19874">
        <ele>119</ele>
        <time>2021-07-18T09:27:52.000Z</time>
      </trkpt>
      <trkpt lat="50.67121" lon="5.19841">
        <ele>119.80000305176</ele>
        <time>2021-07-18T09:27:56.000Z</time>
      </trkpt>
      <trkpt lat="50.67089" lon="5.19777">
        <ele>121.19999694824</ele>
        <time>2021-07-18T09:28:04.000Z</time>
      </trkpt>
      <trkpt lat="50.67058" lon="5.19712">
        <ele>122.59999847412</ele>
        <time>2021-07-18T09:28:12.000Z</time>
      </trkpt>
      <trkpt lat="50.67034" lon="5.19664">
        <ele>123.59999847412</ele>
        <time>2021-07-18T09:28:18.000Z</time>
      </trkpt>
      <trkpt lat="50.6703" lon="5.19656">
        <ele>123.80000305176</ele>
        <time>2021-07-18T09:28:19.000Z</time>
      </trkpt>
      <trkpt lat="50.66994" lon="5.19583">
        <ele>125.40000152588</ele>
        <time>2021-07-18T09:28:28.000Z</time>
      </trkpt>
      <trkpt lat="50.66959" lon="5.19511">
        <ele>125.80000305176</ele>
        <time>2021-07-18T09:28:36.000Z</time>
      </trkpt>
      <trkpt lat="50.66954" lon="5.19502">
        <ele>125.59999847412</ele>
        <time>2021-07-18T09:28:37.000Z</time>
      </trkpt>
      <trkpt lat="50.6694" lon="5.19473">
        <ele>125.80000305176</ele>
        <time>2021-07-18T09:28:40.000Z</time>
      </trkpt>
      <trkpt lat="50.66902" lon="5.19398">
        <ele>125.80000305176</ele>
        <time>2021-07-18T09:28:48.000Z</time>
      </trkpt>
      <trkpt lat="50.66897" lon="5.19388">
        <ele>125.80000305176</ele>
        <time>2021-07-18T09:28:49.000Z</time>
      </trkpt>
      <trkpt lat="50.66858" lon="5.19325">
        <ele>124.40000152588</ele>
        <time>2021-07-18T09:28:56.000Z</time>
      </trkpt>
      <trkpt lat="50.66811" lon="5.19277">
        <ele>123.80000305176</ele>
        <time>2021-07-18T09:29:03.000Z</time>
      </trkpt>
      <trkpt lat="50.66805" lon="5.1927">
        <ele>123.40000152588</ele>
        <time>2021-07-18T09:29:04.000Z</time>
      </trkpt>
      <trkpt lat="50.66756" lon="5.1922">
        <ele>122.59999847412</ele>
        <time>2021-07-18T09:29:12.000Z</time>
      </trkpt>
      <trkpt lat="50.66744" lon="5.19208">
        <ele>122.59999847412</ele>
        <time>2021-07-18T09:29:14.000Z</time>
      </trkpt>
      <trkpt lat="50.66714" lon="5.19163">
        <ele>122.59999847412</ele>
        <time>2021-07-18T09:29:20.000Z</time>
      </trkpt>
      <trkpt lat="50.66699" lon="5.19127">
        <ele>123.40000152588</ele>
        <time>2021-07-18T09:29:24.000Z</time>
      </trkpt>
      <trkpt lat="50.6668" lon="5.19081">
        <ele>123.80000305176</ele>
        <time>2021-07-18T09:29:29.000Z</time>
      </trkpt>
      <trkpt lat="50.66677" lon="5.19072">
        <ele>124</ele>
        <time>2021-07-18T09:29:30.000Z</time>
      </trkpt>
      <trkpt lat="50.66669" lon="5.19055">
        <ele>124.19999694824</ele>
        <time>2021-07-18T09:29:32.000Z</time>
      </trkpt>
      <trkpt lat="50.66654" lon="5.19023">
        <ele>124.80000305176</ele>
        <time>2021-07-18T09:29:36.000Z</time>
      </trkpt>
      <trkpt lat="50.66646" lon="5.19007">
        <ele>125.40000152588</ele>
        <time>2021-07-18T09:29:38.000Z</time>
      </trkpt>
      <trkpt lat="50.6662" lon="5.18959">
        <ele>126.59999847412</ele>
        <time>2021-07-18T09:29:44.000Z</time>
      </trkpt>
      <trkpt lat="50.66601" lon="5.18927">
        <ele>127.19999694824</ele>
        <time>2021-07-18T09:29:48.000Z</time>
      </trkpt>
      <trkpt lat="50.66569" lon="5.18874">
        <ele>127.19999694824</ele>
        <time>2021-07-18T09:29:55.000Z</time>
      </trkpt>
      <trkpt lat="50.66528" lon="5.18811">
        <ele>126.19999694824</ele>
        <time>2021-07-18T09:30:03.000Z</time>
      </trkpt>
      <trkpt lat="50.66486" lon="5.18746">
        <ele>125.59999847412</ele>
        <time>2021-07-18T09:30:11.000Z</time>
      </trkpt>
      <trkpt lat="50.66473" lon="5.1872">
        <ele>125.40000152588</ele>
        <time>2021-07-18T09:30:14.000Z</time>
      </trkpt>
      <trkpt lat="50.66469" lon="5.18687">
        <ele>125.40000152588</ele>
        <time>2021-07-18T09:30:17.000Z</time>
      </trkpt>
      <trkpt lat="50.66462" lon="5.18666">
        <ele>125.19999694824</ele>
        <time>2021-07-18T09:30:19.000Z</time>
      </trkpt>
      <trkpt lat="50.66457" lon="5.18658">
        <ele>125.19999694824</ele>
        <time>2021-07-18T09:30:20.000Z</time>
      </trkpt>
      <trkpt lat="50.6645" lon="5.18651">
        <ele>125</ele>
        <time>2021-07-18T09:30:21.000Z</time>
      </trkpt>
      <trkpt lat="50.66431" lon="5.18633">
        <ele>125</ele>
        <time>2021-07-18T09:30:24.000Z</time>
      </trkpt>
      <trkpt lat="50.66398" lon="5.18606">
        <ele>124.59999847412</ele>
        <time>2021-07-18T09:30:29.000Z</time>
      </trkpt>
      <trkpt lat="50.66353" lon="5.18569">
        <ele>124</ele>
        <time>2021-07-18T09:30:36.000Z</time>
      </trkpt>
      <trkpt lat="50.66334" lon="5.18552">
        <ele>124</ele>
        <time>2021-07-18T09:30:39.000Z</time>
      </trkpt>
      <trkpt lat="50.66328" lon="5.18547">
        <ele>124</ele>
        <time>2021-07-18T09:30:40.000Z</time>
      </trkpt>
      <trkpt lat="50.66298" lon="5.18515">
        <ele>124</ele>
        <time>2021-07-18T09:30:45.000Z</time>
      </trkpt>
      <trkpt lat="50.66276" lon="5.18471">
        <ele>124</ele>
        <time>2021-07-18T09:30:50.000Z</time>
      </trkpt>
      <trkpt lat="50.66247" lon="5.1839">
        <ele>124.40000152588</ele>
        <time>2021-07-18T09:30:58.000Z</time>
      </trkpt>
      <trkpt lat="50.66239" lon="5.18371">
        <ele>124.40000152588</ele>
        <time>2021-07-18T09:31:00.000Z</time>
      </trkpt>
      <trkpt lat="50.66229" lon="5.18355">
        <ele>124.40000152588</ele>
        <time>2021-07-18T09:31:02.000Z</time>
      </trkpt>
      <trkpt lat="50.66217" lon="5.18342">
        <ele>124.40000152588</ele>
        <time>2021-07-18T09:31:04.000Z</time>
      </trkpt>
      <trkpt lat="50.66189" lon="5.18308">
        <ele>124.40000152588</ele>
        <time>2021-07-18T09:31:09.000Z</time>
      </trkpt>
      <trkpt lat="50.66163" lon="5.18255">
        <ele>124.59999847412</ele>
        <time>2021-07-18T09:31:15.000Z</time>
      </trkpt>
      <trkpt lat="50.66151" lon="5.18231">
        <ele>124.80000305176</ele>
        <time>2021-07-18T09:31:19.000Z</time>
      </trkpt>
      <trkpt lat="50.66148" lon="5.1823">
        <ele>124.59999847412</ele>
        <time>2021-07-18T09:31:20.000Z</time>
      </trkpt>
      <trkpt lat="50.66141" lon="5.18234">
        <ele>124.80000305176</ele>
        <time>2021-07-18T09:31:22.000Z</time>
      </trkpt>
      <trkpt lat="50.66109" lon="5.18269">
        <ele>125</ele>
        <time>2021-07-18T09:31:29.000Z</time>
      </trkpt>
      <trkpt lat="50.66072" lon="5.18309">
        <ele>125</ele>
        <time>2021-07-18T09:31:36.000Z</time>
      </trkpt>
      <trkpt lat="50.66061" lon="5.18321">
        <ele>125.19999694824</ele>
        <time>2021-07-18T09:31:38.000Z</time>
      </trkpt>
      <trkpt lat="50.66039" lon="5.18347">
        <ele>125.40000152588</ele>
        <time>2021-07-18T09:31:42.000Z</time>
      </trkpt>
      <trkpt lat="50.66016" lon="5.18385">
        <ele>125.59999847412</ele>
        <time>2021-07-18T09:31:47.000Z</time>
      </trkpt>
      <trkpt lat="50.65989" lon="5.1845">
        <ele>125.59999847412</ele>
        <time>2021-07-18T09:31:54.000Z</time>
      </trkpt>
      <trkpt lat="50.6596" lon="5.18525">
        <ele>126</ele>
        <time>2021-07-18T09:32:02.000Z</time>
      </trkpt>
      <trkpt lat="50.65953" lon="5.18543">
        <ele>125.80000305176</ele>
        <time>2021-07-18T09:32:04.000Z</time>
      </trkpt>
      <trkpt lat="50.65946" lon="5.18561">
        <ele>126.19999694824</ele>
        <time>2021-07-18T09:32:06.000Z</time>
      </trkpt>
      <trkpt lat="50.65935" lon="5.18587">
        <ele>126.40000152588</ele>
        <time>2021-07-18T09:32:09.000Z</time>
      </trkpt>
      <trkpt lat="50.65908" lon="5.18657">
        <ele>127.59999847412</ele>
        <time>2021-07-18T09:32:17.000Z</time>
      </trkpt>
      <trkpt lat="50.65894" lon="5.18693">
        <ele>129</ele>
        <time>2021-07-18T09:32:21.000Z</time>
      </trkpt>
      <trkpt lat="50.65865" lon="5.18766">
        <ele>129.60000610352</ele>
        <time>2021-07-18T09:32:29.000Z</time>
      </trkpt>
      <trkpt lat="50.65861" lon="5.18776">
        <ele>129.60000610352</ele>
        <time>2021-07-18T09:32:30.000Z</time>
      </trkpt>
      <trkpt lat="50.65834" lon="5.18846">
        <ele>129.39999389648</ele>
        <time>2021-07-18T09:32:37.000Z</time>
      </trkpt>
      <trkpt lat="50.65826" lon="5.18866">
        <ele>129.19999694824</ele>
        <time>2021-07-18T09:32:39.000Z</time>
      </trkpt>
      <trkpt lat="50.65807" lon="5.18915">
        <ele>128.60000610352</ele>
        <time>2021-07-18T09:32:44.000Z</time>
      </trkpt>
      <trkpt lat="50.65776" lon="5.18993">
        <ele>128</ele>
        <time>2021-07-18T09:32:52.000Z</time>
      </trkpt>
      <trkpt lat="50.65769" lon="5.19011">
        <ele>128</ele>
        <time>2021-07-18T09:32:54.000Z</time>
      </trkpt>
      <trkpt lat="50.65765" lon="5.19021">
        <ele>128.19999694824</ele>
        <time>2021-07-18T09:32:55.000Z</time>
      </trkpt>
      <trkpt lat="50.65733" lon="5.19101">
        <ele>128.80000305176</ele>
        <time>2021-07-18T09:33:04.000Z</time>
      </trkpt>
      <trkpt lat="50.6573" lon="5.1911">
        <ele>129</ele>
        <time>2021-07-18T09:33:05.000Z</time>
      </trkpt>
      <trkpt lat="50.65698" lon="5.1919">
        <ele>130</ele>
        <time>2021-07-18T09:33:14.000Z</time>
      </trkpt>
      <trkpt lat="50.65687" lon="5.19219">
        <ele>130.19999694824</ele>
        <time>2021-07-18T09:33:17.000Z</time>
      </trkpt>
      <trkpt lat="50.65679" lon="5.19238">
        <ele>130.19999694824</ele>
        <time>2021-07-18T09:33:19.000Z</time>
      </trkpt>
      <trkpt lat="50.65663" lon="5.1928">
        <ele>130.19999694824</ele>
        <time>2021-07-18T09:33:23.000Z</time>
      </trkpt>
      <trkpt lat="50.65659" lon="5.19291">
        <ele>130.19999694824</ele>
        <time>2021-07-18T09:33:24.000Z</time>
      </trkpt>
      <trkpt lat="50.65654" lon="5.19302">
        <ele>130.19999694824</ele>
        <time>2021-07-18T09:33:25.000Z</time>
      </trkpt>
      <trkpt lat="50.6565" lon="5.19314">
        <ele>130</ele>
        <time>2021-07-18T09:33:26.000Z</time>
      </trkpt>
      <trkpt lat="50.65631" lon="5.19362">
        <ele>129.39999389648</ele>
        <time>2021-07-18T09:33:30.000Z</time>
      </trkpt>
      <trkpt lat="50.65621" lon="5.19387">
        <ele>128.80000305176</ele>
        <time>2021-07-18T09:33:32.000Z</time>
      </trkpt>
      <trkpt lat="50.65588" lon="5.1947">
        <ele>125.80000305176</ele>
        <time>2021-07-18T09:33:39.000Z</time>
      </trkpt>
      <trkpt lat="50.65575" lon="5.19504">
        <ele>125.19999694824</ele>
        <time>2021-07-18T09:33:42.000Z</time>
      </trkpt>
      <trkpt lat="50.65562" lon="5.19536">
        <ele>125</ele>
        <time>2021-07-18T09:33:45.000Z</time>
      </trkpt>
      <trkpt lat="50.65542" lon="5.19586">
        <ele>125</ele>
        <time>2021-07-18T09:33:50.000Z</time>
      </trkpt>
      <trkpt lat="50.65525" lon="5.19622">
        <ele>125.19999694824</ele>
        <time>2021-07-18T09:33:54.000Z</time>
      </trkpt>
      <trkpt lat="50.65504" lon="5.19666">
        <ele>125.40000152588</ele>
        <time>2021-07-18T09:33:59.000Z</time>
      </trkpt>
      <trkpt lat="50.65487" lon="5.19698">
        <ele>126</ele>
        <time>2021-07-18T09:34:03.000Z</time>
      </trkpt>
      <trkpt lat="50.65476" lon="5.1972">
        <ele>126.59999847412</ele>
        <time>2021-07-18T09:34:06.000Z</time>
      </trkpt>
      <trkpt lat="50.65467" lon="5.1973">
        <ele>127</ele>
        <time>2021-07-18T09:34:08.000Z</time>
      </trkpt>
      <trkpt lat="50.65455" lon="5.19748">
        <ele>127.40000152588</ele>
        <time>2021-07-18T09:34:11.000Z</time>
      </trkpt>
      <trkpt lat="50.65451" lon="5.19755">
        <ele>127.59999847412</ele>
        <time>2021-07-18T09:34:12.000Z</time>
      </trkpt>
      <trkpt lat="50.65437" lon="5.19774">
        <ele>128</ele>
        <time>2021-07-18T09:34:15.000Z</time>
      </trkpt>
      <trkpt lat="50.65424" lon="5.19794">
        <ele>128.60000610352</ele>
        <time>2021-07-18T09:34:18.000Z</time>
      </trkpt>
      <trkpt lat="50.6542" lon="5.198">
        <ele>128.60000610352</ele>
        <time>2021-07-18T09:34:19.000Z</time>
      </trkpt>
      <trkpt lat="50.65416" lon="5.19807">
        <ele>128.60000610352</ele>
        <time>2021-07-18T09:34:20.000Z</time>
      </trkpt>
      <trkpt lat="50.65412" lon="5.19814">
        <ele>128.60000610352</ele>
        <time>2021-07-18T09:34:21.000Z</time>
      </trkpt>
      <trkpt lat="50.65407" lon="5.1982">
        <ele>128.80000305176</ele>
        <time>2021-07-18T09:34:22.000Z</time>
      </trkpt>
      <trkpt lat="50.6538" lon="5.19862">
        <ele>129.39999389648</ele>
        <time>2021-07-18T09:34:28.000Z</time>
      </trkpt>
      <trkpt lat="50.65367" lon="5.19882">
        <ele>130</ele>
        <time>2021-07-18T09:34:31.000Z</time>
      </trkpt>
      <trkpt lat="50.65362" lon="5.19889">
        <ele>130</ele>
        <time>2021-07-18T09:34:32.000Z</time>
      </trkpt>
      <trkpt lat="50.65358" lon="5.19895">
        <ele>130</ele>
        <time>2021-07-18T09:34:33.000Z</time>
      </trkpt>
      <trkpt lat="50.65353" lon="5.19902">
        <ele>130.19999694824</ele>
        <time>2021-07-18T09:34:34.000Z</time>
      </trkpt>
      <trkpt lat="50.6534" lon="5.19921">
        <ele>130.39999389648</ele>
        <time>2021-07-18T09:34:37.000Z</time>
      </trkpt>
      <trkpt lat="50.65335" lon="5.19927">
        <ele>130.60000610352</ele>
        <time>2021-07-18T09:34:38.000Z</time>
      </trkpt>
      <trkpt lat="50.6533" lon="5.19933">
        <ele>130.60000610352</ele>
        <time>2021-07-18T09:34:39.000Z</time>
      </trkpt>
      <trkpt lat="50.6532" lon="5.19945">
        <ele>130.80000305176</ele>
        <time>2021-07-18T09:34:41.000Z</time>
      </trkpt>
      <trkpt lat="50.65295" lon="5.19976">
        <ele>131.39999389648</ele>
        <time>2021-07-18T09:34:46.000Z</time>
      </trkpt>
      <trkpt lat="50.6526" lon="5.20018">
        <ele>132.39999389648</ele>
        <time>2021-07-18T09:34:53.000Z</time>
      </trkpt>
      <trkpt lat="50.6525" lon="5.2003">
        <ele>132.39999389648</ele>
        <time>2021-07-18T09:34:55.000Z</time>
      </trkpt>
      <trkpt lat="50.65245" lon="5.20036">
        <ele>132.60000610352</ele>
        <time>2021-07-18T09:34:56.000Z</time>
      </trkpt>
      <trkpt lat="50.6524" lon="5.20042">
        <ele>132.80000305176</ele>
        <time>2021-07-18T09:34:57.000Z</time>
      </trkpt>
      <trkpt lat="50.65234" lon="5.20049">
        <ele>132.80000305176</ele>
        <time>2021-07-18T09:34:58.000Z</time>
      </trkpt>
      <trkpt lat="50.65229" lon="5.20055">
        <ele>133</ele>
        <time>2021-07-18T09:34:59.000Z</time>
      </trkpt>
      <trkpt lat="50.65209" lon="5.2008">
        <ele>133.60000610352</ele>
        <time>2021-07-18T09:35:03.000Z</time>
      </trkpt>
      <trkpt lat="50.65194" lon="5.20098">
        <ele>133.80000305176</ele>
        <time>2021-07-18T09:35:06.000Z</time>
      </trkpt>
      <trkpt lat="50.65185" lon="5.2011">
        <ele>134</ele>
        <time>2021-07-18T09:35:08.000Z</time>
      </trkpt>
      <trkpt lat="50.65174" lon="5.2013">
        <ele>134.80000305176</ele>
        <time>2021-07-18T09:35:11.000Z</time>
      </trkpt>
      <trkpt lat="50.6517" lon="5.20136">
        <ele>135</ele>
        <time>2021-07-18T09:35:12.000Z</time>
      </trkpt>
      <trkpt lat="50.65162" lon="5.20154">
        <ele>135.19999694824</ele>
        <time>2021-07-18T09:35:15.000Z</time>
      </trkpt>
      <trkpt lat="50.65158" lon="5.20158">
        <ele>135.39999389648</ele>
        <time>2021-07-18T09:35:16.000Z</time>
      </trkpt>
      <trkpt lat="50.65156" lon="5.20161">
        <ele>135.39999389648</ele>
        <time>2021-07-18T09:35:17.000Z</time>
      </trkpt>
      <trkpt lat="50.6515" lon="5.20173">
        <ele>136.60000610352</ele>
        <time>2021-07-18T09:35:20.000Z</time>
      </trkpt>
      <trkpt lat="50.6515" lon="5.20178">
        <ele>137</ele>
        <time>2021-07-18T09:35:21.000Z</time>
      </trkpt>
      <trkpt lat="50.65151" lon="5.20184">
        <ele>137.39999389648</ele>
        <time>2021-07-18T09:35:22.000Z</time>
      </trkpt>
      <trkpt lat="50.65156" lon="5.20198">
        <ele>138</ele>
        <time>2021-07-18T09:35:24.000Z</time>
      </trkpt>
      <trkpt lat="50.65174" lon="5.20241">
        <ele>139</ele>
        <time>2021-07-18T09:35:30.000Z</time>
      </trkpt>
      <trkpt lat="50.65181" lon="5.20257">
        <ele>139</ele>
        <time>2021-07-18T09:35:32.000Z</time>
      </trkpt>
      <trkpt lat="50.6521" lon="5.20315">
        <ele>138.39999389648</ele>
        <time>2021-07-18T09:35:39.000Z</time>
      </trkpt>
      <trkpt lat="50.65233" lon="5.20356">
        <ele>137.80000305176</ele>
        <time>2021-07-18T09:35:44.000Z</time>
      </trkpt>
      <trkpt lat="50.65258" lon="5.20395">
        <ele>137.19999694824</ele>
        <time>2021-07-18T09:35:49.000Z</time>
      </trkpt>
      <trkpt lat="50.65302" lon="5.20455">
        <ele>137</ele>
        <time>2021-07-18T09:35:57.000Z</time>
      </trkpt>
      <trkpt lat="50.65308" lon="5.20462">
        <ele>137</ele>
        <time>2021-07-18T09:35:58.000Z</time>
      </trkpt>
      <trkpt lat="50.65332" lon="5.2049">
        <ele>136.60000610352</ele>
        <time>2021-07-18T09:36:02.000Z</time>
      </trkpt>
      <trkpt lat="50.6538" lon="5.20547">
        <ele>136.19999694824</ele>
        <time>2021-07-18T09:36:10.000Z</time>
      </trkpt>
      <trkpt lat="50.65429" lon="5.20606">
        <ele>135.60000610352</ele>
        <time>2021-07-18T09:36:18.000Z</time>
      </trkpt>
      <trkpt lat="50.6546" lon="5.20642">
        <ele>135.60000610352</ele>
        <time>2021-07-18T09:36:23.000Z</time>
      </trkpt>
      <trkpt lat="50.65472" lon="5.20656">
        <ele>135.39999389648</ele>
        <time>2021-07-18T09:36:25.000Z</time>
      </trkpt>
      <trkpt lat="50.65491" lon="5.20677">
        <ele>135.39999389648</ele>
        <time>2021-07-18T09:36:28.000Z</time>
      </trkpt>
      <trkpt lat="50.6551" lon="5.20696">
        <ele>135</ele>
        <time>2021-07-18T09:36:31.000Z</time>
      </trkpt>
      <trkpt lat="50.65522" lon="5.2071">
        <ele>135</ele>
        <time>2021-07-18T09:36:33.000Z</time>
      </trkpt>
      <trkpt lat="50.65541" lon="5.20728">
        <ele>135</ele>
        <time>2021-07-18T09:36:36.000Z</time>
      </trkpt>
      <trkpt lat="50.65572" lon="5.20758">
        <ele>134.60000610352</ele>
        <time>2021-07-18T09:36:41.000Z</time>
      </trkpt>
      <trkpt lat="50.65578" lon="5.20764">
        <ele>134.60000610352</ele>
        <time>2021-07-18T09:36:42.000Z</time>
      </trkpt>
      <trkpt lat="50.6563" lon="5.20807">
        <ele>134.19999694824</ele>
        <time>2021-07-18T09:36:50.000Z</time>
      </trkpt>
      <trkpt lat="50.65637" lon="5.20812">
        <ele>134.19999694824</ele>
        <time>2021-07-18T09:36:51.000Z</time>
      </trkpt>
      <trkpt lat="50.6569" lon="5.20855">
        <ele>134</ele>
        <time>2021-07-18T09:36:59.000Z</time>
      </trkpt>
      <trkpt lat="50.65702" lon="5.20865">
        <ele>134</ele>
        <time>2021-07-18T09:37:01.000Z</time>
      </trkpt>
      <trkpt lat="50.65754" lon="5.20907">
        <ele>134.19999694824</ele>
        <time>2021-07-18T09:37:09.000Z</time>
      </trkpt>
      <trkpt lat="50.65787" lon="5.20934">
        <ele>134.39999389648</ele>
        <time>2021-07-18T09:37:14.000Z</time>
      </trkpt>
      <trkpt lat="50.65801" lon="5.20945">
        <ele>134.39999389648</ele>
        <time>2021-07-18T09:37:16.000Z</time>
      </trkpt>
      <trkpt lat="50.65845" lon="5.20984">
        <ele>134.19999694824</ele>
        <time>2021-07-18T09:37:23.000Z</time>
      </trkpt>
      <trkpt lat="50.65895" lon="5.21031">
        <ele>133.19999694824</ele>
        <time>2021-07-18T09:37:31.000Z</time>
      </trkpt>
      <trkpt lat="50.65913" lon="5.21049">
        <ele>133</ele>
        <time>2021-07-18T09:37:34.000Z</time>
      </trkpt>
      <trkpt lat="50.65961" lon="5.21099">
        <ele>133.19999694824</ele>
        <time>2021-07-18T09:37:42.000Z</time>
      </trkpt>
      <trkpt lat="50.65985" lon="5.21125">
        <ele>133</ele>
        <time>2021-07-18T09:37:46.000Z</time>
      </trkpt>
      <trkpt lat="50.66032" lon="5.21179">
        <ele>133</ele>
        <time>2021-07-18T09:37:54.000Z</time>
      </trkpt>
      <trkpt lat="50.66044" lon="5.21194">
        <ele>133</ele>
        <time>2021-07-18T09:37:56.000Z</time>
      </trkpt>
      <trkpt lat="50.6609" lon="5.21252">
        <ele>133.19999694824</ele>
        <time>2021-07-18T09:38:04.000Z</time>
      </trkpt>
      <trkpt lat="50.66124" lon="5.21298">
        <ele>133.39999389648</ele>
        <time>2021-07-18T09:38:10.000Z</time>
      </trkpt>
      <trkpt lat="50.66169" lon="5.21361">
        <ele>133.60000610352</ele>
        <time>2021-07-18T09:38:18.000Z</time>
      </trkpt>
      <trkpt lat="50.66196" lon="5.21402">
        <ele>133.60000610352</ele>
        <time>2021-07-18T09:38:23.000Z</time>
      </trkpt>
      <trkpt lat="50.66207" lon="5.21419">
        <ele>133.60000610352</ele>
        <time>2021-07-18T09:38:25.000Z</time>
      </trkpt>
      <trkpt lat="50.66241" lon="5.21471">
        <ele>133.39999389648</ele>
        <time>2021-07-18T09:38:31.000Z</time>
      </trkpt>
      <trkpt lat="50.66259" lon="5.21498">
        <ele>132.80000305176</ele>
        <time>2021-07-18T09:38:34.000Z</time>
      </trkpt>
      <trkpt lat="50.66264" lon="5.21507">
        <ele>132.60000610352</ele>
        <time>2021-07-18T09:38:35.000Z</time>
      </trkpt>
      <trkpt lat="50.66305" lon="5.21569">
        <ele>131.39999389648</ele>
        <time>2021-07-18T09:38:42.000Z</time>
      </trkpt>
      <trkpt lat="50.66334" lon="5.21614">
        <ele>130.39999389648</ele>
        <time>2021-07-18T09:38:47.000Z</time>
      </trkpt>
      <trkpt lat="50.66357" lon="5.2165">
        <ele>130</ele>
        <time>2021-07-18T09:38:51.000Z</time>
      </trkpt>
      <trkpt lat="50.66397" lon="5.21711">
        <ele>129.39999389648</ele>
        <time>2021-07-18T09:38:58.000Z</time>
      </trkpt>
      <trkpt lat="50.66403" lon="5.2172">
        <ele>129.19999694824</ele>
        <time>2021-07-18T09:38:59.000Z</time>
      </trkpt>
      <trkpt lat="50.66442" lon="5.2178">
        <ele>128.19999694824</ele>
        <time>2021-07-18T09:39:06.000Z</time>
      </trkpt>
      <trkpt lat="50.66463" lon="5.21813">
        <ele>127.80000305176</ele>
        <time>2021-07-18T09:39:10.000Z</time>
      </trkpt>
      <trkpt lat="50.66506" lon="5.2188">
        <ele>127.19999694824</ele>
        <time>2021-07-18T09:39:18.000Z</time>
      </trkpt>
      <trkpt lat="50.66527" lon="5.21911">
        <ele>127</ele>
        <time>2021-07-18T09:39:22.000Z</time>
      </trkpt>
      <trkpt lat="50.66567" lon="5.21973">
        <ele>127.59999847412</ele>
        <time>2021-07-18T09:39:30.000Z</time>
      </trkpt>
      <trkpt lat="50.66577" lon="5.21988">
        <ele>127.80000305176</ele>
        <time>2021-07-18T09:39:32.000Z</time>
      </trkpt>
      <trkpt lat="50.66592" lon="5.22011">
        <ele>127.80000305176</ele>
        <time>2021-07-18T09:39:35.000Z</time>
      </trkpt>
      <trkpt lat="50.66631" lon="5.22072">
        <ele>128.39999389648</ele>
        <time>2021-07-18T09:39:43.000Z</time>
      </trkpt>
      <trkpt lat="50.66646" lon="5.22095">
        <ele>128.60000610352</ele>
        <time>2021-07-18T09:39:46.000Z</time>
      </trkpt>
      <trkpt lat="50.66687" lon="5.22158">
        <ele>129</ele>
        <time>2021-07-18T09:39:54.000Z</time>
      </trkpt>
      <trkpt lat="50.66708" lon="5.2219">
        <ele>129.19999694824</ele>
        <time>2021-07-18T09:39:58.000Z</time>
      </trkpt>
      <trkpt lat="50.66729" lon="5.22222">
        <ele>129</ele>
        <time>2021-07-18T09:40:02.000Z</time>
      </trkpt>
      <trkpt lat="50.6676" lon="5.2227">
        <ele>128.60000610352</ele>
        <time>2021-07-18T09:40:08.000Z</time>
      </trkpt>
      <trkpt lat="50.66797" lon="5.22327">
        <ele>127.80000305176</ele>
        <time>2021-07-18T09:40:15.000Z</time>
      </trkpt>
      <trkpt lat="50.66813" lon="5.22352">
        <ele>127.40000152588</ele>
        <time>2021-07-18T09:40:18.000Z</time>
      </trkpt>
      <trkpt lat="50.66855" lon="5.22416">
        <ele>126.59999847412</ele>
        <time>2021-07-18T09:40:26.000Z</time>
      </trkpt>
      <trkpt lat="50.66876" lon="5.22449">
        <ele>126.59999847412</ele>
        <time>2021-07-18T09:40:30.000Z</time>
      </trkpt>
      <trkpt lat="50.6692" lon="5.22515">
        <ele>126.40000152588</ele>
        <time>2021-07-18T09:40:38.000Z</time>
      </trkpt>
      <trkpt lat="50.66941" lon="5.22547">
        <ele>126.19999694824</ele>
        <time>2021-07-18T09:40:42.000Z</time>
      </trkpt>
      <trkpt lat="50.66982" lon="5.22611">
        <ele>125.19999694824</ele>
        <time>2021-07-18T09:40:50.000Z</time>
      </trkpt>
      <trkpt lat="50.66995" lon="5.22636">
        <ele>125</ele>
        <time>2021-07-18T09:40:53.000Z</time>
      </trkpt>
      <trkpt lat="50.67002" lon="5.22653">
        <ele>125</ele>
        <time>2021-07-18T09:40:55.000Z</time>
      </trkpt>
      <trkpt lat="50.67003" lon="5.22673">
        <ele>125</ele>
        <time>2021-07-18T09:40:57.000Z</time>
      </trkpt>
      <trkpt lat="50.66996" lon="5.22691">
        <ele>125</ele>
        <time>2021-07-18T09:40:59.000Z</time>
      </trkpt>
      <trkpt lat="50.6699" lon="5.22699">
        <ele>125</ele>
        <time>2021-07-18T09:41:00.000Z</time>
      </trkpt>
      <trkpt lat="50.66951" lon="5.22753">
        <ele>125</ele>
        <time>2021-07-18T09:41:07.000Z</time>
      </trkpt>
      <trkpt lat="50.66946" lon="5.2276">
        <ele>124.80000305176</ele>
        <time>2021-07-18T09:41:08.000Z</time>
      </trkpt>
      <trkpt lat="50.66911" lon="5.22803">
        <ele>124.59999847412</ele>
        <time>2021-07-18T09:41:14.000Z</time>
      </trkpt>
      <trkpt lat="50.66868" lon="5.22866">
        <ele>124.59999847412</ele>
        <time>2021-07-18T09:41:22.000Z</time>
      </trkpt>
      <trkpt lat="50.66858" lon="5.22883">
        <ele>124.59999847412</ele>
        <time>2021-07-18T09:41:24.000Z</time>
      </trkpt>
      <trkpt lat="50.66853" lon="5.22891">
        <ele>124.59999847412</ele>
        <time>2021-07-18T09:41:25.000Z</time>
      </trkpt>
      <trkpt lat="50.66835" lon="5.22926">
        <ele>124.80000305176</ele>
        <time>2021-07-18T09:41:29.000Z</time>
      </trkpt>
      <trkpt lat="50.66823" lon="5.22952">
        <ele>125</ele>
        <time>2021-07-18T09:41:32.000Z</time>
      </trkpt>
      <trkpt lat="50.66812" lon="5.2298">
        <ele>125.59999847412</ele>
        <time>2021-07-18T09:41:35.000Z</time>
      </trkpt>
      <trkpt lat="50.66792" lon="5.23035">
        <ele>126.59999847412</ele>
        <time>2021-07-18T09:41:41.000Z</time>
      </trkpt>
      <trkpt lat="50.66789" lon="5.23045">
        <ele>126.80000305176</ele>
        <time>2021-07-18T09:41:42.000Z</time>
      </trkpt>
      <trkpt lat="50.66766" lon="5.23132">
        <ele>128</ele>
        <time>2021-07-18T09:41:51.000Z</time>
      </trkpt>
      <trkpt lat="50.66753" lon="5.2321">
        <ele>129.19999694824</ele>
        <time>2021-07-18T09:41:59.000Z</time>
      </trkpt>
      <trkpt lat="50.66752" lon="5.23219">
        <ele>129.19999694824</ele>
        <time>2021-07-18T09:42:00.000Z</time>
      </trkpt>
      <trkpt lat="50.66751" lon="5.23229">
        <ele>129.19999694824</ele>
        <time>2021-07-18T09:42:01.000Z</time>
      </trkpt>
      <trkpt lat="50.66745" lon="5.23297">
        <ele>130.39999389648</ele>
        <time>2021-07-18T09:42:08.000Z</time>
      </trkpt>
      <trkpt lat="50.66742" lon="5.23366">
        <ele>131.60000610352</ele>
        <time>2021-07-18T09:42:15.000Z</time>
      </trkpt>
      <trkpt lat="50.66741" lon="5.23396">
        <ele>131.80000305176</ele>
        <time>2021-07-18T09:42:18.000Z</time>
      </trkpt>
      <trkpt lat="50.66736" lon="5.23487">
        <ele>133.19999694824</ele>
        <time>2021-07-18T09:42:27.000Z</time>
      </trkpt>
      <trkpt lat="50.66736" lon="5.23497">
        <ele>133.19999694824</ele>
        <time>2021-07-18T09:42:28.000Z</time>
      </trkpt>
      <trkpt lat="50.66732" lon="5.23591">
        <ele>133.39999389648</ele>
        <time>2021-07-18T09:42:37.000Z</time>
      </trkpt>
      <trkpt lat="50.66729" lon="5.23635">
        <ele>133.39999389648</ele>
        <time>2021-07-18T09:42:41.000Z</time>
      </trkpt>
      <trkpt lat="50.66724" lon="5.2373">
        <ele>133</ele>
        <time>2021-07-18T09:42:49.000Z</time>
      </trkpt>
      <trkpt lat="50.66723" lon="5.23754">
        <ele>133</ele>
        <time>2021-07-18T09:42:51.000Z</time>
      </trkpt>
      <trkpt lat="50.66721" lon="5.23803">
        <ele>132.60000610352</ele>
        <time>2021-07-18T09:42:55.000Z</time>
      </trkpt>
      <trkpt lat="50.66717" lon="5.23873">
        <ele>131.80000305176</ele>
        <time>2021-07-18T09:43:01.000Z</time>
      </trkpt>
      <trkpt lat="50.66715" lon="5.23901">
        <ele>131.39999389648</ele>
        <time>2021-07-18T09:43:04.000Z</time>
      </trkpt>
      <trkpt lat="50.66712" lon="5.23906">
        <ele>131</ele>
        <time>2021-07-18T09:43:05.000Z</time>
      </trkpt>
      <trkpt lat="50.66701" lon="5.23907">
        <ele>130.80000305176</ele>
        <time>2021-07-18T09:43:07.000Z</time>
      </trkpt>
      <trkpt lat="50.66695" lon="5.23904">
        <ele>130.60000610352</ele>
        <time>2021-07-18T09:43:08.000Z</time>
      </trkpt>
      <trkpt lat="50.66642" lon="5.23873">
        <ele>130.39999389648</ele>
        <time>2021-07-18T09:43:17.000Z</time>
      </trkpt>
      <trkpt lat="50.66637" lon="5.23869">
        <ele>130.39999389648</ele>
        <time>2021-07-18T09:43:18.000Z</time>
      </trkpt>
      <trkpt lat="50.66607" lon="5.2385">
        <ele>130.80000305176</ele>
        <time>2021-07-18T09:43:23.000Z</time>
      </trkpt>
      <trkpt lat="50.66589" lon="5.23839">
        <ele>131</ele>
        <time>2021-07-18T09:43:26.000Z</time>
      </trkpt>
      <trkpt lat="50.66539" lon="5.23817">
        <ele>132.19999694824</ele>
        <time>2021-07-18T09:43:34.000Z</time>
      </trkpt>
      <trkpt lat="50.66533" lon="5.23816">
        <ele>132.39999389648</ele>
        <time>2021-07-18T09:43:35.000Z</time>
      </trkpt>
      <trkpt lat="50.66506" lon="5.23822">
        <ele>132.80000305176</ele>
        <time>2021-07-18T09:43:39.000Z</time>
      </trkpt>
      <trkpt lat="50.66452" lon="5.23838">
        <ele>133.19999694824</ele>
        <time>2021-07-18T09:43:47.000Z</time>
      </trkpt>
      <trkpt lat="50.66445" lon="5.23839">
        <ele>133.39999389648</ele>
        <time>2021-07-18T09:43:48.000Z</time>
      </trkpt>
      <trkpt lat="50.66439" lon="5.23838">
        <ele>133.39999389648</ele>
        <time>2021-07-18T09:43:49.000Z</time>
      </trkpt>
      <trkpt lat="50.66433" lon="5.23834">
        <ele>133.39999389648</ele>
        <time>2021-07-18T09:43:50.000Z</time>
      </trkpt>
      <trkpt lat="50.66429" lon="5.23826">
        <ele>133.39999389648</ele>
        <time>2021-07-18T09:43:51.000Z</time>
      </trkpt>
      <trkpt lat="50.66427" lon="5.23817">
        <ele>133.39999389648</ele>
        <time>2021-07-18T09:43:52.000Z</time>
      </trkpt>
      <trkpt lat="50.66421" lon="5.23785">
        <ele>133.39999389648</ele>
        <time>2021-07-18T09:43:55.000Z</time>
      </trkpt>
      <trkpt lat="50.66399" lon="5.23713">
        <ele>133.80000305176</ele>
        <time>2021-07-18T09:44:02.000Z</time>
      </trkpt>
      <trkpt lat="50.66395" lon="5.23705">
        <ele>133.80000305176</ele>
        <time>2021-07-18T09:44:03.000Z</time>
      </trkpt>
      <trkpt lat="50.66384" lon="5.23694">
        <ele>134</ele>
        <time>2021-07-18T09:44:05.000Z</time>
      </trkpt>
      <trkpt lat="50.66372" lon="5.23699">
        <ele>134</ele>
        <time>2021-07-18T09:44:07.000Z</time>
      </trkpt>
      <trkpt lat="50.66325" lon="5.23739">
        <ele>134.39999389648</ele>
        <time>2021-07-18T09:44:15.000Z</time>
      </trkpt>
      <trkpt lat="50.66283" lon="5.23776">
        <ele>135</ele>
        <time>2021-07-18T09:44:22.000Z</time>
      </trkpt>
      <trkpt lat="50.66266" lon="5.23793">
        <ele>135.19999694824</ele>
        <time>2021-07-18T09:44:25.000Z</time>
      </trkpt>
      <trkpt lat="50.66227" lon="5.23833">
        <ele>135.80000305176</ele>
        <time>2021-07-18T09:44:32.000Z</time>
      </trkpt>
      <trkpt lat="50.66205" lon="5.23858">
        <ele>136.19999694824</ele>
        <time>2021-07-18T09:44:36.000Z</time>
      </trkpt>
      <trkpt lat="50.66173" lon="5.23896">
        <ele>137</ele>
        <time>2021-07-18T09:44:42.000Z</time>
      </trkpt>
      <trkpt lat="50.66152" lon="5.23922">
        <ele>137.19999694824</ele>
        <time>2021-07-18T09:44:46.000Z</time>
      </trkpt>
      <trkpt lat="50.66105" lon="5.23981">
        <ele>138.39999389648</ele>
        <time>2021-07-18T09:44:55.000Z</time>
      </trkpt>
      <trkpt lat="50.661" lon="5.23987">
        <ele>138.60000610352</ele>
        <time>2021-07-18T09:44:56.000Z</time>
      </trkpt>
      <trkpt lat="50.6607" lon="5.24027">
        <ele>139.19999694824</ele>
        <time>2021-07-18T09:45:02.000Z</time>
      </trkpt>
      <trkpt lat="50.6606" lon="5.24041">
        <ele>139.80000305176</ele>
        <time>2021-07-18T09:45:04.000Z</time>
      </trkpt>
      <trkpt lat="50.66034" lon="5.24078">
        <ele>140.39999389648</ele>
        <time>2021-07-18T09:45:09.000Z</time>
      </trkpt>
      <trkpt lat="50.66024" lon="5.24094">
        <ele>140.39999389648</ele>
        <time>2021-07-18T09:45:11.000Z</time>
      </trkpt>
      <trkpt lat="50.66019" lon="5.24102">
        <ele>140.60000610352</ele>
        <time>2021-07-18T09:45:12.000Z</time>
      </trkpt>
      <trkpt lat="50.66014" lon="5.2411">
        <ele>140.39999389648</ele>
        <time>2021-07-18T09:45:13.000Z</time>
      </trkpt>
      <trkpt lat="50.65998" lon="5.24136">
        <ele>140.39999389648</ele>
        <time>2021-07-18T09:45:16.000Z</time>
      </trkpt>
      <trkpt lat="50.65964" lon="5.24199">
        <ele>139.39999389648</ele>
        <time>2021-07-18T09:45:23.000Z</time>
      </trkpt>
      <trkpt lat="50.65926" lon="5.24276">
        <ele>137.80000305176</ele>
        <time>2021-07-18T09:45:31.000Z</time>
      </trkpt>
      <trkpt lat="50.65913" lon="5.24305">
        <ele>137.60000610352</ele>
        <time>2021-07-18T09:45:34.000Z</time>
      </trkpt>
      <trkpt lat="50.65891" lon="5.24355">
        <ele>137.19999694824</ele>
        <time>2021-07-18T09:45:39.000Z</time>
      </trkpt>
      <trkpt lat="50.65865" lon="5.24412">
        <ele>136.80000305176</ele>
        <time>2021-07-18T09:45:45.000Z</time>
      </trkpt>
      <trkpt lat="50.65852" lon="5.24422">
        <ele>136.60000610352</ele>
        <time>2021-07-18T09:45:47.000Z</time>
      </trkpt>
      <trkpt lat="50.65799" lon="5.24429">
        <ele>136.39999389648</ele>
        <time>2021-07-18T09:45:54.000Z</time>
      </trkpt>
      <trkpt lat="50.65763" lon="5.24434">
        <ele>136.39999389648</ele>
        <time>2021-07-18T09:45:59.000Z</time>
      </trkpt>
      <trkpt lat="50.65729" lon="5.24439">
        <ele>136.39999389648</ele>
        <time>2021-07-18T09:46:04.000Z</time>
      </trkpt>
      <trkpt lat="50.65703" lon="5.24442">
        <ele>136.80000305176</ele>
        <time>2021-07-18T09:46:08.000Z</time>
      </trkpt>
      <trkpt lat="50.65678" lon="5.24444">
        <ele>137.39999389648</ele>
        <time>2021-07-18T09:46:12.000Z</time>
      </trkpt>
      <trkpt lat="50.65672" lon="5.24444">
        <ele>137.60000610352</ele>
        <time>2021-07-18T09:46:13.000Z</time>
      </trkpt>
      <trkpt lat="50.65655" lon="5.2444">
        <ele>138</ele>
        <time>2021-07-18T09:46:16.000Z</time>
      </trkpt>
      <trkpt lat="50.65643" lon="5.24434">
        <ele>138.60000610352</ele>
        <time>2021-07-18T09:46:18.000Z</time>
      </trkpt>
      <trkpt lat="50.65638" lon="5.2443">
        <ele>139</ele>
        <time>2021-07-18T09:46:19.000Z</time>
      </trkpt>
      <trkpt lat="50.65604" lon="5.24408">
        <ele>140.60000610352</ele>
        <time>2021-07-18T09:46:25.000Z</time>
      </trkpt>
      <trkpt lat="50.65599" lon="5.24406">
        <ele>140.80000305176</ele>
        <time>2021-07-18T09:46:26.000Z</time>
      </trkpt>
      <trkpt lat="50.65588" lon="5.24408">
        <ele>141</ele>
        <time>2021-07-18T09:46:28.000Z</time>
      </trkpt>
      <trkpt lat="50.6558" lon="5.2442">
        <ele>141.80000305176</ele>
        <time>2021-07-18T09:46:30.000Z</time>
      </trkpt>
      <trkpt lat="50.65577" lon="5.24428">
        <ele>142</ele>
        <time>2021-07-18T09:46:31.000Z</time>
      </trkpt>
      <trkpt lat="50.65563" lon="5.24485">
        <ele>142.80000305176</ele>
        <time>2021-07-18T09:46:37.000Z</time>
      </trkpt>
      <trkpt lat="50.6556" lon="5.24495">
        <ele>143</ele>
        <time>2021-07-18T09:46:38.000Z</time>
      </trkpt>
      <trkpt lat="50.65553" lon="5.24514">
        <ele>143</ele>
        <time>2021-07-18T09:46:40.000Z</time>
      </trkpt>
      <trkpt lat="50.65544" lon="5.24533">
        <ele>143</ele>
        <time>2021-07-18T09:46:42.000Z</time>
      </trkpt>
      <trkpt lat="50.65539" lon="5.24541">
        <ele>143</ele>
        <time>2021-07-18T09:46:43.000Z</time>
      </trkpt>
      <trkpt lat="50.65514" lon="5.24572">
        <ele>142.80000305176</ele>
        <time>2021-07-18T09:46:47.000Z</time>
      </trkpt>
      <trkpt lat="50.65501" lon="5.24585">
        <ele>142.39999389648</ele>
        <time>2021-07-18T09:46:49.000Z</time>
      </trkpt>
      <trkpt lat="50.65479" lon="5.24601">
        <ele>141.19999694824</ele>
        <time>2021-07-18T09:46:52.000Z</time>
      </trkpt>
      <trkpt lat="50.65456" lon="5.24616">
        <ele>140.60000610352</ele>
        <time>2021-07-18T09:46:55.000Z</time>
      </trkpt>
      <trkpt lat="50.65449" lon="5.2462">
        <ele>140.19999694824</ele>
        <time>2021-07-18T09:46:56.000Z</time>
      </trkpt>
      <trkpt lat="50.65432" lon="5.24623">
        <ele>139.80000305176</ele>
        <time>2021-07-18T09:46:58.000Z</time>
      </trkpt>
      <trkpt lat="50.65424" lon="5.24622">
        <ele>139.60000610352</ele>
        <time>2021-07-18T09:46:59.000Z</time>
      </trkpt>
      <trkpt lat="50.65417" lon="5.24621">
        <ele>139.19999694824</ele>
        <time>2021-07-18T09:47:00.000Z</time>
      </trkpt>
      <trkpt lat="50.65409" lon="5.24618">
        <ele>138.80000305176</ele>
        <time>2021-07-18T09:47:01.000Z</time>
      </trkpt>
      <trkpt lat="50.65402" lon="5.24616">
        <ele>138.60000610352</ele>
        <time>2021-07-18T09:47:02.000Z</time>
      </trkpt>
      <trkpt lat="50.65388" lon="5.2461">
        <ele>138.39999389648</ele>
        <time>2021-07-18T09:47:04.000Z</time>
      </trkpt>
      <trkpt lat="50.65376" lon="5.24604">
        <ele>138.39999389648</ele>
        <time>2021-07-18T09:47:06.000Z</time>
      </trkpt>
      <trkpt lat="50.65365" lon="5.24597">
        <ele>138.39999389648</ele>
        <time>2021-07-18T09:47:08.000Z</time>
      </trkpt>
      <trkpt lat="50.65354" lon="5.24599">
        <ele>138.39999389648</ele>
        <time>2021-07-18T09:47:10.000Z</time>
      </trkpt>
      <trkpt lat="50.6535" lon="5.24615">
        <ele>138.39999389648</ele>
        <time>2021-07-18T09:47:12.000Z</time>
      </trkpt>
      <trkpt lat="50.65348" lon="5.24624">
        <ele>138.39999389648</ele>
        <time>2021-07-18T09:47:13.000Z</time>
      </trkpt>
      <trkpt lat="50.6534" lon="5.2464">
        <ele>138.60000610352</ele>
        <time>2021-07-18T09:47:15.000Z</time>
      </trkpt>
      <trkpt lat="50.65306" lon="5.24697">
        <ele>138.80000305176</ele>
        <time>2021-07-18T09:47:22.000Z</time>
      </trkpt>
      <trkpt lat="50.653" lon="5.24703">
        <ele>139</ele>
        <time>2021-07-18T09:47:23.000Z</time>
      </trkpt>
      <trkpt lat="50.6528" lon="5.24718">
        <ele>139</ele>
        <time>2021-07-18T09:47:26.000Z</time>
      </trkpt>
      <trkpt lat="50.65252" lon="5.24728">
        <ele>138.80000305176</ele>
        <time>2021-07-18T09:47:30.000Z</time>
      </trkpt>
      <trkpt lat="50.65245" lon="5.24731">
        <ele>138.80000305176</ele>
        <time>2021-07-18T09:47:31.000Z</time>
      </trkpt>
      <trkpt lat="50.65238" lon="5.24735">
        <ele>138.60000610352</ele>
        <time>2021-07-18T09:47:32.000Z</time>
      </trkpt>
      <trkpt lat="50.65208" lon="5.24763">
        <ele>138.80000305176</ele>
        <time>2021-07-18T09:47:37.000Z</time>
      </trkpt>
      <trkpt lat="50.65203" lon="5.2477">
        <ele>138.60000610352</ele>
        <time>2021-07-18T09:47:38.000Z</time>
      </trkpt>
      <trkpt lat="50.65166" lon="5.24819">
        <ele>139.39999389648</ele>
        <time>2021-07-18T09:47:45.000Z</time>
      </trkpt>
      <trkpt lat="50.6515" lon="5.2484">
        <ele>139.60000610352</ele>
        <time>2021-07-18T09:47:48.000Z</time>
      </trkpt>
      <trkpt lat="50.65134" lon="5.24861">
        <ele>140</ele>
        <time>2021-07-18T09:47:51.000Z</time>
      </trkpt>
      <trkpt lat="50.65129" lon="5.24868">
        <ele>139.80000305176</ele>
        <time>2021-07-18T09:47:52.000Z</time>
      </trkpt>
      <trkpt lat="50.65111" lon="5.24897">
        <ele>140.39999389648</ele>
        <time>2021-07-18T09:47:56.000Z</time>
      </trkpt>
      <trkpt lat="50.65096" lon="5.24943">
        <ele>141.19999694824</ele>
        <time>2021-07-18T09:48:01.000Z</time>
      </trkpt>
      <trkpt lat="50.65093" lon="5.24952">
        <ele>141</ele>
        <time>2021-07-18T09:48:02.000Z</time>
      </trkpt>
      <trkpt lat="50.65064" lon="5.25025">
        <ele>143</ele>
        <time>2021-07-18T09:48:10.000Z</time>
      </trkpt>
      <trkpt lat="50.65052" lon="5.25053">
        <ele>143</ele>
        <time>2021-07-18T09:48:13.000Z</time>
      </trkpt>
      <trkpt lat="50.65022" lon="5.25118">
        <ele>143.19999694824</ele>
        <time>2021-07-18T09:48:20.000Z</time>
      </trkpt>
      <trkpt lat="50.65017" lon="5.25127">
        <ele>143</ele>
        <time>2021-07-18T09:48:21.000Z</time>
      </trkpt>
      <trkpt lat="50.65" lon="5.2515">
        <ele>142.80000305176</ele>
        <time>2021-07-18T09:48:24.000Z</time>
      </trkpt>
      <trkpt lat="50.64993" lon="5.25157">
        <ele>142.60000610352</ele>
        <time>2021-07-18T09:48:25.000Z</time>
      </trkpt>
      <trkpt lat="50.64987" lon="5.25164">
        <ele>142.60000610352</ele>
        <time>2021-07-18T09:48:26.000Z</time>
      </trkpt>
      <trkpt lat="50.64967" lon="5.25181">
        <ele>142.60000610352</ele>
        <time>2021-07-18T09:48:29.000Z</time>
      </trkpt>
      <trkpt lat="50.64946" lon="5.25198">
        <ele>142.19999694824</ele>
        <time>2021-07-18T09:48:32.000Z</time>
      </trkpt>
      <trkpt lat="50.64919" lon="5.2522">
        <ele>142.19999694824</ele>
        <time>2021-07-18T09:48:36.000Z</time>
      </trkpt>
      <trkpt lat="50.64871" lon="5.25259">
        <ele>142.39999389648</ele>
        <time>2021-07-18T09:48:43.000Z</time>
      </trkpt>
      <trkpt lat="50.6484" lon="5.25292">
        <ele>142.80000305176</ele>
        <time>2021-07-18T09:48:48.000Z</time>
      </trkpt>
      <trkpt lat="50.64834" lon="5.253">
        <ele>142.80000305176</ele>
        <time>2021-07-18T09:48:49.000Z</time>
      </trkpt>
      <trkpt lat="50.64799" lon="5.25354">
        <ele>143.60000610352</ele>
        <time>2021-07-18T09:48:56.000Z</time>
      </trkpt>
      <trkpt lat="50.64795" lon="5.25361">
        <ele>143.60000610352</ele>
        <time>2021-07-18T09:48:57.000Z</time>
      </trkpt>
      <trkpt lat="50.64772" lon="5.25398">
        <ele>144</ele>
        <time>2021-07-18T09:49:02.000Z</time>
      </trkpt>
      <trkpt lat="50.64746" lon="5.2544">
        <ele>145.39999389648</ele>
        <time>2021-07-18T09:49:08.000Z</time>
      </trkpt>
      <trkpt lat="50.64706" lon="5.25504">
        <ele>147.60000610352</ele>
        <time>2021-07-18T09:49:17.000Z</time>
      </trkpt>
      <trkpt lat="50.64693" lon="5.25524">
        <ele>148</ele>
        <time>2021-07-18T09:49:20.000Z</time>
      </trkpt>
      <trkpt lat="50.6468" lon="5.25545">
        <ele>148.60000610352</ele>
        <time>2021-07-18T09:49:23.000Z</time>
      </trkpt>
      <trkpt lat="50.64676" lon="5.25551">
        <ele>148.80000305176</ele>
        <time>2021-07-18T09:49:24.000Z</time>
      </trkpt>
      <trkpt lat="50.64672" lon="5.25558">
        <ele>148.80000305176</ele>
        <time>2021-07-18T09:49:25.000Z</time>
      </trkpt>
      <trkpt lat="50.64648" lon="5.25598">
        <ele>149.60000610352</ele>
        <time>2021-07-18T09:49:31.000Z</time>
      </trkpt>
      <trkpt lat="50.64639" lon="5.25611">
        <ele>150</ele>
        <time>2021-07-18T09:49:33.000Z</time>
      </trkpt>
      <trkpt lat="50.6461" lon="5.2566">
        <ele>151.80000305176</ele>
        <time>2021-07-18T09:49:40.000Z</time>
      </trkpt>
      <trkpt lat="50.64605" lon="5.25666">
        <ele>152.19999694824</ele>
        <time>2021-07-18T09:49:41.000Z</time>
      </trkpt>
      <trkpt lat="50.64568" lon="5.25731">
        <ele>153.80000305176</ele>
        <time>2021-07-18T09:49:50.000Z</time>
      </trkpt>
      <trkpt lat="50.6455" lon="5.25775">
        <ele>154.39999389648</ele>
        <time>2021-07-18T09:49:55.000Z</time>
      </trkpt>
      <trkpt lat="50.64543" lon="5.25794">
        <ele>154.80000305176</ele>
        <time>2021-07-18T09:49:57.000Z</time>
      </trkpt>
      <trkpt lat="50.64532" lon="5.25823">
        <ele>154.60000610352</ele>
        <time>2021-07-18T09:50:00.000Z</time>
      </trkpt>
      <trkpt lat="50.64503" lon="5.25902">
        <ele>154</ele>
        <time>2021-07-18T09:50:08.000Z</time>
      </trkpt>
      <trkpt lat="50.64495" lon="5.25922">
        <ele>153.80000305176</ele>
        <time>2021-07-18T09:50:10.000Z</time>
      </trkpt>
      <trkpt lat="50.64491" lon="5.25933">
        <ele>153.60000610352</ele>
        <time>2021-07-18T09:50:11.000Z</time>
      </trkpt>
      <trkpt lat="50.64467" lon="5.25997">
        <ele>152.80000305176</ele>
        <time>2021-07-18T09:50:17.000Z</time>
      </trkpt>
      <trkpt lat="50.64451" lon="5.2604">
        <ele>151.80000305176</ele>
        <time>2021-07-18T09:50:21.000Z</time>
      </trkpt>
      <trkpt lat="50.64444" lon="5.26061">
        <ele>151.19999694824</ele>
        <time>2021-07-18T09:50:23.000Z</time>
      </trkpt>
      <trkpt lat="50.64436" lon="5.26081">
        <ele>150.80000305176</ele>
        <time>2021-07-18T09:50:25.000Z</time>
      </trkpt>
      <trkpt lat="50.64432" lon="5.26091">
        <ele>150.60000610352</ele>
        <time>2021-07-18T09:50:26.000Z</time>
      </trkpt>
      <trkpt lat="50.64428" lon="5.26101">
        <ele>150.60000610352</ele>
        <time>2021-07-18T09:50:27.000Z</time>
      </trkpt>
      <trkpt lat="50.64421" lon="5.2612">
        <ele>150.19999694824</ele>
        <time>2021-07-18T09:50:29.000Z</time>
      </trkpt>
      <trkpt lat="50.64414" lon="5.26139">
        <ele>150</ele>
        <time>2021-07-18T09:50:31.000Z</time>
      </trkpt>
      <trkpt lat="50.64393" lon="5.26193">
        <ele>150.19999694824</ele>
        <time>2021-07-18T09:50:37.000Z</time>
      </trkpt>
      <trkpt lat="50.64372" lon="5.26232">
        <ele>150.60000610352</ele>
        <time>2021-07-18T09:50:42.000Z</time>
      </trkpt>
      <trkpt lat="50.64363" lon="5.26246">
        <ele>150.80000305176</ele>
        <time>2021-07-18T09:50:44.000Z</time>
      </trkpt>
      <trkpt lat="50.64329" lon="5.263">
        <ele>151.39999389648</ele>
        <time>2021-07-18T09:50:51.000Z</time>
      </trkpt>
      <trkpt lat="50.64325" lon="5.26309">
        <ele>151.19999694824</ele>
        <time>2021-07-18T09:50:52.000Z</time>
      </trkpt>
      <trkpt lat="50.64316" lon="5.26339">
        <ele>151.39999389648</ele>
        <time>2021-07-18T09:50:55.000Z</time>
      </trkpt>
      <trkpt lat="50.6431" lon="5.2636">
        <ele>151.19999694824</ele>
        <time>2021-07-18T09:50:57.000Z</time>
      </trkpt>
      <trkpt lat="50.64308" lon="5.26371">
        <ele>151.39999389648</ele>
        <time>2021-07-18T09:50:58.000Z</time>
      </trkpt>
      <trkpt lat="50.64306" lon="5.26382">
        <ele>151.19999694824</ele>
        <time>2021-07-18T09:50:59.000Z</time>
      </trkpt>
      <trkpt lat="50.64305" lon="5.26393">
        <ele>151.19999694824</ele>
        <time>2021-07-18T09:51:00.000Z</time>
      </trkpt>
      <trkpt lat="50.64298" lon="5.26437">
        <ele>150.39999389648</ele>
        <time>2021-07-18T09:51:04.000Z</time>
      </trkpt>
      <trkpt lat="50.64296" lon="5.26448">
        <ele>150.39999389648</ele>
        <time>2021-07-18T09:51:05.000Z</time>
      </trkpt>
      <trkpt lat="50.64295" lon="5.26459">
        <ele>150.19999694824</ele>
        <time>2021-07-18T09:51:06.000Z</time>
      </trkpt>
      <trkpt lat="50.64291" lon="5.26481">
        <ele>150.19999694824</ele>
        <time>2021-07-18T09:51:08.000Z</time>
      </trkpt>
      <trkpt lat="50.64289" lon="5.26492">
        <ele>150.19999694824</ele>
        <time>2021-07-18T09:51:09.000Z</time>
      </trkpt>
      <trkpt lat="50.64283" lon="5.26537">
        <ele>149.80000305176</ele>
        <time>2021-07-18T09:51:13.000Z</time>
      </trkpt>
      <trkpt lat="50.64278" lon="5.26558">
        <ele>149.60000610352</ele>
        <time>2021-07-18T09:51:15.000Z</time>
      </trkpt>
      <trkpt lat="50.64275" lon="5.26569">
        <ele>149.39999389648</ele>
        <time>2021-07-18T09:51:16.000Z</time>
      </trkpt>
      <trkpt lat="50.64261" lon="5.26606">
        <ele>149.39999389648</ele>
        <time>2021-07-18T09:51:20.000Z</time>
      </trkpt>
      <trkpt lat="50.64232" lon="5.26679">
        <ele>149.60000610352</ele>
        <time>2021-07-18T09:51:28.000Z</time>
      </trkpt>
      <trkpt lat="50.64214" lon="5.26723">
        <ele>149.80000305176</ele>
        <time>2021-07-18T09:51:33.000Z</time>
      </trkpt>
      <trkpt lat="50.64205" lon="5.2674">
        <ele>150</ele>
        <time>2021-07-18T09:51:35.000Z</time>
      </trkpt>
      <trkpt lat="50.64177" lon="5.26792">
        <ele>150.39999389648</ele>
        <time>2021-07-18T09:51:42.000Z</time>
      </trkpt>
      <trkpt lat="50.64162" lon="5.26818">
        <ele>151.19999694824</ele>
        <time>2021-07-18T09:51:46.000Z</time>
      </trkpt>
      <trkpt lat="50.64152" lon="5.26836">
        <ele>151.60000610352</ele>
        <time>2021-07-18T09:51:49.000Z</time>
      </trkpt>
      <trkpt lat="50.64145" lon="5.26848">
        <ele>152.19999694824</ele>
        <time>2021-07-18T09:51:51.000Z</time>
      </trkpt>
      <trkpt lat="50.64136" lon="5.26862">
        <ele>152.80000305176</ele>
        <time>2021-07-18T09:51:54.000Z</time>
      </trkpt>
      <trkpt lat="50.64133" lon="5.26865">
        <ele>153.39999389648</ele>
        <time>2021-07-18T09:51:55.000Z</time>
      </trkpt>
      <trkpt lat="50.64126" lon="5.26886">
        <ele>154.60000610352</ele>
        <time>2021-07-18T09:51:59.000Z</time>
      </trkpt>
      <trkpt lat="50.64123" lon="5.26897">
        <ele>155.39999389648</ele>
        <time>2021-07-18T09:52:01.000Z</time>
      </trkpt>
      <trkpt lat="50.64122" lon="5.26911">
        <ele>156.19999694824</ele>
        <time>2021-07-18T09:52:03.000Z</time>
      </trkpt>
      <trkpt lat="50.64124" lon="5.26917">
        <ele>156.19999694824</ele>
        <time>2021-07-18T09:52:04.000Z</time>
      </trkpt>
      <trkpt lat="50.64126" lon="5.26924">
        <ele>156.60000610352</ele>
        <time>2021-07-18T09:52:05.000Z</time>
      </trkpt>
      <trkpt lat="50.64134" lon="5.26937">
        <ele>157</ele>
        <time>2021-07-18T09:52:07.000Z</time>
      </trkpt>
      <trkpt lat="50.64137" lon="5.26944">
        <ele>157</ele>
        <time>2021-07-18T09:52:08.000Z</time>
      </trkpt>
      <trkpt lat="50.64148" lon="5.26987">
        <ele>157</ele>
        <time>2021-07-18T09:52:13.000Z</time>
      </trkpt>
      <trkpt lat="50.64169" lon="5.27074">
        <ele>157</ele>
        <time>2021-07-18T09:52:23.000Z</time>
      </trkpt>
      <trkpt lat="50.64183" lon="5.27144">
        <ele>157.19999694824</ele>
        <time>2021-07-18T09:52:31.000Z</time>
      </trkpt>
      <trkpt lat="50.6419" lon="5.27187">
        <ele>157.60000610352</ele>
        <time>2021-07-18T09:52:36.000Z</time>
      </trkpt>
      <trkpt lat="50.64195" lon="5.27214">
        <ele>158</ele>
        <time>2021-07-18T09:52:39.000Z</time>
      </trkpt>
      <trkpt lat="50.64207" lon="5.27278">
        <ele>158.80000305176</ele>
        <time>2021-07-18T09:52:46.000Z</time>
      </trkpt>
      <trkpt lat="50.64221" lon="5.27324">
        <ele>159</ele>
        <time>2021-07-18T09:52:51.000Z</time>
      </trkpt>
      <trkpt lat="50.64231" lon="5.2735">
        <ele>159.19999694824</ele>
        <time>2021-07-18T09:52:54.000Z</time>
      </trkpt>
      <trkpt lat="50.6426" lon="5.27415">
        <ele>158.39999389648</ele>
        <time>2021-07-18T09:53:01.000Z</time>
      </trkpt>
      <trkpt lat="50.64264" lon="5.27425">
        <ele>158.19999694824</ele>
        <time>2021-07-18T09:53:02.000Z</time>
      </trkpt>
      <trkpt lat="50.64277" lon="5.27454">
        <ele>158</ele>
        <time>2021-07-18T09:53:05.000Z</time>
      </trkpt>
      <trkpt lat="50.64281" lon="5.27464">
        <ele>157.80000305176</ele>
        <time>2021-07-18T09:53:06.000Z</time>
      </trkpt>
      <trkpt lat="50.6431" lon="5.27532">
        <ele>156.60000610352</ele>
        <time>2021-07-18T09:53:13.000Z</time>
      </trkpt>
      <trkpt lat="50.64322" lon="5.27561">
        <ele>156.19999694824</ele>
        <time>2021-07-18T09:53:16.000Z</time>
      </trkpt>
      <trkpt lat="50.64338" lon="5.27598">
        <ele>156</ele>
        <time>2021-07-18T09:53:20.000Z</time>
      </trkpt>
      <trkpt lat="50.64345" lon="5.27616">
        <ele>156</ele>
        <time>2021-07-18T09:53:22.000Z</time>
      </trkpt>
      <trkpt lat="50.64349" lon="5.27625">
        <ele>156</ele>
        <time>2021-07-18T09:53:23.000Z</time>
      </trkpt>
      <trkpt lat="50.64372" lon="5.27678">
        <ele>155.80000305176</ele>
        <time>2021-07-18T09:53:29.000Z</time>
      </trkpt>
      <trkpt lat="50.64383" lon="5.27704">
        <ele>156</ele>
        <time>2021-07-18T09:53:32.000Z</time>
      </trkpt>
      <trkpt lat="50.6441" lon="5.27768">
        <ele>156.39999389648</ele>
        <time>2021-07-18T09:53:39.000Z</time>
      </trkpt>
      <trkpt lat="50.64414" lon="5.27777">
        <ele>156.39999389648</ele>
        <time>2021-07-18T09:53:40.000Z</time>
      </trkpt>
      <trkpt lat="50.64443" lon="5.27853">
        <ele>157</ele>
        <time>2021-07-18T09:53:48.000Z</time>
      </trkpt>
      <trkpt lat="50.64446" lon="5.27863">
        <ele>157</ele>
        <time>2021-07-18T09:53:49.000Z</time>
      </trkpt>
      <trkpt lat="50.64468" lon="5.27948">
        <ele>156.60000610352</ele>
        <time>2021-07-18T09:53:57.000Z</time>
      </trkpt>
      <trkpt lat="50.6448" lon="5.2799">
        <ele>156.39999389648</ele>
        <time>2021-07-18T09:54:01.000Z</time>
      </trkpt>
      <trkpt lat="50.64485" lon="5.28012">
        <ele>156.19999694824</ele>
        <time>2021-07-18T09:54:03.000Z</time>
      </trkpt>
      <trkpt lat="50.64509" lon="5.28098">
        <ele>155.80000305176</ele>
        <time>2021-07-18T09:54:11.000Z</time>
      </trkpt>
      <trkpt lat="50.64512" lon="5.28109">
        <ele>155.19999694824</ele>
        <time>2021-07-18T09:54:12.000Z</time>
      </trkpt>
      <trkpt lat="50.6452" lon="5.28141">
        <ele>154.80000305176</ele>
        <time>2021-07-18T09:54:15.000Z</time>
      </trkpt>
      <trkpt lat="50.64543" lon="5.28226">
        <ele>154</ele>
        <time>2021-07-18T09:54:23.000Z</time>
      </trkpt>
      <trkpt lat="50.6456" lon="5.28291">
        <ele>153.19999694824</ele>
        <time>2021-07-18T09:54:29.000Z</time>
      </trkpt>
      <trkpt lat="50.64575" lon="5.28348">
        <ele>152.80000305176</ele>
        <time>2021-07-18T09:54:34.000Z</time>
      </trkpt>
      <trkpt lat="50.64595" lon="5.28428">
        <ele>151.80000305176</ele>
        <time>2021-07-18T09:54:41.000Z</time>
      </trkpt>
      <trkpt lat="50.64599" lon="5.28451">
        <ele>151.60000610352</ele>
        <time>2021-07-18T09:54:43.000Z</time>
      </trkpt>
      <trkpt lat="50.64605" lon="5.28527">
        <ele>150.80000305176</ele>
        <time>2021-07-18T09:54:50.000Z</time>
      </trkpt>
      <trkpt lat="50.64605" lon="5.28548">
        <ele>150.80000305176</ele>
        <time>2021-07-18T09:54:52.000Z</time>
      </trkpt>
      <trkpt lat="50.64605" lon="5.28579">
        <ele>151</ele>
        <time>2021-07-18T09:54:55.000Z</time>
      </trkpt>
      <trkpt lat="50.64603" lon="5.286">
        <ele>151.19999694824</ele>
        <time>2021-07-18T09:54:57.000Z</time>
      </trkpt>
      <trkpt lat="50.64599" lon="5.2868">
        <ele>152.39999389648</ele>
        <time>2021-07-18T09:55:05.000Z</time>
      </trkpt>
      <trkpt lat="50.64597" lon="5.28709">
        <ele>153</ele>
        <time>2021-07-18T09:55:08.000Z</time>
      </trkpt>
      <trkpt lat="50.64597" lon="5.28719">
        <ele>153</ele>
        <time>2021-07-18T09:55:09.000Z</time>
      </trkpt>
      <trkpt lat="50.64594" lon="5.28778">
        <ele>154</ele>
        <time>2021-07-18T09:55:15.000Z</time>
      </trkpt>
      <trkpt lat="50.64592" lon="5.28815">
        <ele>154.60000610352</ele>
        <time>2021-07-18T09:55:19.000Z</time>
      </trkpt>
      <trkpt lat="50.64589" lon="5.28881">
        <ele>155.39999389648</ele>
        <time>2021-07-18T09:55:26.000Z</time>
      </trkpt>
      <trkpt lat="50.64588" lon="5.289">
        <ele>155.60000610352</ele>
        <time>2021-07-18T09:55:28.000Z</time>
      </trkpt>
      <trkpt lat="50.64587" lon="5.2891">
        <ele>155.80000305176</ele>
        <time>2021-07-18T09:55:29.000Z</time>
      </trkpt>
      <trkpt lat="50.64587" lon="5.28919">
        <ele>155.80000305176</ele>
        <time>2021-07-18T09:55:30.000Z</time>
      </trkpt>
      <trkpt lat="50.64586" lon="5.28928">
        <ele>156</ele>
        <time>2021-07-18T09:55:31.000Z</time>
      </trkpt>
      <trkpt lat="50.64586" lon="5.28938">
        <ele>156</ele>
        <time>2021-07-18T09:55:32.000Z</time>
      </trkpt>
      <trkpt lat="50.64583" lon="5.28985">
        <ele>157</ele>
        <time>2021-07-18T09:55:37.000Z</time>
      </trkpt>
      <trkpt lat="50.64581" lon="5.29032">
        <ele>157.80000305176</ele>
        <time>2021-07-18T09:55:42.000Z</time>
      </trkpt>
      <trkpt lat="50.64579" lon="5.2907">
        <ele>158.39999389648</ele>
        <time>2021-07-18T09:55:46.000Z</time>
      </trkpt>
      <trkpt lat="50.64576" lon="5.29089">
        <ele>158.80000305176</ele>
        <time>2021-07-18T09:55:48.000Z</time>
      </trkpt>
      <trkpt lat="50.64574" lon="5.29099">
        <ele>158.80000305176</ele>
        <time>2021-07-18T09:55:49.000Z</time>
      </trkpt>
      <trkpt lat="50.64554" lon="5.29163">
        <ele>159.80000305176</ele>
        <time>2021-07-18T09:55:56.000Z</time>
      </trkpt>
      <trkpt lat="50.64525" lon="5.29247">
        <ele>160</ele>
        <time>2021-07-18T09:56:05.000Z</time>
      </trkpt>
      <trkpt lat="50.64519" lon="5.29266">
        <ele>159.80000305176</ele>
        <time>2021-07-18T09:56:07.000Z</time>
      </trkpt>
      <trkpt lat="50.64513" lon="5.29285">
        <ele>160</ele>
        <time>2021-07-18T09:56:09.000Z</time>
      </trkpt>
      <trkpt lat="50.64491" lon="5.29351">
        <ele>159.80000305176</ele>
        <time>2021-07-18T09:56:16.000Z</time>
      </trkpt>
      <trkpt lat="50.64485" lon="5.29369">
        <ele>160</ele>
        <time>2021-07-18T09:56:18.000Z</time>
      </trkpt>
      <trkpt lat="50.64455" lon="5.29448">
        <ele>160.19999694824</ele>
        <time>2021-07-18T09:56:27.000Z</time>
      </trkpt>
      <trkpt lat="50.64426" lon="5.29519">
        <ele>160.80000305176</ele>
        <time>2021-07-18T09:56:35.000Z</time>
      </trkpt>
      <trkpt lat="50.64406" lon="5.29567">
        <ele>160.80000305176</ele>
        <time>2021-07-18T09:56:40.000Z</time>
      </trkpt>
      <trkpt lat="50.64402" lon="5.29577">
        <ele>160.80000305176</ele>
        <time>2021-07-18T09:56:41.000Z</time>
      </trkpt>
      <trkpt lat="50.64398" lon="5.29587">
        <ele>160.60000610352</ele>
        <time>2021-07-18T09:56:42.000Z</time>
      </trkpt>
      <trkpt lat="50.6439" lon="5.29607">
        <ele>160.60000610352</ele>
        <time>2021-07-18T09:56:44.000Z</time>
      </trkpt>
      <trkpt lat="50.64359" lon="5.2968">
        <ele>159.80000305176</ele>
        <time>2021-07-18T09:56:51.000Z</time>
      </trkpt>
      <trkpt lat="50.64354" lon="5.29691">
        <ele>159.39999389648</ele>
        <time>2021-07-18T09:56:52.000Z</time>
      </trkpt>
      <trkpt lat="50.64337" lon="5.29732">
        <ele>158.39999389648</ele>
        <time>2021-07-18T09:56:56.000Z</time>
      </trkpt>
      <trkpt lat="50.64317" lon="5.29781">
        <ele>158.19999694824</ele>
        <time>2021-07-18T09:57:01.000Z</time>
      </trkpt>
      <trkpt lat="50.64289" lon="5.29848">
        <ele>158.19999694824</ele>
        <time>2021-07-18T09:57:08.000Z</time>
      </trkpt>
      <trkpt lat="50.64282" lon="5.29867">
        <ele>158.39999389648</ele>
        <time>2021-07-18T09:57:10.000Z</time>
      </trkpt>
      <trkpt lat="50.64256" lon="5.29945">
        <ele>158.80000305176</ele>
        <time>2021-07-18T09:57:18.000Z</time>
      </trkpt>
      <trkpt lat="50.64244" lon="5.29998">
        <ele>159</ele>
        <time>2021-07-18T09:57:23.000Z</time>
      </trkpt>
      <trkpt lat="50.6424" lon="5.3002">
        <ele>159</ele>
        <time>2021-07-18T09:57:25.000Z</time>
      </trkpt>
      <trkpt lat="50.64232" lon="5.30065">
        <ele>159</ele>
        <time>2021-07-18T09:57:29.000Z</time>
      </trkpt>
      <trkpt lat="50.64217" lon="5.30158">
        <ele>157.39999389648</ele>
        <time>2021-07-18T09:57:37.000Z</time>
      </trkpt>
      <trkpt lat="50.64206" lon="5.30229">
        <ele>156.80000305176</ele>
        <time>2021-07-18T09:57:43.000Z</time>
      </trkpt>
      <trkpt lat="50.64197" lon="5.30288">
        <ele>156.19999694824</ele>
        <time>2021-07-18T09:57:48.000Z</time>
      </trkpt>
      <trkpt lat="50.64189" lon="5.30335">
        <ele>155.60000610352</ele>
        <time>2021-07-18T09:57:52.000Z</time>
      </trkpt>
      <trkpt lat="50.64182" lon="5.30402">
        <ele>155.39999389648</ele>
        <time>2021-07-18T09:57:58.000Z</time>
      </trkpt>
      <trkpt lat="50.64175" lon="5.30488">
        <ele>155.60000610352</ele>
        <time>2021-07-18T09:58:06.000Z</time>
      </trkpt>
      <trkpt lat="50.64172" lon="5.30519">
        <ele>155.60000610352</ele>
        <time>2021-07-18T09:58:09.000Z</time>
      </trkpt>
      <trkpt lat="50.64171" lon="5.30529">
        <ele>155.80000305176</ele>
        <time>2021-07-18T09:58:10.000Z</time>
      </trkpt>
      <trkpt lat="50.64164" lon="5.30622">
        <ele>156.39999389648</ele>
        <time>2021-07-18T09:58:19.000Z</time>
      </trkpt>
      <trkpt lat="50.6416" lon="5.30674">
        <ele>156.80000305176</ele>
        <time>2021-07-18T09:58:24.000Z</time>
      </trkpt>
      <trkpt lat="50.64158" lon="5.30705">
        <ele>157.19999694824</ele>
        <time>2021-07-18T09:58:27.000Z</time>
      </trkpt>
      <trkpt lat="50.64151" lon="5.30797">
        <ele>158.19999694824</ele>
        <time>2021-07-18T09:58:36.000Z</time>
      </trkpt>
      <trkpt lat="50.6415" lon="5.30807">
        <ele>158.39999389648</ele>
        <time>2021-07-18T09:58:37.000Z</time>
      </trkpt>
      <trkpt lat="50.64141" lon="5.30887">
        <ele>159.19999694824</ele>
        <time>2021-07-18T09:58:45.000Z</time>
      </trkpt>
      <trkpt lat="50.64139" lon="5.30897">
        <ele>159.19999694824</ele>
        <time>2021-07-18T09:58:46.000Z</time>
      </trkpt>
      <trkpt lat="50.64135" lon="5.30916">
        <ele>159.39999389648</ele>
        <time>2021-07-18T09:58:48.000Z</time>
      </trkpt>
      <trkpt lat="50.64123" lon="5.30968">
        <ele>159.80000305176</ele>
        <time>2021-07-18T09:58:53.000Z</time>
      </trkpt>
      <trkpt lat="50.6412" lon="5.30979">
        <ele>159.60000610352</ele>
        <time>2021-07-18T09:58:54.000Z</time>
      </trkpt>
      <trkpt lat="50.64115" lon="5.31002">
        <ele>159.60000610352</ele>
        <time>2021-07-18T09:58:56.000Z</time>
      </trkpt>
      <trkpt lat="50.64103" lon="5.31058">
        <ele>159.39999389648</ele>
        <time>2021-07-18T09:59:01.000Z</time>
      </trkpt>
      <trkpt lat="50.64098" lon="5.31081">
        <ele>159.39999389648</ele>
        <time>2021-07-18T09:59:03.000Z</time>
      </trkpt>
      <trkpt lat="50.64088" lon="5.31128">
        <ele>158</ele>
        <time>2021-07-18T09:59:07.000Z</time>
      </trkpt>
      <trkpt lat="50.64074" lon="5.31185">
        <ele>156.60000610352</ele>
        <time>2021-07-18T09:59:12.000Z</time>
      </trkpt>
      <trkpt lat="50.64071" lon="5.31197">
        <ele>156.60000610352</ele>
        <time>2021-07-18T09:59:13.000Z</time>
      </trkpt>
      <trkpt lat="50.64061" lon="5.31245">
        <ele>155.80000305176</ele>
        <time>2021-07-18T09:59:17.000Z</time>
      </trkpt>
      <trkpt lat="50.64042" lon="5.31328">
        <ele>154.19999694824</ele>
        <time>2021-07-18T09:59:24.000Z</time>
      </trkpt>
      <trkpt lat="50.64023" lon="5.31411">
        <ele>152.39999389648</ele>
        <time>2021-07-18T09:59:31.000Z</time>
      </trkpt>
      <trkpt lat="50.64019" lon="5.31436">
        <ele>152</ele>
        <time>2021-07-18T09:59:33.000Z</time>
      </trkpt>
      <trkpt lat="50.64017" lon="5.31449">
        <ele>151.80000305176</ele>
        <time>2021-07-18T09:59:34.000Z</time>
      </trkpt>
      <trkpt lat="50.64012" lon="5.31474">
        <ele>151.60000610352</ele>
        <time>2021-07-18T09:59:36.000Z</time>
      </trkpt>
      <trkpt lat="50.64006" lon="5.31499">
        <ele>151.39999389648</ele>
        <time>2021-07-18T09:59:38.000Z</time>
      </trkpt>
      <trkpt lat="50.64005" lon="5.31513">
        <ele>151.19999694824</ele>
        <time>2021-07-18T09:59:39.000Z</time>
      </trkpt>
      <trkpt lat="50.64002" lon="5.31553">
        <ele>150.80000305176</ele>
        <time>2021-07-18T09:59:42.000Z</time>
      </trkpt>
      <trkpt lat="50.64001" lon="5.31592">
        <ele>150.19999694824</ele>
        <time>2021-07-18T09:59:45.000Z</time>
      </trkpt>
      <trkpt lat="50.63999" lon="5.31681">
        <ele>148.39999389648</ele>
        <time>2021-07-18T09:59:52.000Z</time>
      </trkpt>
      <trkpt lat="50.63998" lon="5.31693">
        <ele>148.19999694824</ele>
        <time>2021-07-18T09:59:53.000Z</time>
      </trkpt>
      <trkpt lat="50.63996" lon="5.31716">
        <ele>147.60000610352</ele>
        <time>2021-07-18T09:59:55.000Z</time>
      </trkpt>
      <trkpt lat="50.6399" lon="5.31739">
        <ele>147.39999389648</ele>
        <time>2021-07-18T09:59:57.000Z</time>
      </trkpt>
      <trkpt lat="50.63973" lon="5.31777">
        <ele>147.19999694824</ele>
        <time>2021-07-18T10:00:01.000Z</time>
      </trkpt>
      <trkpt lat="50.63968" lon="5.31786">
        <ele>147.19999694824</ele>
        <time>2021-07-18T10:00:02.000Z</time>
      </trkpt>
      <trkpt lat="50.63958" lon="5.31803">
        <ele>147.19999694824</ele>
        <time>2021-07-18T10:00:04.000Z</time>
      </trkpt>
      <trkpt lat="50.63948" lon="5.3182">
        <ele>147</ele>
        <time>2021-07-18T10:00:06.000Z</time>
      </trkpt>
      <trkpt lat="50.63914" lon="5.3188">
        <ele>146.60000610352</ele>
        <time>2021-07-18T10:00:13.000Z</time>
      </trkpt>
      <trkpt lat="50.63885" lon="5.31932">
        <ele>146</ele>
        <time>2021-07-18T10:00:19.000Z</time>
      </trkpt>
      <trkpt lat="50.63871" lon="5.31958">
        <ele>145.80000305176</ele>
        <time>2021-07-18T10:00:22.000Z</time>
      </trkpt>
      <trkpt lat="50.63861" lon="5.31973">
        <ele>145.60000610352</ele>
        <time>2021-07-18T10:00:24.000Z</time>
      </trkpt>
      <trkpt lat="50.63851" lon="5.31987">
        <ele>145.60000610352</ele>
        <time>2021-07-18T10:00:26.000Z</time>
      </trkpt>
      <trkpt lat="50.63841" lon="5.31998">
        <ele>145.39999389648</ele>
        <time>2021-07-18T10:00:28.000Z</time>
      </trkpt>
      <trkpt lat="50.63837" lon="5.32003">
        <ele>145.39999389648</ele>
        <time>2021-07-18T10:00:29.000Z</time>
      </trkpt>
      <trkpt lat="50.63835" lon="5.32017">
        <ele>145.39999389648</ele>
        <time>2021-07-18T10:00:31.000Z</time>
      </trkpt>
      <trkpt lat="50.63845" lon="5.32038">
        <ele>145.39999389648</ele>
        <time>2021-07-18T10:00:34.000Z</time>
      </trkpt>
      <trkpt lat="50.63847" lon="5.32046">
        <ele>145.19999694824</ele>
        <time>2021-07-18T10:00:35.000Z</time>
      </trkpt>
      <trkpt lat="50.63848" lon="5.32054">
        <ele>145.19999694824</ele>
        <time>2021-07-18T10:00:36.000Z</time>
      </trkpt>
      <trkpt lat="50.63852" lon="5.3209">
        <ele>145.39999389648</ele>
        <time>2021-07-18T10:00:40.000Z</time>
      </trkpt>
      <trkpt lat="50.63875" lon="5.32253">
        <ele>147.5</ele>
      </trkpt>
      <trkpt lat="50.6389" lon="5.32302">
        <ele>148</ele>
      </trkpt>
      <trkpt lat="50.63853" lon="5.32499">
        <ele>152.9</ele>
      </trkpt>
      <trkpt lat="50.63923" lon="5.33003">
        <ele>165.5</ele>
      </trkpt>
      <trkpt lat="50.63661" lon="5.3327">
        <ele>174.7</ele>
      </trkpt>
      <trkpt lat="50.63519" lon="5.33458">
        <ele>172</ele>
      </trkpt>
      <trkpt lat="50.63476" lon="5.33859">
        <ele>176</ele>
      </trkpt>
      <trkpt lat="50.63469" lon="5.3422">
        <ele>178.1</ele>
      </trkpt>
      <trkpt lat="50.6337" lon="5.34751">
        <ele>179.7</ele>
      </trkpt>
      <trkpt lat="50.63318" lon="5.35482">
        <ele>173.9</ele>
      </trkpt>
      <trkpt lat="50.63261" lon="5.36025">
        <ele>181</ele>
      </trkpt>
      <trkpt lat="50.63291" lon="5.36323">
        <ele>182.5</ele>
      </trkpt>
      <trkpt lat="50.63295" lon="5.36735">
        <ele>180.2</ele>
      </trkpt>
      <trkpt lat="50.63343" lon="5.37394">
        <ele>177.6</ele>
      </trkpt>
      <trkpt lat="50.63436" lon="5.38553">
        <ele>165.1</ele>
      </trkpt>
      <trkpt lat="50.63514" lon="5.396">
        <ele>165</ele>
        <time>2021-07-18T10:15:42.000Z</time>
      </trkpt>
      <trkpt lat="50.63511" lon="5.39617">
        <ele>164.19999694824</ele>
        <time>2021-07-18T10:15:45.000Z</time>
      </trkpt>
      <trkpt lat="50.63504" lon="5.3963">
        <ele>164</ele>
        <time>2021-07-18T10:15:47.000Z</time>
      </trkpt>
      <trkpt lat="50.63501" lon="5.39638">
        <ele>164</ele>
        <time>2021-07-18T10:15:48.000Z</time>
      </trkpt>
      <trkpt lat="50.63497" lon="5.39646">
        <ele>164</ele>
        <time>2021-07-18T10:15:49.000Z</time>
      </trkpt>
      <trkpt lat="50.63493" lon="5.39653">
        <ele>164</ele>
        <time>2021-07-18T10:15:50.000Z</time>
      </trkpt>
      <trkpt lat="50.63489" lon="5.39659">
        <ele>164</ele>
        <time>2021-07-18T10:15:51.000Z</time>
      </trkpt>
      <trkpt lat="50.63484" lon="5.39665">
        <ele>164.19999694824</ele>
        <time>2021-07-18T10:15:52.000Z</time>
      </trkpt>
      <trkpt lat="50.63454" lon="5.39702">
        <ele>163.19999694824</ele>
        <time>2021-07-18T10:15:58.000Z</time>
      </trkpt>
      <trkpt lat="50.6341" lon="5.39761">
        <ele>162.80000305176</ele>
        <time>2021-07-18T10:16:06.000Z</time>
      </trkpt>
      <trkpt lat="50.63404" lon="5.39768">
        <ele>162.80000305176</ele>
        <time>2021-07-18T10:16:07.000Z</time>
      </trkpt>
      <trkpt lat="50.63359" lon="5.39826">
        <ele>162.19999694824</ele>
        <time>2021-07-18T10:16:15.000Z</time>
      </trkpt>
      <trkpt lat="50.63353" lon="5.39834">
        <ele>162</ele>
        <time>2021-07-18T10:16:16.000Z</time>
      </trkpt>
      <trkpt lat="50.63319" lon="5.39878">
        <ele>161.19999694824</ele>
        <time>2021-07-18T10:16:22.000Z</time>
      </trkpt>
      <trkpt lat="50.63297" lon="5.39907">
        <ele>161</ele>
        <time>2021-07-18T10:16:26.000Z</time>
      </trkpt>
      <trkpt lat="50.6328" lon="5.39929">
        <ele>160.80000305176</ele>
        <time>2021-07-18T10:16:29.000Z</time>
      </trkpt>
      <trkpt lat="50.63251" lon="5.39965">
        <ele>160.39999389648</ele>
        <time>2021-07-18T10:16:34.000Z</time>
      </trkpt>
      <trkpt lat="50.63205" lon="5.40022">
        <ele>159.19999694824</ele>
        <time>2021-07-18T10:16:42.000Z</time>
      </trkpt>
      <trkpt lat="50.63188" lon="5.40044">
        <ele>159.19999694824</ele>
        <time>2021-07-18T10:16:45.000Z</time>
      </trkpt>
      <trkpt lat="50.63183" lon="5.40052">
        <ele>159</ele>
        <time>2021-07-18T10:16:46.000Z</time>
      </trkpt>
      <trkpt lat="50.63136" lon="5.40111">
        <ele>158.60000610352</ele>
        <time>2021-07-18T10:16:54.000Z</time>
      </trkpt>
      <trkpt lat="50.63089" lon="5.40173">
        <ele>158.19999694824</ele>
        <time>2021-07-18T10:17:02.000Z</time>
      </trkpt>
      <trkpt lat="50.63083" lon="5.40181">
        <ele>158</ele>
        <time>2021-07-18T10:17:03.000Z</time>
      </trkpt>
      <trkpt lat="50.63071" lon="5.40196">
        <ele>158</ele>
        <time>2021-07-18T10:17:05.000Z</time>
      </trkpt>
      <trkpt lat="50.63024" lon="5.40258">
        <ele>157.19999694824</ele>
        <time>2021-07-18T10:17:13.000Z</time>
      </trkpt>
      <trkpt lat="50.63018" lon="5.40265">
        <ele>157</ele>
        <time>2021-07-18T10:17:14.000Z</time>
      </trkpt>
      <trkpt lat="50.6298" lon="5.40318">
        <ele>156.39999389648</ele>
        <time>2021-07-18T10:17:21.000Z</time>
      </trkpt>
      <trkpt lat="50.62939" lon="5.40369">
        <ele>156</ele>
        <time>2021-07-18T10:17:28.000Z</time>
      </trkpt>
      <trkpt lat="50.62899" lon="5.40422">
        <ele>155.60000610352</ele>
        <time>2021-07-18T10:17:35.000Z</time>
      </trkpt>
      <trkpt lat="50.62888" lon="5.40437">
        <ele>155.60000610352</ele>
        <time>2021-07-18T10:17:37.000Z</time>
      </trkpt>
      <trkpt lat="50.62855" lon="5.4048">
        <ele>154.80000305176</ele>
        <time>2021-07-18T10:17:43.000Z</time>
      </trkpt>
      <trkpt lat="50.62824" lon="5.40519">
        <ele>154.60000610352</ele>
        <time>2021-07-18T10:17:49.000Z</time>
      </trkpt>
      <trkpt lat="50.62814" lon="5.40532">
        <ele>154.60000610352</ele>
        <time>2021-07-18T10:17:51.000Z</time>
      </trkpt>
      <trkpt lat="50.62799" lon="5.40551">
        <ele>154.80000305176</ele>
        <time>2021-07-18T10:17:54.000Z</time>
      </trkpt>
      <trkpt lat="50.6278" lon="5.40574">
        <ele>155.19999694824</ele>
        <time>2021-07-18T10:17:58.000Z</time>
      </trkpt>
      <trkpt lat="50.62776" lon="5.4058">
        <ele>155.39999389648</ele>
        <time>2021-07-18T10:17:59.000Z</time>
        <extensions>
          <visugpx:TrkExtension xmlns:visugpx="https://www.visugpx.com/editgpx/">
            <visugpx:node>12</visugpx:node>
            </visugpx:TrkExtension>
        </extensions>
      </trkpt>
      <trkpt lat="50.62766" lon="5.40589">
        <ele>158.5</ele>
      </trkpt>
      <trkpt lat="50.62735" lon="5.40631">
        <ele>160.4</ele>
        <extensions>
          <visugpx:TrkExtension xmlns:visugpx="https://www.visugpx.com/editgpx/">
            <visugpx:node>13</visugpx:node>
            </visugpx:TrkExtension>
        </extensions>
      </trkpt>
      <trkpt lat="50.62506" lon="5.40925">
        <ele>170.2</ele>
      </trkpt>
      <trkpt lat="50.62306" lon="5.41187">
        <ele>177</ele>
      </trkpt>
      <trkpt lat="50.62219" lon="5.41092">
        <ele>178.1</ele>
      </trkpt>
      <trkpt lat="50.62065" lon="5.41145">
        <ele>181.7</ele>
      </trkpt>
      <trkpt lat="50.61912" lon="5.4124">
        <ele>183</ele>
      </trkpt>
      <trkpt lat="50.62017" lon="5.41557">
        <ele>185.9</ele>
      </trkpt>
      <trkpt lat="50.61922" lon="5.41686">
        <ele>187</ele>
      </trkpt>
      <trkpt lat="50.61895" lon="5.41888">
        <ele>188.2</ele>
      </trkpt>
      <trkpt lat="50.61906" lon="5.42238">
        <ele>189.2</ele>
      </trkpt>
      <trkpt lat="50.61823" lon="5.42467">
        <ele>193.5</ele>
      </trkpt>
      <trkpt lat="50.61814" lon="5.42596">
        <ele>190.5</ele>
      </trkpt>
      <trkpt lat="50.6182" lon="5.42631">
        <ele>188.9</ele>
        <time>2021-07-18T10:22:39.000Z</time>
      </trkpt>
      <trkpt lat="50.6182" lon="5.42654">
        <ele>188</ele>
        <time>2021-07-18T10:22:40.000Z</time>
      </trkpt>
      <trkpt lat="50.61816" lon="5.42667">
        <ele>188.60000610352</ele>
        <time>2021-07-18T10:22:42.000Z</time>
      </trkpt>
      <trkpt lat="50.61814" lon="5.42679">
        <ele>187.80000305176</ele>
        <time>2021-07-18T10:22:43.000Z</time>
      </trkpt>
      <trkpt lat="50.61808" lon="5.42718">
        <ele>186.80000305176</ele>
        <time>2021-07-18T10:22:46.000Z</time>
      </trkpt>
      <trkpt lat="50.61803" lon="5.42743">
        <ele>185.60000610352</ele>
        <time>2021-07-18T10:22:48.000Z</time>
      </trkpt>
      <trkpt lat="50.6179" lon="5.4279">
        <ele>184</ele>
        <time>2021-07-18T10:22:52.000Z</time>
      </trkpt>
      <trkpt lat="50.61786" lon="5.42799">
        <ele>184</ele>
        <time>2021-07-18T10:22:53.000Z</time>
      </trkpt>
      <trkpt lat="50.61783" lon="5.42809">
        <ele>183.80000305176</ele>
        <time>2021-07-18T10:22:54.000Z</time>
      </trkpt>
      <trkpt lat="50.6177" lon="5.42844">
        <ele>183.80000305176</ele>
        <time>2021-07-18T10:22:58.000Z</time>
      </trkpt>
      <trkpt lat="50.61768" lon="5.42853">
        <ele>183.80000305176</ele>
        <time>2021-07-18T10:22:59.000Z</time>
      </trkpt>
      <trkpt lat="50.61767" lon="5.42863">
        <ele>183.60000610352</ele>
        <time>2021-07-18T10:23:00.000Z</time>
      </trkpt>
      <trkpt lat="50.61769" lon="5.42882">
        <ele>183.80000305176</ele>
        <time>2021-07-18T10:23:02.000Z</time>
      </trkpt>
      <trkpt lat="50.61772" lon="5.42891">
        <ele>184.39999389648</ele>
        <time>2021-07-18T10:23:03.000Z</time>
      </trkpt>
      <trkpt lat="50.61779" lon="5.42908">
        <ele>184.80000305176</ele>
        <time>2021-07-18T10:23:05.000Z</time>
      </trkpt>
      <trkpt lat="50.61783" lon="5.42915">
        <ele>184.80000305176</ele>
        <time>2021-07-18T10:23:06.000Z</time>
      </trkpt>
      <trkpt lat="50.61793" lon="5.42926">
        <ele>185.80000305176</ele>
        <time>2021-07-18T10:23:08.000Z</time>
      </trkpt>
      <trkpt lat="50.61809" lon="5.42941">
        <ele>186.39999389648</ele>
        <time>2021-07-18T10:23:11.000Z</time>
      </trkpt>
      <trkpt lat="50.61815" lon="5.42946">
        <ele>186.80000305176</ele>
        <time>2021-07-18T10:23:12.000Z</time>
      </trkpt>
      <trkpt lat="50.61831" lon="5.42961">
        <ele>187.60000610352</ele>
        <time>2021-07-18T10:23:15.000Z</time>
      </trkpt>
      <trkpt lat="50.61842" lon="5.42972">
        <ele>188</ele>
        <time>2021-07-18T10:23:17.000Z</time>
      </trkpt>
      <trkpt lat="50.61846" lon="5.42979">
        <ele>188</ele>
        <time>2021-07-18T10:23:18.000Z</time>
      </trkpt>
      <trkpt lat="50.61851" lon="5.42985">
        <ele>188.19999694824</ele>
        <time>2021-07-18T10:23:19.000Z</time>
      </trkpt>
      <trkpt lat="50.61891" lon="5.43038">
        <ele>189.39999389648</ele>
        <time>2021-07-18T10:23:27.000Z</time>
      </trkpt>
      <trkpt lat="50.61933" lon="5.43096">
        <ele>189.39999389648</ele>
        <time>2021-07-18T10:23:35.000Z</time>
      </trkpt>
      <trkpt lat="50.61963" lon="5.43139">
        <ele>189.19999694824</ele>
        <time>2021-07-18T10:23:41.000Z</time>
      </trkpt>
      <trkpt lat="50.61973" lon="5.43151">
        <ele>189.39999389648</ele>
        <time>2021-07-18T10:23:43.000Z</time>
      </trkpt>
      <trkpt lat="50.61979" lon="5.43156">
        <ele>189.39999389648</ele>
        <time>2021-07-18T10:23:44.000Z</time>
      </trkpt>
      <trkpt lat="50.62023" lon="5.43182">
        <ele>190</ele>
        <time>2021-07-18T10:23:51.000Z</time>
      </trkpt>
      <trkpt lat="50.62037" lon="5.43191">
        <ele>190.19999694824</ele>
        <time>2021-07-18T10:23:53.000Z</time>
      </trkpt>
      <trkpt lat="50.62056" lon="5.43208">
        <ele>190.39999389648</ele>
        <time>2021-07-18T10:23:56.000Z</time>
      </trkpt>
      <trkpt lat="50.62062" lon="5.43214">
        <ele>190.39999389648</ele>
        <time>2021-07-18T10:23:57.000Z</time>
      </trkpt>
      <trkpt lat="50.62084" lon="5.43239">
        <ele>190.19999694824</ele>
        <time>2021-07-18T10:24:01.000Z</time>
      </trkpt>
      <trkpt lat="50.621" lon="5.43256">
        <ele>190.19999694824</ele>
        <time>2021-07-18T10:24:04.000Z</time>
      </trkpt>
      <trkpt lat="50.62135" lon="5.43295">
        <ele>190.80000305176</ele>
        <time>2021-07-18T10:24:11.000Z</time>
      </trkpt>
      <trkpt lat="50.62151" lon="5.43315">
        <ele>191.19999694824</ele>
        <time>2021-07-18T10:24:14.000Z</time>
      </trkpt>
      <trkpt lat="50.62154" lon="5.43324">
        <ele>191.19999694824</ele>
        <time>2021-07-18T10:24:15.000Z</time>
      </trkpt>
      <trkpt lat="50.62158" lon="5.43333">
        <ele>191.39999389648</ele>
        <time>2021-07-18T10:24:16.000Z</time>
      </trkpt>
      <trkpt lat="50.62175" lon="5.43381">
        <ele>191.39999389648</ele>
        <time>2021-07-18T10:24:21.000Z</time>
      </trkpt>
      <trkpt lat="50.62189" lon="5.4342">
        <ele>191</ele>
        <time>2021-07-18T10:24:25.000Z</time>
      </trkpt>
      <trkpt lat="50.62196" lon="5.43439">
        <ele>190.80000305176</ele>
        <time>2021-07-18T10:24:27.000Z</time>
      </trkpt>
      <trkpt lat="50.62203" lon="5.43457">
        <ele>190.19999694824</ele>
        <time>2021-07-18T10:24:29.000Z</time>
      </trkpt>
      <trkpt lat="50.62206" lon="5.43466">
        <ele>190</ele>
        <time>2021-07-18T10:24:30.000Z</time>
      </trkpt>
      <trkpt lat="50.62208" lon="5.43486">
        <ele>189.80000305176</ele>
        <time>2021-07-18T10:24:32.000Z</time>
      </trkpt>
      <trkpt lat="50.62212" lon="5.43506">
        <ele>189.39999389648</ele>
        <time>2021-07-18T10:24:34.000Z</time>
      </trkpt>
      <trkpt lat="50.62216" lon="5.43514">
        <ele>189.19999694824</ele>
        <time>2021-07-18T10:24:35.000Z</time>
      </trkpt>
      <trkpt lat="50.62221" lon="5.43519">
        <ele>189</ele>
        <time>2021-07-18T10:24:36.000Z</time>
      </trkpt>
      <trkpt lat="50.62231" lon="5.43531">
        <ele>188.60000610352</ele>
        <time>2021-07-18T10:24:38.000Z</time>
      </trkpt>
      <trkpt lat="50.62235" lon="5.43539">
        <ele>188.60000610352</ele>
        <time>2021-07-18T10:24:39.000Z</time>
      </trkpt>
      <trkpt lat="50.62256" lon="5.43592">
        <ele>187.80000305176</ele>
        <time>2021-07-18T10:24:45.000Z</time>
      </trkpt>
      <trkpt lat="50.62268" lon="5.43621">
        <ele>187.19999694824</ele>
        <time>2021-07-18T10:24:48.000Z</time>
      </trkpt>
      <trkpt lat="50.6228" lon="5.43653">
        <ele>187.19999694824</ele>
        <time>2021-07-18T10:24:51.000Z</time>
      </trkpt>
      <trkpt lat="50.62285" lon="5.43664">
        <ele>187</ele>
        <time>2021-07-18T10:24:52.000Z</time>
      </trkpt>
      <trkpt lat="50.62306" lon="5.43716">
        <ele>185.19999694824</ele>
        <time>2021-07-18T10:24:57.000Z</time>
      </trkpt>
      <trkpt lat="50.62322" lon="5.43759">
        <ele>183.19999694824</ele>
        <time>2021-07-18T10:25:01.000Z</time>
      </trkpt>
      <trkpt lat="50.62328" lon="5.43782">
        <ele>183.19999694824</ele>
        <time>2021-07-18T10:25:03.000Z</time>
      </trkpt>
      <trkpt lat="50.62341" lon="5.43837">
        <ele>181.60000610352</ele>
        <time>2021-07-18T10:25:08.000Z</time>
      </trkpt>
      <trkpt lat="50.62343" lon="5.43848">
        <ele>181.60000610352</ele>
        <time>2021-07-18T10:25:09.000Z</time>
      </trkpt>
      <trkpt lat="50.62355" lon="5.43906">
        <ele>181.60000610352</ele>
        <time>2021-07-18T10:25:15.000Z</time>
      </trkpt>
      <trkpt lat="50.62367" lon="5.43963">
        <ele>182</ele>
        <time>2021-07-18T10:25:22.000Z</time>
      </trkpt>
      <trkpt lat="50.62371" lon="5.43987">
        <ele>182.60000610352</ele>
        <time>2021-07-18T10:25:25.000Z</time>
      </trkpt>
      <trkpt lat="50.62371" lon="5.44003">
        <ele>183</ele>
        <time>2021-07-18T10:25:27.000Z</time>
      </trkpt>
      <trkpt lat="50.62369" lon="5.44011">
        <ele>183</ele>
        <time>2021-07-18T10:25:28.000Z</time>
      </trkpt>
      <trkpt lat="50.62367" lon="5.4402">
        <ele>183.19999694824</ele>
        <time>2021-07-18T10:25:29.000Z</time>
      </trkpt>
      <trkpt lat="50.62356" lon="5.44042">
        <ele>183.80000305176</ele>
        <time>2021-07-18T10:25:32.000Z</time>
      </trkpt>
      <trkpt lat="50.62327" lon="5.44094">
        <ele>184.39999389648</ele>
        <time>2021-07-18T10:25:39.000Z</time>
      </trkpt>
      <trkpt lat="50.62308" lon="5.44139">
        <ele>184.19999694824</ele>
        <time>2021-07-18T10:25:44.000Z</time>
      </trkpt>
      <trkpt lat="50.62304" lon="5.44161">
        <ele>184.39999389648</ele>
        <time>2021-07-18T10:25:46.000Z</time>
      </trkpt>
      <trkpt lat="50.62304" lon="5.44184">
        <ele>184.39999389648</ele>
        <time>2021-07-18T10:25:48.000Z</time>
      </trkpt>
      <trkpt lat="50.62305" lon="5.44194">
        <ele>184.39999389648</ele>
        <time>2021-07-18T10:25:49.000Z</time>
      </trkpt>
      <trkpt lat="50.62306" lon="5.44204">
        <ele>184.39999389648</ele>
        <time>2021-07-18T10:25:50.000Z</time>
      </trkpt>
      <trkpt lat="50.6231" lon="5.44223">
        <ele>184.39999389648</ele>
        <time>2021-07-18T10:25:52.000Z</time>
      </trkpt>
      <trkpt lat="50.62317" lon="5.44249">
        <ele>184.39999389648</ele>
        <time>2021-07-18T10:25:55.000Z</time>
      </trkpt>
      <trkpt lat="50.62327" lon="5.44293">
        <ele>185.39999389648</ele>
        <time>2021-07-18T10:26:00.000Z</time>
      </trkpt>
      <trkpt lat="50.62338" lon="5.44349">
        <ele>186</ele>
        <time>2021-07-18T10:26:06.000Z</time>
      </trkpt>
      <trkpt lat="50.62341" lon="5.44368">
        <ele>186.19999694824</ele>
        <time>2021-07-18T10:26:08.000Z</time>
      </trkpt>
      <trkpt lat="50.62346" lon="5.44405">
        <ele>186.39999389648</ele>
        <time>2021-07-18T10:26:12.000Z</time>
      </trkpt>
      <trkpt lat="50.62349" lon="5.44442">
        <ele>187.19999694824</ele>
        <time>2021-07-18T10:26:16.000Z</time>
      </trkpt>
      <trkpt lat="50.6235" lon="5.4446">
        <ele>187.80000305176</ele>
        <time>2021-07-18T10:26:18.000Z</time>
      </trkpt>
      <trkpt lat="50.62352" lon="5.44487">
        <ele>188.39999389648</ele>
        <time>2021-07-18T10:26:21.000Z</time>
      </trkpt>
      <trkpt lat="50.62353" lon="5.44506">
        <ele>188.60000610352</ele>
        <time>2021-07-18T10:26:23.000Z</time>
      </trkpt>
      <trkpt lat="50.62353" lon="5.44585">
        <ele>189.80000305176</ele>
        <time>2021-07-18T10:26:31.000Z</time>
      </trkpt>
      <trkpt lat="50.62352" lon="5.44614">
        <ele>189.80000305176</ele>
        <time>2021-07-18T10:26:34.000Z</time>
      </trkpt>
      <trkpt lat="50.62347" lon="5.44664">
        <ele>190.39999389648</ele>
        <time>2021-07-18T10:26:39.000Z</time>
      </trkpt>
      <trkpt lat="50.6234" lon="5.44723">
        <ele>190.39999389648</ele>
        <time>2021-07-18T10:26:45.000Z</time>
      </trkpt>
      <trkpt lat="50.62336" lon="5.44734">
        <ele>191.6</ele>
        <time>2021-07-18T10:26:46.000Z</time>
      </trkpt>
      <trkpt lat="50.62327" lon="5.44815">
        <ele>190.9</ele>
        <time>2021-07-18T10:26:52.000Z</time>
        <extensions>
          <visugpx:TrkExtension xmlns:visugpx="https://www.visugpx.com/editgpx/">
            <visugpx:node>11</visugpx:node>
            </visugpx:TrkExtension>
        </extensions>
      </trkpt>
    </trkseg>
  </trk>
</gpx>